Date StartTime U_cm/s V_cm/s W_cm/s Ustd_cm/s Vstd_cm/s Wstd_cm/s Uvar_(cm/s)^2 Vvar_(cm/s)^2 Wvar_(cm/s)^2 KE_(m/s)^2 TurbulentKE_(m/s)^2 HorizWindSpeed_cm/s FrictionSpeec_cm/s DragCoef SpeedOfSound_m/s SonicTemperature_C Pressure_mb 
12/23/2013  00:00:00      -68.483      -28.888       -3.724       14.566       13.594        9.752      212.155      184.798       95.096        0.302        0.025       74.327        2.542        0.001      332.422        1.074      871.271
12/23/2013  00:01:00      -76.095       -4.682       -8.400       12.917       10.121       11.035      166.861      102.433      121.765        0.314        0.020       76.239        6.692        0.008      332.433        1.093      871.269
12/23/2013  00:02:00      -69.058       -9.405       -9.957        7.251        8.310        8.564       52.580       69.050       73.343        0.258        0.010       69.695        3.424        0.002      332.434        1.094      871.261
12/23/2013  00:03:00      -65.203      -16.454      -12.649        7.562       13.510        8.008       57.188      182.519       64.125        0.249        0.015       67.247        6.208        0.009      332.434        1.094      871.246
12/23/2013  00:04:00      -76.801      -34.980      -13.074       11.277       10.781        6.728      127.167      116.233       45.261        0.379        0.014       84.391        3.599        0.002      332.332        0.925      871.232
12/23/2013  00:05:00      -90.388      -16.557      -12.288       10.735        7.921        6.978      115.246       62.738       48.694        0.441        0.011       91.892        2.639        0.001      332.280        0.841      871.235
12/23/2013  00:06:00      -97.913      -33.657      -11.033        9.180       10.742        8.069       84.272      115.385       65.109        0.555        0.013      103.537        4.402        0.002      332.285        0.848      871.244
12/23/2013  00:07:00     -105.135      -29.992      -14.503       14.907       12.761        9.493      222.221      162.844       90.113        0.632        0.024      109.330        5.033        0.002      332.248        0.787      871.249
12/23/2013  00:08:00     -116.639      -32.365      -16.169       16.788       14.183       11.001      281.852      201.147      121.033        0.776        0.030      121.046        8.998        0.006      332.155        0.635      871.244
12/23/2013  00:09:00     -139.176      -31.418      -18.146       10.470       10.565        9.353      109.620      111.622       87.486        1.050        0.015      142.678        4.324        0.001      332.194        0.699      871.236
12/23/2013  00:10:00     -120.721      -37.293      -11.526       21.720       14.904       14.166      471.761      222.120      200.663        0.850        0.045      126.351       14.124        0.012      332.145        0.618      871.220
12/23/2013  00:11:00     -135.637      -22.575       -9.029       26.336       30.478       18.981      693.602      928.890      360.278        1.049        0.099      137.503       15.714        0.013      331.978        0.341      871.219
12/23/2013  00:12:00     -119.061       -7.457      -12.318       38.810       30.508       23.484     1506.222      930.717      551.507        0.869        0.149      119.294       22.069        0.034      332.014        0.401      871.233
12/23/2013  00:13:00     -126.085       -0.942       -6.597       42.985       39.514       31.228     1847.668     1561.356      975.211        1.016        0.219      126.088       26.707        0.045      332.116        0.570      871.250
12/23/2013  00:14:00     -139.228       -5.719      -11.328       49.404       33.424       24.982     2440.756     1117.147      624.100        1.186        0.209      139.345       23.727        0.029      332.035        0.435      871.269
12/23/2013  00:15:00     -118.271        2.748       -5.178       67.065       34.214       33.430     4497.727     1170.571     1117.578        1.040        0.339      118.303       35.280        0.089      331.996        0.371      871.280
12/23/2013  00:16:00     -158.475       -5.299      -11.076       63.718       42.482       32.989     4059.953     1804.712     1088.246        1.611        0.348      158.564       39.523        0.062      332.004        0.383      871.295
12/23/2013  00:17:00     -133.778       -3.516      -10.299       49.028       39.456       23.133     2403.773     1556.771      535.139        1.125        0.225      133.824       23.946        0.032      331.971        0.329      871.303
12/23/2013  00:18:00     -118.729      -49.343      -11.030       28.758       27.767       19.749      827.015      771.008      390.038        0.932        0.099      128.574       18.024        0.020      331.968        0.326      871.304
12/23/2013  00:19:00     -112.204      -30.552       -9.503       50.964       24.644       22.343     2597.289      607.335      499.212        0.866        0.185      116.289       17.583        0.023      331.983        0.351      871.305
12/23/2013  00:20:00      -42.775      -34.665        8.566       33.449       23.640       18.453     1118.845      558.848      340.497        0.256        0.101       55.058       16.758        0.093      332.004        0.387      871.297
12/23/2013  00:21:00     -107.403      -28.525      -13.112       14.496        9.744        8.947      210.130       94.937       80.056        0.645        0.019      111.126        3.363        0.001      332.011        0.398      871.279
12/23/2013  00:22:00     -117.936      -22.857      -16.773       19.025       14.508       13.865      361.943      210.472      192.230        0.774        0.038      120.130        5.007        0.002      331.977        0.339      871.273
12/23/2013  00:23:00     -113.533      -38.783      -16.949       10.448       13.215       11.102      109.167      174.627      123.265        0.754        0.020      119.975        5.535        0.002      331.930        0.262      871.266
12/23/2013  00:24:00     -108.390      -54.588      -16.013       22.410       19.567       16.556      502.198      382.875      274.110        0.807        0.058      121.360       10.583        0.008      331.913        0.234      871.263
12/23/2013  00:25:00     -118.432      -47.787      -10.289       30.043       29.889       15.126      902.567      893.355      228.791        0.922        0.101      127.710       14.365        0.013      331.949        0.293      871.266
12/23/2013  00:26:00     -115.820      -17.942       -3.093       37.491       32.157       20.927     1405.603     1034.075      437.937        0.831        0.144      117.202       16.093        0.019      332.022        0.415      871.265
12/23/2013  00:27:00     -104.664      -23.495        3.144       46.395       38.994       22.667     2152.468     1520.535      513.780        0.785        0.209      107.268       21.677        0.041      332.074        0.500      871.256
12/23/2013  00:28:00      -86.456       -7.779       -0.785       38.097       38.990       20.603     1451.402     1520.232      424.481        0.547        0.170       86.805       18.247        0.044      332.076        0.503      871.250
12/23/2013  00:29:00     -126.077      -22.616       -6.814       37.255       28.928       20.988     1387.902      836.832      440.503        0.956        0.133      128.089       20.341        0.025      332.099        0.541      871.242
12/23/2013  00:30:00     -114.444      -39.058       -4.218       25.477       26.469       14.349      649.066      700.600      205.897        0.810        0.078      120.925       13.884        0.013      332.100        0.543      871.237
12/23/2013  00:31:00     -106.882      -38.598       -9.583       27.987       24.879       15.539      783.272      618.975      241.448        0.732        0.082      113.638       14.292        0.016      332.041        0.445      871.233
12/23/2013  00:32:00     -101.907      -35.513       -9.989       17.574       17.360       12.932      308.829      301.378      167.232        0.626        0.039      107.918        7.902        0.005      332.068        0.490      871.225
12/23/2013  00:33:00      -81.401      -38.881       -6.525       16.746       15.152       13.170      280.440      229.574      173.455        0.443        0.034       90.210        9.756        0.012      331.997        0.373      871.215
12/23/2013  00:34:00      -64.164      -21.000        0.044       25.881       23.118       16.853      669.829      534.462      284.013        0.302        0.074       67.513       13.221        0.038      332.054        0.468      871.201
12/23/2013  00:35:00      -67.381      -25.824      -10.270       18.491       22.028       13.751      341.935      485.248      189.101        0.316        0.051       72.160       10.775        0.022      332.076        0.506      871.198
12/23/2013  00:36:00      -70.648      -12.420       -9.289       21.260       19.107       12.891      451.986      365.060      166.185        0.311        0.049       71.732       11.392        0.025      332.066        0.487      871.200
12/23/2013  00:37:00      -81.297        9.059       -9.876       18.615       23.608       17.894      346.507      557.358      320.198        0.401        0.061       81.800        8.812        0.012      332.088        0.523      871.206
12/23/2013  00:38:00     -112.407      -14.490      -10.963       41.158       32.832       20.283     1693.942     1077.972      411.381        0.807        0.159      113.338       16.432        0.021      332.010        0.395      871.215
12/23/2013  00:39:00     -108.025      -15.545      -16.955       34.467       31.188       16.566     1187.951      972.665      274.425        0.732        0.122      109.137       17.410        0.025      331.964        0.318      871.232
12/23/2013  00:40:00     -122.096        1.744      -15.653       34.514       21.270       18.500     1191.221      452.399      342.235        0.857        0.099      122.109       13.994        0.013      331.968        0.325      871.244
12/23/2013  00:41:00      -91.253        6.926      -19.492       18.657       16.803       13.254      348.090      282.333      175.670        0.478        0.040       91.515       12.054        0.017      331.944        0.287      871.252
12/23/2013  00:42:00      -82.044      -26.477      -12.056       13.120       12.832       10.876      172.125      164.659      118.297        0.402        0.023       86.210        6.815        0.006      332.040        0.445      871.252
12/23/2013  00:43:00      -41.309      -30.039       -1.123       23.127       22.091       17.770      534.876      488.032      315.774        0.197        0.067       51.076       15.620        0.094      332.043        0.451      871.263
12/23/2013  00:44:00      -58.101      -20.607      -13.424       12.750       11.535       12.783      162.550      133.055      163.397        0.222        0.023       61.647        8.014        0.017      332.025        0.420      871.271
12/23/2013  00:45:00      -84.017      -20.611      -11.791       12.622       15.656       10.665      159.320      245.096      113.745        0.407        0.026       86.508        8.875        0.011      332.040        0.445      871.261
12/23/2013  00:46:00     -110.904      -28.520      -14.497       24.494       18.037       10.813      599.971      325.344      116.911        0.718        0.052      114.512       10.521        0.008      332.037        0.441      871.255
12/23/2013  00:47:00      -90.306      -38.421      -11.414       19.366       24.286       18.718      375.047      589.829      350.347        0.554        0.066       98.139       13.226        0.018      331.982        0.348      871.245
12/23/2013  00:48:00      -88.520      -36.135      -21.415       27.105       28.011       16.753      734.659      784.612      280.657        0.570        0.090       95.612       18.324        0.037      331.983        0.350      871.242
12/23/2013  00:49:00      -44.069      -51.234      -13.996       24.211       23.427       22.080      586.182      548.831      487.520        0.319        0.081       67.580       15.212        0.051      332.114        0.567      871.250
12/23/2013  00:50:00      -36.424      -40.878        2.622       23.522       26.428       20.418      553.287      698.413      416.913        0.234        0.083       54.752       15.250        0.078      332.108        0.557      871.269
12/23/2013  00:51:00      -78.926      -66.067      -13.080       25.204       24.564       14.374      635.244      603.370      206.622        0.610        0.072      102.928       14.401        0.020      332.037        0.439      871.280
12/23/2013  00:52:00     -127.315      -47.112      -21.082       14.800       17.150       12.366      219.043      294.124      152.916        0.977        0.033      135.752        7.210        0.003      332.033        0.433      871.279
12/23/2013  00:53:00     -128.122      -28.986      -12.944       22.206       17.518       12.628      493.099      306.869      159.458        0.919        0.048      131.360        7.166        0.003      332.010        0.394      871.277
12/23/2013  00:54:00     -119.961      -45.817      -12.174        9.361       21.118       10.464       87.630      445.979      109.493        0.864        0.032      128.412        3.199        0.001      332.040        0.444      871.275
12/23/2013  00:55:00     -105.457      -40.176       -6.175       21.946       21.461       14.584      481.635      460.590      212.683        0.696        0.058      112.851       12.293        0.012      332.009        0.392      871.278
12/23/2013  00:56:00      -89.067      -55.092       -4.597       36.902       26.867       15.630     1361.729      721.851      244.298        0.666        0.116      104.729       15.932        0.023      331.965        0.320      871.279
12/23/2013  00:57:00      -83.350      -44.718       -1.422       31.543       29.653       17.341      994.972      879.318      300.713        0.556        0.109       94.588       13.027        0.019      332.046        0.455      871.284
12/23/2013  00:58:00      -69.879      -18.842       -1.689       27.020       25.774       13.945      730.098      664.279      194.474        0.341        0.079       72.374       10.992        0.023      331.978        0.342      871.296
12/23/2013  00:59:00      -90.429      -24.248       -5.354       20.442       18.291       13.503      417.877      334.549      182.332        0.486        0.047       93.624       11.613        0.015      332.033        0.432      871.310
12/23/2013  01:00:00      -56.159      -24.705       -1.927       15.741       13.387       10.284      247.773      179.215      105.762        0.215        0.027       61.353        7.611        0.015      332.007        0.389      871.319
12/23/2013  01:01:00      -85.897      -27.901      -11.160       13.804       17.795        8.620      190.549      316.664       74.310        0.443        0.029       90.315        5.708        0.004      332.014        0.400      871.324
12/23/2013  01:02:00      -96.875      -32.736      -10.781       11.185        9.665        7.893      125.095       93.416       62.306        0.543        0.014      102.257        5.205        0.003      331.999        0.375      871.325
12/23/2013  01:03:00      -89.826      -36.454      -10.421       10.259        8.098        6.884      105.239       65.578       47.383        0.486        0.011       96.941        3.028        0.001      332.061        0.479      871.316
12/23/2013  01:04:00      -72.020      -37.020       -9.382       13.815       12.337        5.835      190.854      152.199       34.045        0.351        0.019       80.978        4.899        0.004      332.169        0.657      871.309
12/23/2013  01:05:00      -45.643      -47.680        5.072       34.457       18.249       14.311     1187.287      333.032      204.791        0.305        0.086       66.005       18.088        0.075      332.285        0.849      871.308
12/23/2013  01:06:00      -23.380      -15.666        8.924       24.436       14.901       14.956      597.094      222.028      223.692        0.096        0.052       28.143       12.610        0.201      332.137        0.605      871.303
12/23/2013  01:07:00      -52.128      -35.200       -5.346       18.126       15.411       13.543      328.558      237.510      183.422        0.237        0.037       62.900        8.970        0.020      332.140        0.609      871.306
12/23/2013  01:08:00      -54.129      -38.039       -1.427       20.220       11.159       10.515      408.863      124.513      110.557        0.251        0.032       66.158        8.370        0.016      332.131        0.594      871.325
12/23/2013  01:09:00       -6.812      -17.550        8.902       12.789       10.336        7.436      163.552      106.841       55.293        0.038        0.016       18.826        6.141        0.106      332.163        0.648      871.350
12/23/2013  01:10:00      -63.009      -29.897       -7.563       21.026        8.232        7.330      442.098       67.772       53.733        0.274        0.028       69.742        5.883        0.007      332.137        0.605      871.378
12/23/2013  01:11:00      -60.650      -22.493       -9.175       14.098        6.827        4.615      198.763       46.612       21.295        0.227        0.013       64.687        2.393        0.001      332.051        0.463      871.405
12/23/2013  01:12:00      -12.179      -24.509       -5.770       17.981        7.976        6.638      323.300       63.618       44.069        0.061        0.022       27.369        3.290        0.014      332.134        0.599      871.416
12/23/2013  01:13:00        7.623       -6.259       -1.070       10.885        9.263        6.172      118.486       85.796       38.098        0.017        0.012        9.863        3.868        0.154      332.184        0.682      871.412
12/23/2013  01:14:00      -10.080       -5.068        1.924       10.443        6.402        4.371      109.055       40.985       19.107        0.015        0.008       11.282        4.233        0.141      332.213        0.729      871.407
12/23/2013  01:15:00      -50.213      -14.535       -3.346        8.562        9.274        7.543       73.311       86.009       56.902        0.148        0.011       52.275        6.213        0.014      332.246        0.785      871.392
12/23/2013  01:16:00      -23.803      -12.382       -0.903       13.773        9.012        7.195      189.690       81.208       51.774        0.052        0.016       26.831        8.416        0.098      332.132        0.596      871.380
12/23/2013  01:17:00      -53.203       -1.518       -6.893        7.619        7.764        6.003       58.043       60.287       36.032        0.152        0.008       53.224        3.081        0.003      332.103        0.547      871.370
12/23/2013  01:18:00      -64.277       -6.640       -5.983        5.678        7.320        4.418       32.242       53.585       19.521        0.216        0.005       64.619        2.051        0.001      332.102        0.547      871.377
12/23/2013  01:19:00      -70.241      -25.586       -4.527        7.366        6.487        3.955       54.251       42.084       15.643        0.286        0.006       74.756        2.768        0.001      332.088        0.523      871.381
12/23/2013  01:20:00      -77.317      -16.493       -4.201       15.296       12.525        8.728      233.954      156.872       76.172        0.337        0.023       79.057        9.218        0.014      332.073        0.498      871.384
12/23/2013  01:21:00      -99.567      -11.836       -8.275       15.687       11.717        9.966      246.080      137.294       99.328        0.530        0.024      100.268        8.722        0.008      332.032        0.432      871.388
12/23/2013  01:22:00      -99.457      -22.434       -5.719       17.482       17.812       13.209      305.627      317.273      174.472        0.561        0.040      101.955       10.399        0.010      332.005        0.386      871.380
12/23/2013  01:23:00     -117.230      -10.999       -8.337       22.907       14.091       14.212      524.715      198.544      201.989        0.743        0.046      117.745       10.028        0.007      331.882        0.184      871.378
12/23/2013  01:24:00      -88.536      -13.519       -8.639       32.439       19.907       16.079     1052.286      396.276      258.550        0.490        0.085       89.563       17.305        0.037      331.878        0.177      871.364
12/23/2013  01:25:00      -80.885      -19.303       -5.545       22.225       22.481       15.257      493.944      505.394      232.786        0.409        0.062       83.157       14.507        0.030      331.832        0.101      871.359
12/23/2013  01:26:00      -81.183      -42.257      -11.012       12.595       13.329        8.037      158.622      177.661       64.588        0.445        0.020       91.522        4.918        0.003      331.897        0.208      871.357
12/23/2013  01:27:00     -129.779      -31.929      -18.524       19.762       13.983       10.374      390.542      195.519      107.614        0.945        0.035      133.649        7.092        0.003      331.997        0.373      871.352
12/23/2013  01:28:00     -133.026      -34.143      -16.490       23.218       13.539       13.991      539.060      183.314      195.739        1.003        0.046      137.338       12.269        0.008      331.954        0.302      871.352
12/23/2013  01:29:00     -112.199      -29.114      -10.345       19.856       15.065       12.414      394.260      226.961      154.111        0.716        0.039      115.915       10.985        0.009      331.783        0.022      871.358
12/23/2013  01:30:00     -116.490      -18.811       -6.969       21.774       17.020       12.804      474.103      289.688      163.951        0.745        0.046      117.999       10.129        0.007      331.788        0.029      871.362
12/23/2013  01:31:00     -133.864      -25.069      -16.036       11.722       11.905       11.181      137.415      141.732      125.025        0.960        0.020      136.191        7.042        0.003      331.834        0.105      871.378
12/23/2013  01:32:00      -99.117      -48.824      -11.622       20.957       24.940       14.935      439.177      622.028      223.043        0.681        0.064      110.489       12.450        0.013      331.832        0.103      871.385
12/23/2013  01:33:00      -94.525      -46.379       -8.731       21.041       19.732       17.658      442.718      389.340      311.791        0.615        0.057      105.290       14.467        0.019      331.651       -0.194      871.389
12/23/2013  01:34:00     -101.703      -24.965       -3.345       28.851       19.661       16.602      832.404      386.542      275.627        0.624        0.075      104.723       15.047        0.021      331.656       -0.187      871.392
12/23/2013  01:35:00      -95.668      -15.074       -5.059       29.240       18.000       16.375      854.969      324.011      268.126        0.543        0.072       96.848       17.037        0.031      331.663       -0.177      871.394
12/23/2013  01:36:00      -67.221      -25.922        2.217       31.123       30.415       17.311      968.672      925.062      299.669        0.369        0.110       72.046       17.554        0.059      331.649       -0.199      871.402
12/23/2013  01:37:00      -78.374        4.022       -1.663       41.130       37.985       24.749     1691.670     1442.857      612.508        0.495        0.187       78.477       23.395        0.089      331.831        0.099      871.401
12/23/2013  01:38:00      -70.805      -11.545       -2.254       28.150       19.985       15.818      792.407      399.403      250.212        0.330        0.072       71.740       14.766        0.042      331.855        0.140      871.392
12/23/2013  01:39:00      -58.490      -21.936       -4.816       18.047       21.684       14.248      325.685      470.187      202.997        0.246        0.050       62.468       10.421        0.028      331.837        0.109      871.391
12/23/2013  01:40:00      -74.477      -22.303       -6.216       16.321       14.229       10.961      266.367      202.465      120.138        0.334        0.029       77.745        4.881        0.004      331.846        0.123      871.380
12/23/2013  01:41:00      -72.570      -19.651       -6.462       14.276       14.959       11.200      203.802      223.758      125.450        0.312        0.028       75.184        7.877        0.011      331.779        0.015      871.379
12/23/2013  01:42:00      -40.788      -24.145        1.435       19.129       20.418       13.503      365.900      416.882      182.328        0.161        0.048       47.399       13.057        0.076      331.738       -0.052      871.382
12/23/2013  01:43:00      -66.405       -5.727       -9.785       15.768       11.496       10.933      248.631      132.155      119.520        0.252        0.025       66.652       10.271        0.024      331.742       -0.046      871.395
12/23/2013  01:44:00     -100.089      -29.257      -12.048       23.372       16.296        8.603      546.241      265.550       74.006        0.595        0.044      104.278       10.540        0.010      331.718       -0.085      871.404
12/23/2013  01:45:00     -134.903       -6.638      -15.742       22.410       15.859       13.244      502.199      251.524      175.401        0.971        0.046      135.066        6.170        0.002      331.701       -0.115      871.409
12/23/2013  01:46:00      -84.137       -7.061       -7.390       34.190       16.848       17.721     1168.963      283.849      314.039        0.447        0.088       84.433       19.369        0.053      331.617       -0.253      871.414
12/23/2013  01:47:00      -94.572       -7.325       -8.502       24.784       18.088       13.712      614.242      327.162      188.031        0.510        0.056       94.855       14.605        0.024      331.644       -0.207      871.425
12/23/2013  01:48:00      -76.307        4.558       -7.849       31.506       20.744       13.198      992.610      430.310      174.174        0.375        0.080       76.443       13.464        0.031      331.662       -0.178      871.429
12/23/2013  01:49:00      -51.381        5.914      -11.985       14.023       13.727        7.828      196.635      188.430       61.275        0.163        0.022       51.720        5.030        0.009      331.723       -0.077      871.434
12/23/2013  01:50:00      -44.128       -6.911       -8.256       16.469       13.460       10.066      271.220      181.176      101.315        0.131        0.028       44.666        6.876        0.024      331.878        0.178      871.441
12/23/2013  01:51:00      -41.021      -24.526      -11.448       12.621       13.381       10.606      159.291      179.064      112.498        0.143        0.023       47.794        6.039        0.016      331.903        0.218      871.451
12/23/2013  01:52:00      -89.220      -22.152      -15.093       11.670       12.849       11.055      136.196      165.087      122.220        0.455        0.021       91.929        5.417        0.003      331.850        0.130      871.464
12/23/2013  01:53:00      -78.529      -22.706      -11.089       21.044       20.069       15.036      442.844      402.762      226.087        0.394        0.054       81.746       12.406        0.023      331.777        0.011      871.479
12/23/2013  01:54:00      -96.336      -16.039      -16.483       14.880       15.290       13.683      221.408      233.777      187.218        0.523        0.032       97.662        8.273        0.007      331.733       -0.061      871.491
12/23/2013  01:55:00      -88.620       -1.897      -17.405       19.556       14.657       11.203      382.423      214.842      125.497        0.444        0.036       88.640        9.685        0.012      331.724       -0.076      871.498
12/23/2013  01:56:00      -48.561        1.922       -9.541       14.893       14.467       10.261      221.793      209.303      105.284        0.149        0.027       48.599       10.936        0.051      331.814        0.073      871.489
12/23/2013  01:57:00      -31.915      -12.780      -10.311        9.540       12.088        6.801       91.019      146.130       46.254        0.079        0.014       34.379        3.147        0.008      331.869        0.164      871.481
12/23/2013  01:58:00      -27.685      -27.196      -13.626       14.905       19.507        9.045      222.165      380.541       81.809        0.119        0.034       38.808        4.802        0.015      332.211        0.727      871.474
12/23/2013  01:59:00      -17.695      -42.867        7.022       12.618       16.904       13.037      159.204      285.758      169.970        0.141        0.031       46.375        7.482        0.026      332.066        0.487      871.464
12/23/2013  02:00:00        4.177      -10.433        8.938        8.459       14.878        7.178       71.547      221.351       51.531        0.028        0.017       11.238        3.715        0.109      331.983        0.349      871.463
12/23/2013  02:01:00        5.548        0.763        8.853       10.525        7.051        8.817      110.777       49.710       77.739        0.017        0.012        5.600        7.180        1.644      332.010        0.396      871.451
12/23/2013  02:02:00        3.850      -11.840        7.814        8.182       17.460       10.246       66.951      304.842      104.991        0.035        0.024       12.450       12.009        0.930      332.098        0.541      871.445
12/23/2013  02:03:00      -45.665      -26.784       -8.152       28.688        9.047        6.613      822.990       81.850       43.735        0.191        0.047       52.940        3.968        0.006      331.907        0.226      871.450
12/23/2013  02:04:00     -111.120      -17.754      -16.827       20.373       13.629        8.634      415.045      185.749       74.554        0.681        0.034      112.529        2.299        0.000      331.526       -0.401      871.472
12/23/2013  02:05:00     -127.199      -12.537      -16.875       20.016       10.923        7.700      400.643      119.306       59.293        0.860        0.029      127.816        2.601        0.000      331.525       -0.405      871.492
12/23/2013  02:06:00     -104.512      -16.116      -13.845       14.588       17.765        9.771      212.815      315.584       95.475        0.600        0.031      105.748        5.668        0.003      331.567       -0.335      871.511
12/23/2013  02:07:00     -139.772      -32.384      -17.319       14.353       10.865       11.188      205.999      118.052      125.174        1.067        0.022      143.474        5.509        0.001      331.564       -0.339      871.518
12/23/2013  02:08:00     -148.964      -28.973      -18.374       18.662       15.039       12.584      348.252      226.185      158.359        1.205        0.037      151.755       10.419        0.005      331.433       -0.557      871.511
12/23/2013  02:09:00     -147.047      -15.896      -11.694       24.684       18.425       15.304      609.288      339.487      234.205        1.160        0.059      147.904       13.140        0.008      331.475       -0.488      871.496
12/23/2013  02:10:00     -134.355       -1.383      -17.107       16.013       12.338        9.247      256.431      152.216       85.504        0.942        0.025      134.362        4.399        0.001      331.523       -0.406      871.495
12/23/2013  02:11:00      -85.931      -24.108       -4.669       30.443       27.441       19.250      926.783      752.985      370.551        0.502        0.103       89.249       16.885        0.036      331.545       -0.370      871.493
12/23/2013  02:12:00      -51.262       -0.377       -1.929       28.061       26.073       20.843      787.393      679.817      434.445        0.227        0.095       51.263       14.795        0.083      331.713       -0.093      871.490
12/23/2013  02:13:00      -91.614       15.660       -9.543       32.494       25.690       18.997     1055.861      659.994      360.893        0.540        0.104       92.943       10.972        0.014      331.816        0.076      871.493
12/23/2013  02:14:00      -79.786       10.756      -12.568       39.941       24.951       17.366     1595.290      622.542      301.565        0.458        0.126       80.508       18.280        0.052      331.742       -0.046      871.500
12/23/2013  02:15:00      -60.039        3.028       -9.607       24.898       26.843       15.213      619.920      720.520      231.430        0.264        0.079       60.115        9.120        0.023      331.750       -0.033      871.506
12/23/2013  02:16:00      -72.250      -32.159      -10.792       23.343       19.798       12.946      544.910      391.944      167.596        0.374        0.055       79.084        9.859        0.016      331.678       -0.152      871.519
12/23/2013  02:17:00      -84.437      -29.449      -15.256       24.196       22.023       13.879      585.448      485.032      192.619        0.475        0.063       89.425        9.974        0.012      331.516       -0.420      871.520
12/23/2013  02:18:00      -72.030      -54.176      -11.995       19.482       21.289       14.432      379.548      453.224      208.294        0.465        0.052       90.130        8.047        0.008      331.502       -0.442      871.527
12/23/2013  02:19:00      -87.775      -18.783      -23.870       13.659       19.921       10.308      186.575      396.860      106.251        0.466        0.034       89.762        6.967        0.006      331.468       -0.498      871.525
12/23/2013  02:20:00      -91.471      -16.651      -20.053       13.116       17.465       14.703      172.034      305.044      216.189        0.487        0.035       92.974        9.937        0.011      331.520       -0.413      871.522
12/23/2013  02:21:00      -90.150      -23.549      -23.550       18.684       21.695       14.141      349.100      470.678      199.979        0.513        0.051       93.175       14.139        0.023      331.487       -0.467      871.518
12/23/2013  02:22:00      -82.935      -14.572      -18.601       14.141       18.471       15.134      199.956      341.174      229.042        0.410        0.039       84.206       11.335        0.018      331.545       -0.370      871.514
12/23/2013  02:23:00      -93.309      -10.151      -26.820       19.578       18.516       14.362      383.297      342.838      206.278        0.523        0.047       93.860       11.832        0.016      331.644       -0.207      871.514
12/23/2013  02:24:00      -88.021       -9.985      -18.497       23.091       18.610       17.237      533.188      346.330      297.124        0.468        0.059       88.586       14.383        0.026      331.565       -0.337      871.503
12/23/2013  02:25:00      -84.874      -14.861      -12.146       17.177       16.532       15.813      295.055      273.305      250.043        0.420        0.041       86.165        9.962        0.013      331.567       -0.335      871.499
12/23/2013  02:26:00      -76.683      -18.681       -5.146       26.726       25.264       18.938      714.273      638.264      358.639        0.398        0.086       78.925       17.371        0.048      331.563       -0.341      871.501
12/23/2013  02:27:00     -117.573      -14.445      -19.060       30.265       28.398       17.066      915.983      806.472      291.246        0.820        0.101      118.457       13.188        0.012      331.586       -0.303      871.518
12/23/2013  02:28:00      -91.245      -17.835       -8.807       31.514       25.533       20.047      993.160      651.918      401.867        0.538        0.102       92.972       16.958        0.033      331.593       -0.292      871.528
12/23/2013  02:29:00     -127.559      -22.631      -11.792       49.225       30.857       15.404     2423.089      952.150      237.277        1.027        0.181      129.551       15.249        0.014      331.556       -0.352      871.537
12/23/2013  02:30:00     -120.528      -26.403      -14.476       47.278       37.304       22.258     2235.236     1391.600      495.437        0.978        0.206      123.386       19.245        0.024      331.539       -0.381      871.547
12/23/2013  02:31:00      -89.820      -50.171       -3.522       41.155       36.707       22.309     1693.738     1347.381      497.695        0.707        0.177      102.882       18.987        0.034      331.591       -0.295      871.572
12/23/2013  02:32:00      -90.892      -67.257       -6.879       40.928       26.574       25.407     1675.110      706.200      645.533        0.793        0.151      113.070       24.400        0.047      331.628       -0.233      871.582
12/23/2013  02:33:00      -70.549      -40.704       -5.151       40.145       27.521       20.445     1611.659      757.399      417.997        0.472        0.139       81.449       21.909        0.072      331.579       -0.315      871.575
12/23/2013  02:34:00     -104.509      -18.352       -7.611       19.352       16.777       14.239      374.499      281.471      202.757        0.609        0.043      106.108        9.524        0.008      331.672       -0.161      871.568
12/23/2013  02:35:00      -77.461      -18.398       -6.842       14.647       17.724       11.849      214.536      314.137      140.393        0.353        0.033       79.616        7.051        0.008      331.736       -0.055      871.566
12/23/2013  02:36:00      -73.739      -20.537      -10.905       20.096       16.210       12.698      403.864      262.762      161.227        0.340        0.041       76.545       10.480        0.019      331.762       -0.015      871.566
12/23/2013  02:37:00      -77.167      -24.077       -5.918       14.260       12.406        9.446      203.336      153.920       89.221        0.351        0.022       80.836        6.622        0.007      331.794        0.036      871.550
12/23/2013  02:38:00      -65.962      -28.827       -3.779       11.116        9.475        7.500      123.558       89.771       56.245        0.273        0.013       71.986        4.997        0.005      331.837        0.110      871.539
12/23/2013  02:39:00      -66.233      -18.221      -10.728       11.554        9.608        8.391      133.502       92.313       70.417        0.257        0.015       68.694        4.700        0.005      331.884        0.187      871.534
12/23/2013  02:40:00      -68.930       -9.026       -9.172        9.836        8.895        8.789       96.739       79.130       77.241        0.258        0.013       69.519        3.513        0.003      331.890        0.197      871.538
12/23/2013  02:41:00      -85.446      -11.010       -8.299        9.124        9.830        7.356       83.240       96.625       54.104        0.386        0.012       86.153        4.684        0.003      331.908        0.226      871.550
12/23/2013  02:42:00      -83.793      -21.091       -9.572        9.865       12.479        8.118       97.314      155.715       65.909        0.394        0.016       86.406        4.551        0.003      331.916        0.237      871.579
12/23/2013  02:43:00      -84.202      -36.160       -6.542        9.336       10.463        7.650       87.160      109.476       58.522        0.435        0.013       91.638        3.409        0.001      331.884        0.188      871.596
12/23/2013  02:44:00      -77.381      -19.896       -9.491       13.990       12.420        8.982      195.722      154.267       80.681        0.345        0.022       79.897        4.817        0.004      331.862        0.151      871.606
12/23/2013  02:45:00      -86.440      -19.522       -7.414       14.894       16.821       13.178      221.818      282.946      173.669        0.429        0.034       88.617        7.998        0.008      331.851        0.132      871.609
12/23/2013  02:46:00     -109.371      -35.530       -8.849        8.946        8.773        7.380       80.032       76.967       54.459        0.676        0.011      114.998        4.223        0.001      331.858        0.145      871.610
12/23/2013  02:47:00     -102.054      -45.313       -4.155       21.155       15.434       12.007      447.543      238.220      144.158        0.666        0.041      111.662        5.572        0.002      331.763       -0.014      871.613
12/23/2013  02:48:00      -82.135      -36.885        4.504       31.531       21.721       17.657      994.225      471.782      311.757        0.495        0.089       90.037       16.752        0.035      331.766       -0.008      871.613
12/23/2013  02:49:00      -91.431      -33.227        2.695       18.745       17.369       11.369      351.388      301.692      129.261        0.513        0.039       97.281        9.607        0.010      331.713       -0.094      871.610
12/23/2013  02:50:00      -91.855      -42.499       -2.046       22.152       15.491       10.911      490.733      239.980      119.042        0.555        0.042      101.210        8.926        0.008      331.586       -0.303      871.605
12/23/2013  02:51:00     -103.530      -34.143        7.678       46.614       19.706       16.538     2172.849      388.343      273.491        0.739        0.142      109.015       19.840        0.033      331.605       -0.271      871.603
12/23/2013  02:52:00      -67.543      -45.166        1.760       42.121       35.232       18.851     1774.211     1241.320      355.358        0.499        0.169       81.253       18.029        0.049      331.599       -0.282      871.600
12/23/2013  02:53:00      -94.063      -67.334        8.554       33.345       35.697       25.490     1111.857     1274.253      649.723        0.824        0.152      115.679       20.227        0.031      331.610       -0.263      871.595
12/23/2013  02:54:00      -98.044      -69.473        7.639       40.422       37.919       22.890     1633.926     1437.857      523.935        0.905        0.180      120.163       19.664        0.027      331.610       -0.264      871.593
12/23/2013  02:55:00     -129.479      -84.600       -1.742       45.347       32.152       26.790     2056.361     1033.748      717.689        1.387        0.190      154.667       22.805        0.022      331.683       -0.143      871.585
12/23/2013  02:56:00      -96.024      -65.476        4.932       48.920       47.130       24.893     2393.131     2221.270      619.676        0.938        0.262      116.223       24.325        0.044      331.704       -0.109      871.578
12/23/2013  02:57:00      -99.568      -58.399       -7.122       51.765       29.037       21.803     2679.564      843.140      475.383        0.869        0.200      115.430       25.692        0.050      331.702       -0.113      871.585
12/23/2013  02:58:00     -107.673      -67.311       -6.559       41.252       27.748       20.941     1701.740      769.948      438.509        0.954        0.146      126.981       23.397        0.034      331.790        0.033      871.586
12/23/2013  02:59:00     -129.083      -61.219      -16.307       19.872       29.965       16.355      394.893      897.876      267.492        1.112        0.078      142.865        8.279        0.003      331.776        0.009      871.594
12/23/2013  03:00:00     -114.105      -46.594        1.842       36.428       26.421       17.703     1327.008      698.083      313.383        0.877        0.117      123.251       21.061        0.029      331.811        0.067      871.591
12/23/2013  03:01:00     -104.230      -36.380        0.467       41.609       22.623       15.297     1731.294      511.805      233.989        0.733        0.124      110.397       18.794        0.029      331.719       -0.085      871.589
12/23/2013  03:02:00     -112.462      -44.722        0.405       24.814       22.703       13.981      615.738      515.442      195.464        0.799        0.066      121.028       12.907        0.011      331.782        0.019      871.585
12/23/2013  03:03:00      -95.001      -39.043       -1.309       34.614       25.895       14.728     1198.159      670.570      216.916        0.632        0.104      102.711       16.018        0.024      331.801        0.051      871.581
12/23/2013  03:04:00     -112.013      -34.899       -2.839       18.671       20.437       10.795      348.600      417.681      116.526        0.733        0.044      117.324        8.284        0.005      331.812        0.069      871.576
12/23/2013  03:05:00     -102.501      -20.640       -7.145       22.771       22.495       12.480      518.499      506.039      155.742        0.608        0.059      104.558       11.379        0.012      331.776        0.010      871.568
12/23/2013  03:06:00      -78.765      -12.421       -2.773       33.214       14.555       11.184     1103.182      211.845      125.085        0.390        0.072       79.739       13.556        0.029      331.719       -0.084      871.565
12/23/2013  03:07:00      -88.968      -26.906        0.602       23.010       15.461       13.048      529.467      239.027      170.256        0.479        0.047       92.947       12.381        0.018      331.718       -0.087      871.559
12/23/2013  03:08:00      -94.309      -33.935       -0.035       18.705       15.281       10.011      349.882      233.512      100.216        0.536        0.034      100.228        9.085        0.008      331.722       -0.079      871.562
12/23/2013  03:09:00      -90.927      -19.841       -4.111       20.437       14.094       10.008      417.661      198.644      100.153        0.470        0.036       93.067        8.051        0.007      331.710       -0.099      871.553
12/23/2013  03:10:00      -96.276      -31.103       -1.527       18.580       16.122       11.133      345.217      259.929      123.942        0.548        0.036      101.176       10.350        0.010      331.722       -0.080      871.553
12/23/2013  03:11:00      -97.286      -25.857       -4.630       26.222       24.448       14.037      687.575      597.696      197.028        0.582        0.074      100.663       14.115        0.020      331.625       -0.239      871.547
12/23/2013  03:12:00     -106.225      -15.133       -9.191       24.473       17.943       12.202      598.940      321.942      148.881        0.633        0.053      107.298       11.070        0.011      331.606       -0.270      871.558
12/23/2013  03:13:00      -74.785       -7.556       -2.168       38.658       22.319       19.554     1494.457      498.132      382.342        0.401        0.119       75.166       19.827        0.070      331.649       -0.199      871.559
12/23/2013  03:14:00      -97.771        2.063        0.752       39.247       23.765       19.371     1540.343      564.759      375.248        0.602        0.124       97.792       20.233        0.043      331.690       -0.132      871.560
12/23/2013  03:15:00      -90.938       -7.337       -2.927       41.706       29.728       19.721     1739.412      883.781      388.927        0.567        0.151       91.234       21.031        0.053      331.681       -0.146      871.567
12/23/2013  03:16:00     -125.618       -5.500      -11.661       21.421       19.990       14.007      458.876      399.598      196.210        0.850        0.053      125.738       11.735        0.009      331.704       -0.109      871.569
12/23/2013  03:17:00     -103.562        7.631       -8.459       27.774       27.412       18.804      771.389      751.409      353.576        0.637        0.094      103.843        9.909        0.009      331.640       -0.215      871.571
12/23/2013  03:18:00     -113.300       22.424       -9.778       31.542       25.903       16.182      994.885      670.973      261.857        0.768        0.096      115.498        1.550        0.000      331.761       -0.017      871.577
12/23/2013  03:19:00     -110.854       13.107       -7.330       43.409       25.153       18.799     1884.315      632.663      353.393        0.769        0.144      111.626       19.921        0.032      331.841        0.118      871.585
12/23/2013  03:20:00     -119.841       22.837       -3.937       40.759       29.504       18.980     1661.300      870.514      360.222        0.890        0.145      121.998       15.223        0.016      331.876        0.173      871.598
12/23/2013  03:21:00     -107.673       31.149      -16.103       32.416       27.670       22.524     1050.801      765.604      507.339        0.757        0.116      112.088       17.533        0.024      331.875        0.172      871.608
12/23/2013  03:22:00     -121.732       39.816      -12.036       38.821       25.695       17.456     1507.070      660.223      304.726        0.951        0.124      128.078       17.124        0.018      331.785        0.025      871.621
12/23/2013  03:23:00     -112.715       25.206       -9.816       26.869       25.401       15.394      721.962      645.220      236.974        0.752        0.080      115.499       11.038        0.009      331.717       -0.087      871.631
12/23/2013  03:24:00      -46.379       12.737       -5.240       22.182       14.224       15.064      492.058      202.331      226.927        0.163        0.046       48.096       13.173        0.075      331.614       -0.257      871.637
12/23/2013  03:25:00      -28.061      -15.365      -15.720       15.943       15.342       12.430      254.178      235.371      154.496        0.096        0.032       31.992        9.405        0.086      331.734       -0.061      871.647
12/23/2013  03:26:00      -37.571       -7.422       -1.085       22.548        7.701       12.137      508.390       59.300      147.307        0.109        0.036       38.297       14.006        0.134      331.607       -0.268      871.666
12/23/2013  03:27:00      -44.508      -26.869       -9.722       17.484       11.031        7.890      305.696      121.685       62.251        0.164        0.024       51.990        2.663        0.003      331.515       -0.421      871.676
12/23/2013  03:28:00      -54.226      -15.188      -10.931       16.061       10.085        7.272      257.953      101.702       52.875        0.185        0.021       56.313        4.869        0.007      331.458       -0.516      871.692
12/23/2013  03:29:00      -77.539       -7.027      -12.957       11.518        8.722        8.086      132.671       76.080       65.379        0.325        0.014       77.857        3.705        0.002      331.447       -0.533      871.707
12/23/2013  03:30:00      -68.804      -10.420       -7.670       25.360       16.091       13.265      643.123      258.905      175.950        0.299        0.054       69.589       12.799        0.034      331.365       -0.666      871.717
12/23/2013  03:31:00      -97.369       -5.598      -12.388       25.150       12.784       11.949      632.547      163.423      142.767        0.530        0.047       97.529       10.792        0.012      331.346       -0.697      871.743
12/23/2013  03:32:00      -73.928      -17.067       -7.428       17.060       14.048        7.895      291.059      197.348       62.338        0.318        0.028       75.872        7.664        0.010      331.359       -0.677      871.765
12/23/2013  03:33:00      -33.033      -17.907      -10.813       15.859       11.932        7.662      251.506      142.375       58.705        0.099        0.023       37.574        5.243        0.019      331.402       -0.605      871.780
12/23/2013  03:34:00      -55.983      -20.927       -9.884       11.459       11.027       10.149      131.312      121.590      103.011        0.201        0.018       59.766        2.078        0.001      331.441       -0.543      871.791
12/23/2013  03:35:00      -66.371       -8.821       -4.196        9.884       10.419        8.132       97.695      108.555       66.127        0.239        0.014       66.954        3.678        0.003      331.599       -0.282      871.795
12/23/2013  03:36:00      -72.815        0.278      -12.738       15.182       13.692       11.982      230.490      187.473      143.573        0.301        0.028       72.815        9.047        0.015      331.470       -0.494      871.787
12/23/2013  03:37:00      -33.828       -0.297       -7.313       17.243       11.879       10.567      297.326      141.113      111.670        0.087        0.028       33.829       10.044        0.088      331.411       -0.592      871.790
12/23/2013  03:38:00      -26.048      -15.784       -2.173       10.225       12.138        7.623      104.557      147.327       58.107        0.062        0.015       30.457        3.745        0.015      331.513       -0.423      871.788
12/23/2013  03:39:00       21.724       32.946       -5.080       14.054       25.400       10.402      197.501      645.173      108.195        0.127        0.048       39.464        8.199        0.043      331.983        0.352      871.792
12/23/2013  03:40:00       35.217       38.343        3.564       16.954       19.110       15.590      287.425      365.204      243.040        0.181        0.045       52.062       13.566        0.068      332.045        0.454      871.810
12/23/2013  03:41:00       29.774       35.207       -0.520       18.513       15.095       12.480      342.718      227.855      155.763        0.143        0.036       46.109        5.585        0.015      331.945        0.288      871.820
12/23/2013  03:42:00       13.168       11.439        2.013       13.312       11.503        6.533      177.199      132.312       42.676        0.033        0.018       17.442        5.189        0.088      331.896        0.206      871.822
12/23/2013  03:43:00        0.944       -9.900        3.947        7.399        7.360        5.734       54.752       54.165       32.883        0.013        0.007        9.945        2.889        0.084      331.862        0.151      871.839
12/23/2013  03:44:00      -10.183      -21.785        5.979       10.670        6.306        7.711      113.844       39.763       59.456        0.041        0.011       24.048        4.796        0.040      331.622       -0.244      871.846
12/23/2013  03:45:00      -24.091      -25.660       -0.993       13.742        6.678        4.524      188.835       44.591       20.464        0.075        0.013       35.196        5.339        0.023      331.590       -0.299      871.853
12/23/2013  03:46:00      -59.666      -29.873       -1.124        7.537        8.034        4.703       56.807       64.538       22.118        0.230        0.007       66.727        2.050        0.001      331.477       -0.485      871.855
12/23/2013  03:47:00      -44.044      -34.291       -1.274       14.251       10.849        7.544      203.091      117.697       56.917        0.175        0.019       55.819        4.732        0.007      331.594       -0.288      871.856
12/23/2013  03:48:00      -10.601      -11.998        1.461       11.551        7.152        6.766      133.414       51.151       45.782        0.024        0.012       16.010        5.061        0.100      331.679       -0.151      871.870
12/23/2013  03:49:00      -31.850      -18.567        2.068       19.452       19.750       12.537      378.364      390.078      157.165        0.114        0.046       36.866       12.543        0.116      331.480       -0.478      871.888
12/23/2013  03:50:00      -69.259      -30.073       -7.216       16.399       17.457       13.945      268.932      304.755      194.458        0.326        0.038       75.506        7.609        0.010      331.404       -0.602      871.899
12/23/2013  03:51:00      -55.883      -13.557       -1.329       31.409       18.432       13.672      986.513      339.723      186.935        0.241        0.076       57.504       10.324        0.032      331.423       -0.572      871.905
12/23/2013  03:52:00       -1.720      -17.461        0.757       16.066       15.328       12.532      258.103      234.962      157.040        0.048        0.033       17.545       11.121        0.402      331.533       -0.390      871.914
12/23/2013  03:53:00       11.883        8.191        4.534        6.187        4.948       10.216       38.281       24.482      104.371        0.020        0.008       14.432        5.490        0.145      331.573       -0.323      871.916
12/23/2013  03:54:00       -2.409        3.346       -4.886        7.525        6.743        5.829       56.630       45.473       33.979        0.009        0.007        4.123        3.668        0.792      331.666       -0.171      871.916
12/23/2013  03:55:00      -26.309      -20.789        0.984       21.568       17.856       15.812      465.196      318.834      250.024        0.108        0.052       33.532       10.738        0.103      331.658       -0.185      871.914
12/23/2013  03:56:00      -11.710      -21.976        1.433       28.802       24.022       16.537      829.554      577.076      273.488        0.115        0.084       24.901       10.100        0.165      331.662       -0.177      871.911
12/23/2013  03:57:00       -3.708       -1.929        5.118       22.339       21.392       15.765      499.024      457.597      248.544        0.062        0.060        4.180       13.512       10.451      331.656       -0.187      871.908
12/23/2013  03:58:00      -26.898      -16.666        2.544       35.291       21.486       19.148     1245.434      461.656      366.654        0.154        0.104       31.643       16.321        0.266      331.665       -0.172      871.899
12/23/2013  03:59:00       -2.040      -10.534       -7.033       15.896       11.474        9.891      252.697      131.650       97.823        0.032        0.024       10.730        7.444        0.481      331.633       -0.226      871.888
12/23/2013  04:00:00       -6.790        2.850        4.984       11.079       12.709       10.702      122.740      161.516      114.531        0.024        0.020        7.364        8.370        1.292      331.678       -0.150      871.871
12/23/2013  04:01:00      -37.638      -17.881        2.059       25.310       12.705       11.579      640.594      161.418      134.070        0.134        0.047       41.669       11.223        0.073      331.610       -0.263      871.867
12/23/2013  04:02:00      -49.704       -9.743       -7.589       19.025       16.525       10.687      361.949      273.071      114.207        0.169        0.037       50.650        9.366        0.034      331.502       -0.444      871.866
12/23/2013  04:03:00      -71.913      -10.047      -10.884       14.583       15.186       11.705      212.655      230.602      137.012        0.299        0.029       72.611        7.017        0.009      331.498       -0.450      871.873
12/23/2013  04:04:00      -44.570       -1.726       -2.216       14.503       15.766       10.955      210.351      248.555      120.021        0.129        0.029       44.604        7.499        0.028      331.402       -0.608      871.880
12/23/2013  04:05:00      -85.611       18.825      -12.236       10.837        7.640        9.202      117.448       58.370       84.676        0.405        0.013       87.656        5.253        0.004      331.424       -0.570      871.889
12/23/2013  04:06:00      -82.244        6.875      -14.832       19.913       12.664        7.206      396.511      160.379       51.921        0.382        0.030       82.531        4.798        0.003      331.510       -0.430      871.902
12/23/2013  04:07:00      -26.064        8.587       -4.347       14.322       14.790        8.580      205.128      218.744       73.617        0.063        0.025       27.442        6.571        0.057      331.622       -0.244      871.911
12/23/2013  04:08:00      -35.897       -6.673       -0.298       11.873       17.008        9.571      140.963      289.282       91.604        0.093        0.026       36.512        5.780        0.025      331.490       -0.463      871.926
12/23/2013  04:09:00      -30.721        1.426       -4.888        8.109       17.261        7.141       65.752      297.957       50.993        0.069        0.021       30.755        5.462        0.032      331.647       -0.202      871.940
12/23/2013  04:10:00      -43.276      -14.613      -11.381        9.662        9.946        8.610       93.350       98.932       74.127        0.124        0.013       45.677        3.643        0.006      331.551       -0.362      871.948
12/23/2013  04:11:00      -59.591      -10.074      -10.940       14.798       11.269       10.332      218.989      126.992      106.752        0.211        0.023       60.437        3.517        0.003      331.266       -0.831      871.965
12/23/2013  04:12:00      -79.113      -18.258      -12.567       15.806       19.365       13.380      249.821      375.003      179.032        0.378        0.040       81.193       10.487        0.017      331.190       -0.955      871.971
12/23/2013  04:13:00      -46.017       -4.271        1.758       17.736       16.941        8.828      314.575      286.992       77.942        0.141        0.034       46.215        6.845        0.022      331.147       -1.026      871.970
12/23/2013  04:14:00      -38.761       -8.948       -8.267       11.583       15.233       10.426      134.169      232.043      108.692        0.106        0.024       39.780        9.686        0.059      331.353       -0.686      871.961
12/23/2013  04:15:00      -36.787       -7.948       -2.595       13.357        9.360        7.799      178.407       87.604       60.824        0.087        0.016       37.636        4.336        0.013      331.434       -0.553      871.954
12/23/2013  04:16:00      -39.996       -8.317      -12.233       14.600       16.644        9.412      213.149      277.017       88.588        0.120        0.029       40.852        8.479        0.043      331.644       -0.208      871.956
12/23/2013  04:17:00      -15.774      -16.706        1.484        9.744        9.595       10.407       94.938       92.069      108.299        0.041        0.015       22.977        6.966        0.092      331.489       -0.463      871.961
12/23/2013  04:18:00      -23.114      -30.244       -5.778       16.413        7.185        8.797      269.373       51.621       77.388        0.094        0.020       38.065        7.756        0.042      331.464       -0.505      871.971
12/23/2013  04:19:00      -52.427      -30.009       -7.327       15.470       12.256        6.775      239.311      150.206       45.906        0.207        0.022       60.408        4.509        0.006      331.342       -0.706      871.984
12/23/2013  04:20:00      -69.530      -14.944      -10.023        9.576        9.914        7.001       91.703       98.296       49.010        0.270        0.012       71.118        3.529        0.002      331.227       -0.893      872.005
12/23/2013  04:21:00      -69.150      -15.723       -8.104       18.855       13.405       10.710      355.495      179.694      114.701        0.287        0.032       70.915        5.815        0.007      331.203       -0.933      872.009
12/23/2013  04:22:00      -86.806      -15.775      -11.529       12.173       14.067        8.924      148.189      197.868       79.645        0.417        0.021       88.228        3.763        0.002      331.165       -0.995      872.022
12/23/2013  04:23:00      -86.179       -5.763      -13.006       12.004        8.625        7.851      144.106       74.397       61.644        0.395        0.014       86.371        2.958        0.001      331.177       -0.976      872.035
12/23/2013  04:24:00      -88.736      -11.673      -12.762       11.987       10.356        8.035      143.688      107.240       64.565        0.424        0.016       89.501        4.590        0.003      331.194       -0.948      872.043
12/23/2013  04:25:00      -81.633       -4.627       -9.989       19.366       16.087       11.865      375.054      258.783      140.788        0.378        0.039       81.764       10.989        0.018      331.159       -1.006      872.046
12/23/2013  04:26:00      -68.888       -0.897      -13.620        7.414        7.578        6.565       54.973       57.427       43.098        0.254        0.008       68.894        2.791        0.002      331.240       -0.873      872.049
12/23/2013  04:27:00      -74.163      -20.367      -11.642        9.299       11.298        6.741       86.469      127.650       45.437        0.315        0.013       76.909        6.157        0.006      331.152       -1.016      872.057
12/23/2013  04:28:00      -94.117      -16.285      -12.923       14.635       15.331       11.913      214.189      235.045      141.921        0.494        0.030       95.515       10.366        0.012      331.195       -0.946      872.053
12/23/2013  04:29:00      -90.150       -3.258      -13.578       21.998       17.289       12.974      483.901      298.921      168.325        0.464        0.048       90.209       13.579        0.023      331.148       -1.025      872.047
12/23/2013  04:30:00      -87.420      -15.831      -15.138       21.599       13.040       12.435      466.534      170.046      154.624        0.446        0.040       88.842        9.642        0.012      331.107       -1.092      872.045
12/23/2013  04:31:00     -115.914      -12.336      -18.287       18.852       13.563       11.298      355.386      183.964      127.652        0.729        0.033      116.569        2.987        0.001      331.137       -1.042      872.041
12/23/2013  04:32:00      -96.105       -1.923      -18.717       16.789       11.297       12.318      281.885      127.620      151.725        0.508        0.028       96.124        7.325        0.006      331.104       -1.095      872.039
12/23/2013  04:33:00      -54.418      -18.561       -7.718       20.731       11.453       11.204      429.763      131.161      125.532        0.203        0.034       57.497        9.968        0.030      331.107       -1.092      872.036
12/23/2013  04:34:00      -65.742       -0.145       -7.403       17.354       13.387       12.335      301.154      179.204      152.161        0.250        0.032       65.742       11.049        0.028      331.170       -0.986      872.035
12/23/2013  04:35:00      -57.215       -8.277      -12.043       13.472       19.776       13.561      181.495      391.099      183.896        0.212        0.038       57.810       11.047        0.037      331.179       -0.972      872.041
12/23/2013  04:36:00      -52.950      -15.772       -9.190       14.466       17.878       12.515      209.266      319.622      156.629        0.191        0.034       55.249        7.932        0.021      331.197       -0.944      872.047
12/23/2013  04:37:00      -69.435      -13.499      -12.971        9.167       11.053       10.273       84.030      122.165      105.535        0.274        0.016       70.735        7.207        0.010      331.209       -0.923      872.046
12/23/2013  04:38:00      -59.656        1.308      -10.872        6.645        6.718        6.583       44.161       45.133       43.334        0.191        0.007       59.670        4.029        0.005      331.480       -0.478      872.043
12/23/2013  04:39:00      -58.067       -4.685      -14.532        8.343       11.429        8.845       69.598      130.627       78.237        0.194        0.014       58.256        6.707        0.013      331.391       -0.623      872.038
12/23/2013  04:40:00      -58.898      -18.331      -13.299        7.879       10.043        8.139       62.078      100.872       66.247        0.211        0.011       61.684        3.497        0.003      331.244       -0.866      872.032
12/23/2013  04:41:00      -42.647      -29.348      -14.636       16.805       18.282       10.135      282.393      334.233      102.710        0.181        0.036       51.769        8.117        0.025      331.417       -0.581      872.013
12/23/2013  04:42:00      -57.584      -39.986      -15.336       14.548       15.883       12.707      211.650      252.258      161.459        0.289        0.031       70.105        6.160        0.008      331.308       -0.762      872.004
12/23/2013  04:43:00      -58.394      -29.295      -18.413       17.384       12.221       14.304      302.191      149.353      204.597        0.263        0.033       65.331        7.810        0.014      331.254       -0.850      871.997
12/23/2013  04:44:00      -82.050      -22.656      -16.364       11.470       14.554        8.606      131.558      211.823       74.056        0.397        0.021       85.121        4.347        0.003      331.055       -1.177      871.998
12/23/2013  04:45:00      -90.424       -8.074      -15.009       28.199       17.666       11.409      795.186      312.102      130.169        0.485        0.062       90.783        9.385        0.011      331.034       -1.213      872.002
12/23/2013  04:46:00      -75.457      -11.964       -8.516       16.150       23.762       12.887      260.829      564.641      166.075        0.345        0.050       76.400       10.800        0.020      331.069       -1.154      872.011
12/23/2013  04:47:00      -70.626       -6.745      -13.183       13.094        9.869       10.141      171.463       97.400      102.834        0.279        0.019       70.948        5.146        0.005      331.126       -1.060      872.015
12/23/2013  04:48:00      -61.452      -16.090      -11.153        9.057       10.994        7.906       82.025      120.877       62.502        0.221        0.013       63.524        3.633        0.003      331.331       -0.723      872.019
12/23/2013  04:49:00      -50.670      -17.419      -16.692        9.215        8.962        7.652       84.914       80.309       58.553        0.169        0.011       53.580        3.543        0.004      331.264       -0.833      872.023
12/23/2013  04:50:00      -35.446      -28.301      -12.922       13.257       12.499        9.980      175.753      156.218       99.595        0.133        0.022       45.358        7.573        0.028      331.337       -0.714      872.019
12/23/2013  04:51:00      -57.301      -11.951      -14.116       12.018        9.246        6.601      144.444       85.490       43.577        0.195        0.014       58.534        4.715        0.006      331.255       -0.850      872.023
12/23/2013  04:52:00      -69.133       -6.869      -12.256       12.143        9.356        8.822      147.444       87.536       77.833        0.264        0.016       69.473        3.807        0.003      331.155       -1.013      872.029
12/23/2013  04:53:00      -69.087      -29.026       -8.196       11.126       11.150        6.869      123.788      124.312       47.184        0.299        0.015       74.936        3.770        0.003      331.156       -1.010      872.035
12/23/2013  04:54:00      -55.324      -18.993       -4.349        8.794       10.783        8.359       77.340      116.278       69.878        0.185        0.013       58.494        5.467        0.009      331.256       -0.846      872.040
12/23/2013  04:55:00      -35.208      -15.797       -3.134       13.721       12.983        8.955      188.273      168.565       80.191        0.097        0.022       38.589        3.804        0.010      331.346       -0.697      872.045
12/23/2013  04:56:00      -37.195      -26.351       -5.721        5.795        7.033        5.405       33.579       49.468       29.216        0.111        0.006       45.583        2.783        0.004      331.402       -0.606      872.038
12/23/2013  04:57:00      -44.787      -29.312       -4.024       12.538       11.153        8.099      157.207      124.381       65.596        0.161        0.017       53.526        7.086        0.018      331.274       -0.815      872.032
12/23/2013  04:58:00      -44.994      -18.217       -4.519        6.918        7.922        6.857       47.852       62.761       47.022        0.127        0.008       48.542        2.511        0.003      331.274       -0.817      872.015
12/23/2013  04:59:00      -48.162      -11.232       -8.413        7.927        7.784        8.385       62.837       60.591       70.313        0.136        0.010       49.455        5.974        0.015      331.282       -0.802      872.015
12/23/2013  05:00:00      -51.645       -4.592       -7.006       10.011       12.980        7.848      100.212      168.475       61.585        0.153        0.017       51.849        5.354        0.011      331.321       -0.739      872.018
12/23/2013  05:01:00      -27.884      -13.370       -0.734        8.595        8.330        5.985       73.873       69.381       35.817        0.057        0.009       30.924        5.302        0.029      331.335       -0.717      872.035
12/23/2013  05:02:00      -21.399       -9.993       -5.095        9.964        6.453        4.584       99.288       41.645       21.010        0.037        0.008       23.617        3.754        0.025      331.403       -0.604      872.049
12/23/2013  05:03:00      -33.659      -10.429       -0.791        6.274        6.979        4.882       39.359       48.704       23.837        0.068        0.006       35.238        3.184        0.008      331.399       -0.612      872.066
12/23/2013  05:04:00      -34.681       -3.625       -3.963        6.819        5.480        5.702       46.497       30.030       32.513        0.067        0.005       34.870        3.790        0.012      331.371       -0.658      872.082
12/23/2013  05:05:00      -37.818      -10.711       -5.790       10.182       10.172        6.611      103.666      103.461       43.701        0.091        0.013       39.305        4.922        0.016      331.333       -0.719      872.095
12/23/2013  05:06:00      -57.666       -5.114       -6.694       11.426        8.299        6.356      130.544       68.878       40.395        0.182        0.012       57.892        4.204        0.005      331.251       -0.854      872.108
12/23/2013  05:07:00      -52.074      -17.155       -5.534       12.019       13.576        8.217      144.467      184.315       67.518        0.172        0.020       54.827        6.655        0.015      331.191       -0.954      872.116
12/23/2013  05:08:00      -57.423       -4.503       -1.748       22.126       11.011        9.741      489.581      121.238       94.882        0.201        0.035       57.600        9.628        0.028      331.158       -1.008      872.115
12/23/2013  05:09:00      -38.119      -19.549       -2.340       16.646       13.338        9.870      277.091      177.906       97.420        0.120        0.028       42.839        6.710        0.025      331.153       -1.016      872.109
12/23/2013  05:10:00      -66.920      -32.216       -5.198        8.383        8.455        5.548       70.269       71.486       30.783        0.286        0.009       74.271        4.496        0.004      331.202       -0.936      872.106
12/23/2013  05:11:00      -69.219      -16.678       -5.891        8.331        9.932        6.372       69.412       98.640       40.608        0.266        0.010       71.200        5.241        0.005      331.208       -0.925      872.092
12/23/2013  05:12:00      -65.716      -12.061       -4.893       21.671       13.054       10.078      469.618      170.395      101.566        0.261        0.037       66.813        8.395        0.016      331.151       -1.019      872.081
12/23/2013  05:13:00     -100.448       -2.527       -6.412       25.404       11.678       14.525      645.363      136.385      210.988        0.556        0.050      100.480       15.230        0.023      331.094       -1.113      872.082
12/23/2013  05:14:00      -73.418      -12.856        1.148       30.051       17.919       13.879      903.048      321.100      192.629        0.349        0.071       74.535       14.547        0.038      330.993       -1.278      872.079
12/23/2013  05:15:00      -79.349      -22.539       -1.509       25.438       18.872       14.275      647.070      356.136      203.769        0.401        0.060       82.488       13.795        0.028      330.951       -1.347      872.082
12/23/2013  05:16:00      -86.450       -4.546       -5.984       19.691       28.539       10.918      387.723      814.461      119.203        0.443        0.066       86.569       10.451        0.015      331.046       -1.192      872.078
12/23/2013  05:17:00      -80.854       -8.253       -4.458       30.487       14.006       17.499      929.469      196.155      306.226        0.403        0.072       81.274       18.352        0.051      330.920       -1.398      872.089
12/23/2013  05:18:00      -76.130      -37.880       -6.011       25.251       18.940       14.101      637.603      358.723      198.836        0.423        0.060       85.033       10.771        0.016      330.840       -1.530      872.092
12/23/2013  05:19:00      -87.189      -17.867       -4.901       27.776       25.782       14.106      771.492      664.720      198.977        0.479        0.082       89.000       13.732        0.024      330.892       -1.444      872.100
12/23/2013  05:20:00     -102.466       -8.167      -11.172       29.626       18.831       16.476      877.673      354.616      271.443        0.610        0.075      102.791       17.976        0.031      330.895       -1.439      872.099
12/23/2013  05:21:00      -82.791      -18.348       -4.587       35.332       24.658       21.113     1248.365      608.041      445.740        0.476        0.115       84.799       23.216        0.075      330.858       -1.500      872.101
12/23/2013  05:22:00     -101.389       -3.130       -6.917       33.113       14.244       12.774     1096.454      202.899      163.184        0.590        0.073      101.437       15.919        0.025      330.935       -1.374      872.107
12/23/2013  05:23:00     -125.560       11.202      -13.878       14.334       14.229       11.071      205.472      202.465      122.557        0.831        0.027      126.059        7.705        0.004      330.978       -1.303      872.111
12/23/2013  05:24:00     -119.078       11.619      -14.334       23.018       21.113       14.360      529.807      445.746      206.213        0.785        0.059      119.643       10.118        0.007      330.977       -1.304      872.118
12/23/2013  05:25:00      -63.771      -10.856       -6.037       31.444       25.314       15.619      988.699      640.822      243.962        0.305        0.094       64.689       15.884        0.060      330.900       -1.429      872.130
12/23/2013  05:26:00      -93.383       10.078      -12.388       26.779       22.475       13.698      717.140      505.144      187.648        0.519        0.070       93.925        8.971        0.009      330.949       -1.352      872.132
12/23/2013  05:27:00      -87.853      -10.592       -8.099       29.387       22.840       15.137      863.575      521.679      229.139        0.475        0.081       88.489       13.475        0.023      330.916       -1.405      872.130
12/23/2013  05:28:00      -68.829        1.157       -0.837       49.216       22.993       19.332     2422.192      528.680      373.733        0.403        0.166       68.838       20.229        0.086      330.837       -1.535      872.125
12/23/2013  05:29:00      -50.523      -17.292        0.565       24.416       24.687       17.688      596.152      609.433      312.868        0.218        0.076       53.401       13.118        0.060      330.877       -1.468      872.120
12/23/2013  05:30:00      -85.780      -25.892      -17.480       23.350       27.067       14.292      545.204      732.604      204.253        0.491        0.074       89.603        3.692        0.002      330.924       -1.392      872.109
12/23/2013  05:31:00      -93.142      -16.528       -7.626       32.394       27.483       19.473     1049.359      755.289      379.207        0.559        0.109       94.597       19.182        0.041      330.849       -1.514      872.112
12/23/2013  05:32:00      -91.185       -1.791       -6.779       32.329       22.795       19.446     1045.147      519.609      378.151        0.515        0.097       91.203       18.739        0.042      330.821       -1.561      872.106
12/23/2013  05:33:00      -93.389      -31.934        1.460       30.272       27.727       16.045      916.367      768.760      257.456        0.584        0.097       98.698        8.747        0.008      330.873       -1.476      872.105
12/23/2013  05:34:00     -105.337      -35.900       -7.210       22.831       16.638       11.906      521.233      276.817      141.745        0.669        0.047      111.287        7.597        0.005      330.844       -1.524      872.097
12/23/2013  05:35:00      -98.456      -34.053       -9.557       22.225       24.260       17.179      493.941      588.561      295.126        0.616        0.069      104.179        8.117        0.006      330.843       -1.524      872.095
12/23/2013  05:36:00      -99.617      -14.776       -3.370       27.457       35.841       17.769      753.875     1284.587      315.720        0.625        0.118      100.707       16.851        0.028      330.829       -1.549      872.088
12/23/2013  05:37:00      -75.079       -6.159       -5.634       51.706       27.168       18.008     2673.550      738.101      324.274        0.472        0.187       75.332       21.686        0.083      330.833       -1.541      872.078
12/23/2013  05:38:00      -54.163       -7.299       -1.908       30.743       33.277       18.740      945.147     1107.378      351.189        0.270        0.120       54.653       14.793        0.073      330.811       -1.576      872.070
12/23/2013  05:39:00      -57.536      -12.568        1.474       21.013       32.536       17.182      441.550     1058.619      295.211        0.263        0.090       58.893       13.204        0.050      330.847       -1.519      872.061
12/23/2013  05:40:00      -67.212      -24.501       -6.639       20.082       25.011       12.996      403.278      625.543      168.887        0.318        0.060       71.538       10.338        0.021      330.815       -1.573      872.051
12/23/2013  05:41:00      -97.798      -34.328      -10.666       20.455       20.670       10.664      418.391      427.245      113.712        0.591        0.048      103.648        6.729        0.004      330.836       -1.536      872.053
12/23/2013  05:42:00      -94.730      -45.901       -4.664       22.616       26.835       16.701      511.470      720.097      278.917        0.631        0.076      105.265       12.310        0.014      330.808       -1.583      872.069
12/23/2013  05:43:00     -100.152      -32.156       -1.557       29.527       37.715       18.988      871.837     1422.390      360.544        0.686        0.133      105.187       15.070        0.021      330.803       -1.591      872.096
12/23/2013  05:44:00     -104.024      -24.076       -3.457       32.441       37.597       18.407     1052.397     1413.557      338.817        0.711        0.140      106.773       18.172        0.029      330.794       -1.605      872.118
12/23/2013  05:45:00      -71.002      -13.482        2.583       51.734       20.817       24.035     2676.444      433.361      577.695        0.446        0.184       72.270       29.110        0.162      330.811       -1.577      872.134
12/23/2013  05:46:00      -54.522      -11.840       -7.611       44.936       28.865       19.716     2019.284      833.206      388.716        0.321        0.162       55.793       22.273        0.159      330.816       -1.569      872.138
12/23/2013  05:47:00     -110.286      -14.468      -14.633       38.534       28.048       21.086     1484.868      786.679      444.619        0.765        0.136      111.231       13.426        0.015      330.839       -1.532      872.142
12/23/2013  05:48:00     -123.540      -21.722      -12.886       24.743       29.444       15.006      612.198      866.940      225.170        0.880        0.085      125.435        9.158        0.005      330.872       -1.477      872.144
12/23/2013  05:49:00      -88.324        2.031       -8.913       56.351       37.633       23.054     3175.461     1416.252      531.469        0.650        0.256       88.347       25.940        0.086      330.893       -1.441      872.163
12/23/2013  05:50:00     -106.462        5.684      -13.963       40.978       30.067       21.613     1679.208      904.047      467.141        0.731        0.153      106.613       16.942        0.025      331.076       -1.142      872.180
12/23/2013  05:51:00     -106.569       -8.303       -8.217       38.590       28.850       23.743     1489.200      832.318      563.714        0.719        0.144      106.892       17.038        0.025      330.988       -1.286      872.192
12/23/2013  05:52:00     -155.837       -4.709      -23.913       42.052       34.309       24.669     1768.341     1177.136      608.549        1.422        0.178      155.908       23.858        0.023      330.954       -1.343      872.193
12/23/2013  05:53:00     -125.791       -6.096       -8.017       46.334       27.245       23.917     2146.798      742.302      572.016        0.969        0.173      125.939       24.989        0.039      330.865       -1.488      872.199
12/23/2013  05:54:00     -143.334       15.026      -21.477       27.722       36.977       21.675      768.537     1367.279      469.811        1.192        0.130      144.119       15.450        0.011      330.810       -1.579      872.210
12/23/2013  05:55:00     -155.834       32.762      -12.823       31.936       31.936       21.751     1019.928     1019.892      473.096        1.402        0.126      159.240       16.543        0.011      330.876       -1.471      872.229
12/23/2013  05:56:00     -168.068       41.155      -16.288       22.792       28.105       15.718      519.454      789.869      247.059        1.588        0.078      173.033        4.178        0.001      330.905       -1.421      872.244
12/23/2013  05:57:00     -149.972        8.666      -14.531       30.141       32.461       18.986      908.497     1053.692      360.463        1.255        0.116      150.222       14.541        0.009      330.844       -1.523      872.256
12/23/2013  05:58:00     -113.050       -8.179      -14.731       33.797       33.158       20.991     1142.207     1099.434      440.608        0.787        0.134      113.346       16.157        0.020      330.851       -1.513      872.260
12/23/2013  05:59:00     -104.326      -23.286       -8.054       34.630       28.401       18.503     1199.235      806.622      342.371        0.692        0.117      106.894       15.128        0.020      330.906       -1.420      872.254
12/23/2013  06:00:00     -116.320      -33.937       -7.355       33.374       28.523       20.704     1113.808      813.542      428.640        0.855        0.118      121.169       17.683        0.021      330.843       -1.525      872.252
12/23/2013  06:01:00     -110.097      -16.281      -10.479       28.460       25.000       16.304      809.981      624.982      265.805        0.710        0.085      111.294       13.464        0.015      330.841       -1.529      872.250
12/23/2013  06:02:00      -92.122      -21.978       -3.633       37.798       28.660       20.540     1428.679      821.396      421.875        0.583        0.134       94.707       20.634        0.047      330.874       -1.472      872.237
12/23/2013  06:03:00     -113.272      -14.218       -6.899       20.919       18.345       15.043      437.606      336.522      226.285        0.704        0.050      114.161       11.645        0.010      330.950       -1.348      872.223
12/23/2013  06:04:00     -106.115      -27.593      -17.748       14.795       12.204       10.761      218.903      148.944      115.803        0.641        0.024      109.644        6.165        0.003      331.016       -1.242      872.220
12/23/2013  06:05:00     -106.136      -29.761      -15.489       14.983       14.441       10.324      224.497      208.546      106.591        0.646        0.027      110.229        3.025        0.001      331.035       -1.211      872.207
12/23/2013  06:06:00     -113.462      -32.229      -13.167       13.686       11.244       10.457      187.304      126.432      109.351        0.725        0.021      117.950        6.805        0.003      331.052       -1.183      872.197
12/23/2013  06:07:00     -111.816      -58.439       -5.522       25.858       27.492       16.411      668.642      755.837      269.313        0.882        0.085      126.166       15.566        0.015      331.068       -1.154      872.196
12/23/2013  06:08:00     -130.254      -66.614      -12.753       19.837       21.517       13.380      393.504      462.999      179.022        1.130        0.052      146.300        6.926        0.002      330.976       -1.308      872.210
12/23/2013  06:09:00     -135.727      -52.766       -5.794       47.255       28.490       17.876     2233.016      811.708      319.554        1.230        0.168      145.623       20.909        0.021      331.039       -1.202      872.224
12/23/2013  06:10:00     -140.576      -45.875       -9.897       22.598       30.185       16.276      510.653      911.152      264.912        1.183        0.084      147.872       12.571        0.007      330.971       -1.314      872.229
12/23/2013  06:11:00      -65.763      -18.604        3.261       34.282       21.053       14.570     1175.275      443.218      212.299        0.326        0.092       68.344       10.270        0.023      330.887       -1.452      872.225
12/23/2013  06:12:00      -69.535      -31.250        5.412       31.449       28.000       17.147      989.048      784.011      294.007        0.395        0.103       76.234       16.366        0.046      330.870       -1.479      872.210
12/23/2013  06:13:00      -70.985      -38.042        3.803       35.349       19.548       14.213     1249.581      382.139      202.009        0.417        0.092       80.537        9.842        0.015      331.031       -1.218      872.193
12/23/2013  06:14:00      -87.628      -46.503        4.252       37.885       19.163       17.126     1435.303      367.202      293.289        0.598        0.105       99.202       19.474        0.039      331.045       -1.194      872.182
12/23/2013  06:15:00     -115.000      -39.623      -12.497       19.065       24.341       12.344      363.480      592.501      152.372        0.803        0.055      121.635       11.128        0.008      330.943       -1.361      872.183
12/23/2013  06:16:00     -117.946      -43.674       -7.689       18.024       18.676       11.231      324.854      348.780      126.136        0.834        0.040      125.773        9.270        0.005      330.963       -1.329      872.197
12/23/2013  06:17:00      -99.259      -37.710       -5.405       18.329       14.923       11.379      335.957      222.704      129.491        0.600        0.034      106.181        9.072        0.007      330.932       -1.377      872.208
12/23/2013  06:18:00      -96.363      -50.371       -3.578       21.493       20.296       13.181      461.940      411.947      173.748        0.644        0.052      108.734       12.137        0.012      330.962       -1.329      872.211
12/23/2013  06:19:00      -88.188      -52.352       -4.429       17.643       16.229       12.084      311.276      263.391      146.032        0.563        0.036      102.557       10.251        0.010      330.958       -1.336      872.205
12/23/2013  06:20:00      -65.064      -44.515        2.337       27.639       18.275       15.804      763.921      333.991      249.761        0.378        0.067       78.835       15.926        0.041      330.945       -1.356      872.185
12/23/2013  06:21:00      -75.975      -42.923      -10.435       14.376       18.690       11.331      206.677      349.335      128.380        0.420        0.034       87.262        6.157        0.005      330.970       -1.315      872.170
12/23/2013  06:22:00      -82.606      -30.759       -9.227       18.456       23.411       10.753      340.613      548.092      115.621        0.443        0.050       88.147        9.171        0.011      330.960       -1.332      872.160
12/23/2013  06:23:00     -111.976       -2.361      -12.354       23.266       15.251       17.454      541.321      232.608      304.657        0.689        0.054      112.000       15.118        0.018      331.099       -1.105      872.152
12/23/2013  06:24:00     -126.754       -0.001      -17.221       12.528       12.255        8.376      156.939      150.185       70.154        0.837        0.019      126.754        5.921        0.002      331.070       -1.152      872.154
12/23/2013  06:25:00     -126.917        3.740      -15.602       13.796       17.973       11.837      190.325      323.023      140.125        0.851        0.033      126.972        6.879        0.003      331.059       -1.170      872.163
12/23/2013  06:26:00     -151.244       30.220       -8.685       14.880       17.751       11.004      221.401      315.106      121.092        1.226        0.033      154.233        5.050        0.001      331.182       -0.968      872.172
12/23/2013  06:27:00     -144.959       42.225       -7.790       31.383       21.037       14.921      984.911      442.536      222.644        1.225        0.083      150.984       10.067        0.004      331.187       -0.959      872.187
12/23/2013  06:28:00     -124.296       33.189       -8.416       31.698       23.497       18.314     1004.740      552.108      335.415        0.926        0.095      128.651       12.539        0.009      331.158       -1.009      872.207
12/23/2013  06:29:00     -108.625       37.361       -6.482       32.765       21.879       17.103     1073.556      478.688      292.497        0.754        0.092      114.870        4.311        0.001      331.120       -1.071      872.226
12/23/2013  06:30:00      -91.146       31.276       -3.082       32.914       25.090       17.230     1083.356      629.484      296.874        0.565        0.100       96.363       12.013        0.016      331.119       -1.071      872.250
12/23/2013  06:31:00     -102.115       42.990       -6.331       39.923       27.523       23.773     1593.818      757.521      565.177        0.762        0.146      110.795       21.058        0.036      331.196       -0.944      872.277
12/23/2013  06:32:00     -140.353       38.827      -15.546       27.316       20.567       16.241      746.146      422.992      263.775        1.144        0.072      145.625        9.446        0.004      331.370       -0.659      872.290
12/23/2013  06:33:00     -118.148       48.906      -22.492       32.914       23.516       17.631     1083.359      553.002      310.850        0.940        0.097      127.870       14.700        0.013      331.253       -0.851      872.300
12/23/2013  06:34:00     -135.323       49.697      -19.224       29.823       20.103       18.668      889.415      404.119      348.501        1.140        0.082      144.160       16.618        0.013      331.205       -0.931      872.299
12/23/2013  06:35:00     -129.528       32.480       -6.543       28.649       21.088       15.732      820.738      444.715      247.503        0.969        0.076      133.538       11.027        0.007      331.151       -1.020      872.296
12/23/2013  06:36:00     -120.136       13.201      -16.147       22.986       29.162       16.201      528.339      850.429      262.475        0.825        0.082      120.859       11.479        0.009      331.167       -0.992      872.294
12/23/2013  06:37:00     -113.789        3.048      -13.077       20.582       18.423       13.071      423.612      339.399      170.845        0.703        0.047      113.830        6.002        0.003      331.150       -1.021      872.293
12/23/2013  06:38:00      -79.304        2.545        0.092       36.362       24.934       22.893     1322.173      621.684      524.110        0.438        0.123       79.345       23.340        0.087      331.124       -1.061      872.294
12/23/2013  06:39:00      -77.195      -14.364       -6.650       38.767       30.876       19.065     1502.906      953.317      363.458        0.451        0.141       78.520       21.404        0.074      331.138       -1.040      872.301
12/23/2013  06:40:00      -47.980      -24.876        0.635       26.740       18.232       15.113      715.005      332.404      228.394        0.210        0.064       54.046       14.236        0.069      331.166       -0.994      872.305
12/23/2013  06:41:00      -16.459      -16.615        3.387       29.598       16.031       13.464      876.026      256.982      181.271        0.094        0.066       23.388       14.428        0.381      331.135       -1.046      872.316
12/23/2013  06:42:00      -59.250      -26.030       -0.698       10.558       11.599        7.155      111.466      134.541       51.199        0.224        0.015       64.716        3.522        0.003      331.217       -0.909      872.323
12/23/2013  06:43:00      -30.566      -16.925        0.530       22.123       20.573        7.347      489.417      423.255       53.980        0.109        0.048       34.939        8.609        0.061      331.225       -0.896      872.343
12/23/2013  06:44:00       -5.101      -12.342        1.862       25.867       14.848       12.750      669.121      220.459      162.569        0.062        0.053       13.355       13.018        0.950      331.249       -0.857      872.354
12/23/2013  06:45:00       -4.782       -2.268        3.345       13.567        8.545        7.845      184.076       73.020       61.542        0.018        0.016        5.293        7.277        1.890      331.221       -0.902      872.363
12/23/2013  06:46:00      -33.676      -26.919       -8.800       11.987        8.211        6.627      143.697       67.425       43.918        0.110        0.013       43.113        3.852        0.008      331.385       -0.634      872.366
12/23/2013  06:47:00      -46.036      -24.591       -5.410        9.754        8.477        5.130       95.143       71.867       26.312        0.147        0.010       52.192        3.562        0.005      331.391       -0.626      872.368
12/23/2013  06:48:00      -31.467      -24.024       -2.766       16.634        7.192        5.308      276.680       51.724       28.172        0.097        0.018       39.589        4.372        0.012      331.262       -0.835      872.372
12/23/2013  06:49:00       12.065       -0.937        7.185        5.401       10.152        7.203       29.167      103.073       51.888        0.019        0.009       12.101        6.909        0.326      331.241       -0.870      872.381
12/23/2013  06:50:00       22.106       22.438       13.443       16.495       15.068       11.888      272.083      227.036      141.321        0.091        0.032       31.498       10.105        0.103      331.050       -1.186      872.397
12/23/2013  06:51:00       42.844       37.183       -8.590       15.863       14.132       10.396      251.626      199.700      108.076        0.193        0.028       56.729        9.689        0.029      330.972       -1.313      872.404
12/23/2013  06:52:00       14.461        5.247        2.170        7.454        6.957        4.741       55.557       48.398       22.473        0.018        0.006       15.384        3.279        0.045      331.082       -1.133      872.413
12/23/2013  06:53:00        2.146       -6.600        0.867        5.325        6.835        3.797       28.352       46.720       14.419        0.007        0.004        6.940        2.553        0.135      331.170       -0.987      872.431
12/23/2013  06:54:00       24.970       26.460       29.695       23.082       23.216       17.809      532.773      538.986      317.163        0.180        0.069       36.381       15.660        0.185      331.113       -1.081      872.436
12/23/2013  06:55:00       18.544       39.473       51.627       18.486       19.798        8.836      341.717      391.960       78.068        0.269        0.041       43.612        9.893        0.051      331.078       -1.140      872.433
12/23/2013  06:56:00        5.064       -1.187       25.839       16.215       25.103       18.010      262.924      630.153      324.376        0.096        0.061        5.201       17.918       11.866      331.102       -1.099      872.439
12/23/2013  06:57:00       -1.476       29.125       43.794       10.167       19.434       10.753      103.371      377.679      115.625        0.168        0.030       29.162       10.724        0.135      331.013       -1.246      872.434
12/23/2013  06:58:00       -3.185       31.961       48.028       13.402       18.816       11.334      179.615      354.046      128.450        0.200        0.033       32.119        9.963        0.096      330.949       -1.350      872.426
12/23/2013  06:59:00        4.870       36.240       47.766       17.996       19.028        8.550      323.867      362.063       73.104        0.219        0.038       36.565        8.154        0.050      330.980       -1.298      872.415
12/23/2013  07:00:00        5.318       40.570       47.378       12.114       15.871        6.807      146.757      251.903       46.342        0.218        0.022       40.917        8.115        0.039      330.953       -1.343      872.417
12/23/2013  07:01:00        1.900       26.432       36.930       18.318       15.594       14.491      335.547      243.176      209.983        0.143        0.039       26.501       13.672        0.266      330.949       -1.349      872.416
12/23/2013  07:02:00       -1.554       23.371       40.792        9.999       20.302       11.364       99.979      412.191      129.138        0.143        0.032       23.423       12.107        0.267      331.010       -1.250      872.424
12/23/2013  07:03:00       -0.035      -10.674        6.222        9.517       18.555       10.332       90.576      344.283      106.750        0.035        0.027       10.674        4.070        0.145      331.061       -1.168      872.443
12/23/2013  07:04:00      -16.984       -2.991       -1.246       12.834        8.939        7.695      164.724       79.912       59.205        0.030        0.015       17.245        4.975        0.083      330.963       -1.328      872.465
12/23/2013  07:05:00       11.082       30.526        2.321       10.500       12.099        6.006      110.251      146.383       36.076        0.068        0.015       32.475        5.120        0.025      330.964       -1.325      872.486
12/23/2013  07:06:00       21.262       26.810        2.894       10.229        8.125        8.683      104.629       66.017       75.395        0.071        0.012       34.217        3.742        0.012      330.979       -1.299      872.499
12/23/2013  07:07:00       24.621       23.475        4.307       13.118       11.591        8.328      172.069      134.348       69.355        0.078        0.019       34.019        6.159        0.033      330.992       -1.278      872.509
12/23/2013  07:08:00       15.125       26.414        2.914       21.385       16.080       10.961      457.307      258.561      120.146        0.089        0.042       30.438       12.690        0.174      331.001       -1.265      872.523
12/23/2013  07:09:00        8.191       45.977       -4.844        9.240       12.479        6.437       85.375      155.725       41.434        0.124        0.014       46.701        5.760        0.015      330.958       -1.334      872.528
12/23/2013  07:10:00       19.904       57.798       -9.043        7.268        6.925        3.844       52.827       47.958       14.779        0.197        0.006       61.129        3.884        0.004      330.975       -1.307      872.541
12/23/2013  07:11:00       30.926       50.898       -7.001       14.517       22.401       12.183      210.735      501.793      148.417        0.223        0.043       59.556       14.590        0.060      330.883       -1.457      872.542
12/23/2013  07:12:00       25.236       29.806        5.297       18.241       18.621       16.439      332.738      346.759      270.244        0.125        0.047       39.055       10.743        0.076      330.843       -1.525      872.542
12/23/2013  07:13:00       46.218       51.202       -4.850       27.043       17.631       14.939      731.309      310.856      223.161        0.302        0.063       68.976       13.726        0.040      330.825       -1.554      872.547
12/23/2013  07:14:00       52.472       37.168       -5.076       17.608       17.170       10.047      310.044      294.800      100.951        0.243        0.035       64.302        7.629        0.014      330.790       -1.611      872.557
12/23/2013  07:15:00       19.300       25.193        1.852       11.825       12.017       12.699      139.842      144.417      161.277        0.073        0.022       31.736        8.143        0.066      330.769       -1.645      872.584
12/23/2013  07:16:00       27.287       20.286        3.732       14.399       13.825       10.599      207.322      191.121      112.333        0.084        0.026       34.001        8.033        0.056      330.816       -1.569      872.604
12/23/2013  07:17:00       36.846       18.545        1.530       18.785       11.228        8.493      352.871      126.063       72.135        0.113        0.028       41.250        6.951        0.028      330.840       -1.531      872.627
12/23/2013  07:18:00       66.058       36.878        1.771       16.656       12.407        9.902      277.417      153.932       98.055        0.313        0.026       75.654        7.980        0.011      330.904       -1.424      872.642
12/23/2013  07:19:00       73.226       31.113        1.736       21.988       15.596        9.993      483.494      243.222       99.860        0.358        0.041       79.562        6.335        0.006      330.918       -1.400      872.655
12/23/2013  07:20:00       48.093       47.201        4.072       35.529       18.746       10.454     1262.333      351.425      109.296        0.314        0.086       67.386        6.095        0.008      330.924       -1.392      872.670
12/23/2013  07:21:00       17.852       31.401        2.289       14.105       19.101       11.257      198.963      364.840      126.709        0.100        0.035       36.121       10.723        0.088      330.883       -1.459      872.689
12/23/2013  07:22:00       30.017       52.154       -8.032        9.246       10.145        7.898       85.496      102.929       62.371        0.197        0.013       60.175        4.248        0.005      330.919       -1.400      872.700
12/23/2013  07:23:00       26.619       36.891        1.284       17.846       16.366       13.118      318.483      267.842      172.084        0.141        0.038       45.492        9.923        0.048      330.884       -1.458      872.711
12/23/2013  07:24:00       21.875       30.110       -0.734       14.574       15.888        8.299      212.406      252.432       68.869        0.096        0.027       37.217        7.571        0.041      330.910       -1.414      872.714
12/23/2013  07:25:00       36.951       26.725       -0.144       16.004       17.331       13.700      256.120      300.370      187.681        0.141        0.037       45.603       12.296        0.073      330.964       -1.326      872.726
12/23/2013  07:26:00       32.446       29.731        0.393       15.140       13.658       12.236      229.216      186.551      149.709        0.125        0.028       44.007        9.476        0.046      330.988       -1.286      872.729
12/23/2013  07:27:00       35.688       33.138        5.342       16.485       14.641       15.842      271.750      214.367      250.954        0.157        0.037       48.701       13.794        0.080      331.021       -1.231      872.730
12/23/2013  07:28:00       36.966       32.505       -1.584       18.066       14.563       12.300      326.393      212.089      151.289        0.156        0.034       49.225       11.372        0.053      331.049       -1.188      872.724
12/23/2013  07:29:00       31.728       31.134       -0.159       15.229       13.288       12.645      231.937      176.583      159.892        0.127        0.028       44.452       10.349        0.054      331.017       -1.240      872.719
12/23/2013  07:30:00       32.837       24.326        2.156       12.214       15.367       12.378      149.171      236.149      153.226        0.111        0.027       40.866        9.478        0.054      331.017       -1.239      872.711
12/23/2013  07:31:00       35.403       17.534        6.676       14.946       12.124        8.537      223.374      146.991       72.877        0.102        0.022       39.507        6.837        0.030      331.007       -1.254      872.705
12/23/2013  07:32:00       40.444       25.615       -0.562       13.353       11.856        8.981      178.301      140.568       80.655        0.135        0.020       47.873        5.202        0.012      331.042       -1.199      872.693
12/23/2013  07:33:00       49.702       32.845        0.681       14.883       13.267        8.267      221.501      176.003       68.343        0.201        0.023       59.574        7.900        0.018      331.065       -1.160      872.681
12/23/2013  07:34:00       59.662       31.218        2.871        8.934        9.588        7.840       79.816       91.921       61.467        0.239        0.012       67.336        5.020        0.006      331.067       -1.157      872.682
12/23/2013  07:35:00       68.374       44.060        2.372       12.247       11.285       10.653      149.985      127.353      113.497        0.351        0.020       81.340        2.017        0.001      331.051       -1.184      872.675
12/23/2013  07:36:00       58.258       49.886       14.379       15.362       11.267       12.266      236.006      126.943      150.459        0.330        0.026       76.698        8.374        0.012      331.026       -1.226      872.678
12/23/2013  07:37:00       58.383       49.189        5.355       12.423        8.645        9.070      154.325       74.733       82.261        0.308        0.016       76.343        5.953        0.006      331.042       -1.200      872.693
12/23/2013  07:38:00       52.172       28.861       10.930        9.437       12.928        9.874       89.062      167.143       97.499        0.201        0.018       59.623        3.840        0.004      331.031       -1.215      872.709
12/23/2013  07:39:00       63.620       41.758       14.906       11.117        9.966       10.736      123.580       99.331      115.256        0.318        0.017       76.100        6.874        0.008      331.046       -1.190      872.718
12/23/2013  07:40:00       55.926       35.268       16.128       17.943        9.010       14.157      321.952       81.188      200.416        0.262        0.030       66.118        8.928        0.018      331.061       -1.166      872.737
12/23/2013  07:41:00       52.044       31.166        6.089        7.403       10.104        6.825       54.809      102.098       46.580        0.196        0.010       60.663        4.609        0.006      331.042       -1.196      872.768
12/23/2013  07:42:00       37.725       24.217       11.974       14.302       14.753       15.371      204.549      217.658      236.270        0.141        0.033       44.829        7.190        0.026      331.116       -1.078      872.784
12/23/2013  07:43:00       26.307       14.745        9.679        9.218       11.407        8.996       84.963      130.120       80.921        0.065        0.015       30.157        6.505        0.047      331.162       -1.001      872.805
12/23/2013  07:44:00       31.632       26.392        5.683       10.512        9.236       11.793      110.494       85.295      139.070        0.103        0.017       41.196        6.908        0.028      331.135       -1.047      872.824
12/23/2013  07:45:00       29.739       21.283       11.520       12.396       11.977       13.901      153.672      143.454      193.228        0.098        0.025       36.570        4.281        0.014      331.157       -1.011      872.828
12/23/2013  07:46:00       23.691       18.871        5.892        8.411        5.977        9.449       70.742       35.721       89.284        0.057        0.010       30.288        2.454        0.007      331.183       -0.966      872.838
12/23/2013  07:47:00       32.155       20.732        4.345        8.089        6.825        9.815       65.435       46.576       96.328        0.085        0.010       38.259        3.779        0.010      331.158       -1.008      872.839
12/23/2013  07:48:00       43.759       22.693        4.944       11.747        8.527       11.202      137.996       72.709      125.486        0.140        0.017       49.294        8.580        0.030      331.164       -1.000      872.826
12/23/2013  07:49:00       37.190       21.190       19.306       17.777       12.597       12.811      316.005      158.681      164.116        0.142        0.032       42.803       11.742        0.075      331.277       -0.812      872.829
12/23/2013  07:50:00       38.475       18.772       14.786       20.372       14.098       16.453      415.026      198.747      270.700        0.147        0.044       42.810       11.745        0.075      331.293       -0.785      872.815
12/23/2013  07:51:00       60.057       37.535       10.698       17.036       13.591       10.202      290.212      184.713      104.083        0.285        0.029       70.822        8.928        0.016      331.189       -0.956      872.827
12/23/2013  07:52:00       56.919       42.186       -4.503       18.214       14.302       10.716      331.753      204.546      114.843        0.285        0.033       70.848        6.652        0.009      331.192       -0.951      872.838
12/23/2013  07:53:00       38.121       25.004        6.161       16.751       12.999       10.562      280.609      168.973      111.546        0.134        0.028       45.589        7.060        0.024      331.256       -0.845      872.859
12/23/2013  07:54:00       43.700       27.654        6.182       12.709        8.498        8.737      161.523       72.210       76.336        0.151        0.016       51.715        3.819        0.005      331.222       -0.902      872.864
12/23/2013  07:55:00       16.858       15.468       -2.769       14.662       11.909       12.271      214.980      141.829      150.584        0.052        0.025       22.879        5.461        0.057      331.316       -0.747      872.888
12/23/2013  07:56:00       23.437        3.096       -1.117        9.985        6.020        9.139       99.693       36.245       83.527        0.039        0.011       23.640        3.839        0.026      331.373       -0.655      872.908
12/23/2013  07:57:00       27.189       12.422      -13.037       10.888       13.478       10.173      118.557      181.647      103.480        0.073        0.020       29.892        8.048        0.072      331.336       -0.716      872.926
12/23/2013  07:58:00      -22.854       14.729       -4.524       27.205       12.549       12.599      740.103      157.469      158.733        0.091        0.053       27.189       15.792        0.337      331.220       -0.906      872.961
12/23/2013  07:59:00      -45.937       25.183      -12.895       17.043        9.512        9.785      290.464       90.475       95.739        0.169        0.024       52.387        8.738        0.028      331.168       -0.991      872.985
12/23/2013  08:00:00      -37.662       23.533       -5.228       11.392        8.316        6.175      129.772       69.155       38.129        0.112        0.012       44.410        4.042        0.008      331.284       -0.800      872.997
12/23/2013  08:01:00      -13.247        4.864       -4.683       11.341        8.071        8.684      128.613       65.137       75.409        0.025        0.013       14.111        5.718        0.164      331.384       -0.635      873.010
12/23/2013  08:02:00      -11.389        0.736       -2.979        7.997        7.477        9.746       63.960       55.898       94.975        0.018        0.011       11.412        3.100        0.074      331.586       -0.303      873.016
12/23/2013  08:03:00       -7.514       -6.288        9.986        9.367        9.503        7.360       87.733       90.298       54.164        0.021        0.012        9.798        7.307        0.556      331.674       -0.159      873.010
12/23/2013  08:04:00        8.282       11.856       19.054       11.165       10.494        9.179      124.651      110.117       84.252        0.045        0.016       14.462        5.391        0.139      331.901        0.215      873.001
12/23/2013  08:05:00       18.349       16.070       19.413       10.499        8.435        7.572      110.233       71.156       57.341        0.061        0.012       24.391        4.100        0.028      331.729       -0.068      872.987
12/23/2013  08:06:00       27.032       16.876       -3.631        5.987        9.572        8.339       35.848       91.619       69.531        0.061        0.010       31.868        6.414        0.041      331.537       -0.384      872.971
12/23/2013  08:07:00       27.147        9.526        0.223        6.241        5.856       10.659       38.950       34.298      113.607        0.051        0.009       28.770        3.777        0.017      331.607       -0.269      872.972
12/23/2013  08:08:00       11.552        6.436        3.753       12.818        8.540        8.611      164.290       72.928       74.149        0.025        0.016       13.224        6.414        0.235      331.814        0.073      872.979
12/23/2013  08:09:00      -13.712       33.048       -1.692       17.948       18.763       12.083      322.133      352.060      146.010        0.105        0.041       35.780       10.676        0.089      331.697       -0.121      873.000
12/23/2013  08:10:00        2.589        7.816       17.131       10.228       12.436        9.453      104.613      154.662       89.356        0.035        0.017        8.233        5.216        0.401      332.080        0.510      873.015
12/23/2013  08:11:00       -8.598       -0.963        8.962       14.874        6.874        7.829      221.242       47.250       61.288        0.024        0.016        8.652        8.803        1.035      331.865        0.156      873.031
12/23/2013  08:12:00       -8.594        2.158       14.522       13.012        5.713        6.373      169.306       32.643       40.613        0.027        0.012        8.861        5.176        0.341      331.962        0.315      873.037
12/23/2013  08:13:00       31.246       15.500        9.444       14.303       10.939       11.364      204.572      119.653      129.139        0.088        0.023       34.880        7.348        0.044      331.819        0.080      873.026
12/23/2013  08:14:00       32.606       27.036        3.902       19.318       15.024       12.914      373.166      225.723      166.778        0.129        0.038       42.357       12.446        0.086      331.817        0.077      873.025
12/23/2013  08:15:00       31.383       24.135        8.060       22.552       15.616        8.687      508.571      243.864       75.456        0.123        0.041       39.591        6.973        0.031      331.853        0.137      873.029
12/23/2013  08:16:00       45.075       34.486       12.164       13.397        9.919       12.246      179.489       98.396      149.975        0.190        0.021       56.755        5.980        0.011      331.806        0.059      873.028
12/23/2013  08:17:00       41.587       33.140       -1.395       12.566        9.495        9.149      157.913       90.150       83.701        0.158        0.017       53.177        5.338        0.010      331.801        0.050      873.039
12/23/2013  08:18:00       36.074       21.498       10.076       13.025        9.221       11.200      169.644       85.032      125.436        0.112        0.019       41.994        3.865        0.008      331.988        0.359      873.040
12/23/2013  08:19:00       41.540       21.699        7.700       20.234       16.295       19.572      409.408      265.514      383.056        0.166        0.053       46.866       12.489        0.071      332.064        0.484      873.042
12/23/2013  08:20:00       32.985       22.195       -5.559       19.137        8.466        9.958      366.212       71.679       99.171        0.107        0.027       39.757        5.753        0.021      331.906        0.224      873.054
12/23/2013  08:21:00       13.403        7.964       13.351       14.521       10.632       10.054      210.851      113.040      101.083        0.042        0.021       15.591        6.145        0.155      332.179        0.674      873.055
12/23/2013  08:22:00       23.206       30.697        5.377       15.012       12.046       11.883      225.364      145.111      141.204        0.101        0.026       38.481        6.919        0.032      332.112        0.565      873.049
12/23/2013  08:23:00       19.402       16.282       16.546       15.799       19.181       21.309      249.615      367.902      454.093        0.099        0.054       25.329       18.175        0.515      332.345        0.948      873.047
12/23/2013  08:24:00       21.138        3.712       20.126       14.891       10.939       15.641      221.747      119.667      244.639        0.073        0.029       21.461        9.184        0.183      332.408        1.052      873.056
12/23/2013  08:25:00        8.685        2.625       21.000        9.235        6.018        7.547       85.279       36.215       56.956        0.035        0.009        9.073        4.602        0.257      332.638        1.431      873.066
12/23/2013  08:26:00       11.379        4.252       21.788       11.535        8.013       11.452      133.050       64.204      131.153        0.048        0.016       12.147        8.764        0.521      332.617        1.396      873.082
12/23/2013  08:27:00        7.559        5.309       23.390       11.474        7.277        7.734      131.664       52.950       59.813        0.044        0.012        9.236        4.636        0.252      332.709        1.549      873.091
12/23/2013  08:28:00       -0.954        3.960       27.237        8.034        9.107        6.709       64.545       82.943       45.005        0.048        0.010        4.074        6.137        2.270      332.887        1.842      873.091
12/23/2013  08:29:00       -0.133       17.252       34.998       12.329       12.945        7.382      152.011      167.571       54.487        0.095        0.019       17.253        6.789        0.155      332.769        1.647      873.093
12/23/2013  08:30:00        1.978       24.874       33.942       12.007       14.426        7.911      144.169      208.105       62.584        0.109        0.021       24.953        7.339        0.087      332.534        1.259      873.094
12/23/2013  08:31:00        9.824       24.444       29.351       10.925       12.580        9.468      119.346      158.263       89.652        0.096        0.018       26.344        8.216        0.097      332.520        1.236      873.115
12/23/2013  08:32:00        1.089       18.829       31.576       12.265       10.838        9.237      150.432      117.452       85.320        0.085        0.018       18.860        6.680        0.125      332.716        1.558      873.131
12/23/2013  08:33:00       25.637       20.998       14.952       33.116       13.535       18.723     1096.701      183.200      350.533        0.148        0.082       33.139       21.331        0.414      332.539        1.268      873.143
12/23/2013  08:34:00       22.388       20.003       16.950       19.804       14.541       14.919      392.212      211.441      222.591        0.101        0.041       30.022       13.777        0.211      332.658        1.464      873.152
12/23/2013  08:35:00       44.386       32.724        5.185       17.211       12.892       16.833      296.208      166.202      283.347        0.191        0.037       55.146       11.686        0.045      332.400        1.039      873.153
12/23/2013  08:36:00       14.398       17.841        1.976       18.990       13.622       15.063      360.617      185.552      226.908        0.065        0.039       22.927       12.677        0.306      332.621        1.402      873.158
12/23/2013  08:37:00       15.923       18.646        8.270       16.123       16.052       15.507      259.963      257.681      240.453        0.071        0.038       24.519       11.141        0.206      332.702        1.537      873.158
12/23/2013  08:38:00       34.171       31.858        4.540       20.416       20.577       22.277      416.809      423.396      496.278        0.177        0.067       46.718       14.688        0.099      332.601        1.370      873.164
12/23/2013  08:39:00       19.690       37.082       -0.428       18.757       24.409       26.581      351.824      595.784      706.533        0.171        0.083       41.985       22.310        0.282      332.572        1.322      873.149
12/23/2013  08:40:00       33.357       19.576        6.261       14.376       12.446       15.905      206.662      154.913      252.957        0.107        0.031       38.677        7.669        0.039      332.571        1.321      873.149
12/23/2013  08:41:00       15.008       14.567        4.955       13.318       13.660       12.442      177.371      186.597      154.797        0.049        0.026       20.915        6.102        0.085      332.701        1.534      873.146
12/23/2013  08:42:00       39.813       31.931       -1.223       25.816       19.094       19.640      666.466      364.581      385.729        0.201        0.071       51.036       12.611        0.061      332.580        1.335      873.143
12/23/2013  08:43:00       63.331       43.170       -0.128       17.303       14.788       18.246      299.399      218.699      332.928        0.336        0.043       76.645       11.609        0.023      332.484        1.178      873.136
12/23/2013  08:44:00       55.104       52.085        4.641       33.233       19.925       20.968     1104.425      396.991      439.675        0.386        0.097       75.824        9.183        0.015      332.451        1.121      873.137
12/23/2013  08:45:00       61.643       46.987       12.677       26.835       20.612       24.667      720.118      424.849      608.447        0.396        0.088       77.509       11.729        0.023      332.539        1.267      873.136
12/23/2013  08:46:00       66.477       71.603       -0.114       29.034       27.887       20.997      842.971      777.678      440.866        0.580        0.103       97.705        9.140        0.009      332.526        1.247      873.139
12/23/2013  08:47:00       70.794       61.579       -5.830       19.713       21.296       13.892      388.606      453.518      192.995        0.494        0.052       93.828        8.562        0.008      332.335        0.931      873.141
12/23/2013  08:48:00       72.712       54.823        7.931       17.031       18.630       16.174      290.063      347.075      261.608        0.463        0.045       91.064        7.320        0.006      332.386        1.015      873.133
12/23/2013  08:49:00       79.332       58.063       -2.383       20.668       20.565       17.400      427.177      422.913      302.767        0.541        0.058       98.310       14.157        0.021      332.441        1.105      873.123
12/23/2013  08:50:00       68.982       58.163       -3.973       21.975       16.419       18.906      482.888      269.569      357.429        0.463        0.055       90.230       10.278        0.013      332.488        1.181      873.113
12/23/2013  08:51:00       37.411       46.637        7.758       26.865       25.651       21.750      721.718      657.963      473.067        0.274        0.093       59.788       10.585        0.031      332.749        1.615      873.117
12/23/2013  08:52:00       31.573       47.304       33.209       28.513       23.230       20.899      812.986      539.617      436.784        0.306        0.089       56.873       14.917        0.069      332.764        1.639      873.118
12/23/2013  08:53:00       47.277       63.718       52.667       32.134       22.672       20.730     1032.611      514.031      429.745        0.552        0.099       79.342       12.614        0.025      332.714        1.556      873.121
12/23/2013  08:54:00       43.932       52.470       35.418       30.535       31.036       35.459      932.377      963.236     1257.362        0.454        0.158       68.433       26.007        0.144      332.734        1.589      873.120
12/23/2013  08:55:00       30.476       50.899       44.600       43.360       24.718       31.907     1880.107      610.957     1018.034        0.451        0.175       59.326       27.164        0.210      332.908        1.877      873.117
12/23/2013  08:56:00       31.891       64.467       63.544       48.354       34.145       27.834     2338.079     1165.909      774.718        0.674        0.214       71.923       28.716        0.159      332.879        1.829      873.114
12/23/2013  08:57:00       78.093       84.468       49.072       30.024       21.775       30.242      901.411      474.160      914.550        0.897        0.115      115.036       19.204        0.028      332.619        1.401      873.113
12/23/2013  08:58:00       29.422       81.031       68.866       41.945       30.156       32.373     1759.385      909.379     1048.041        0.794        0.186       86.207       29.954        0.121      332.760        1.632      873.116
12/23/2013  08:59:00       51.178       60.838       47.803       49.357       20.131       26.723     2436.157      405.251      714.119        0.608        0.178       79.501       26.806        0.114      332.775        1.658      873.124
12/23/2013  09:00:00       77.631       81.127       58.077       42.917       25.253       34.087     1841.841      637.730     1161.946        0.981        0.182      112.286       29.068        0.067      332.551        1.287      873.140
12/23/2013  09:01:00       57.254       55.540       24.952       30.071       33.812       32.987      904.256     1143.268     1088.126        0.506        0.157       79.767       25.892        0.105      332.696        1.527      873.147
12/23/2013  09:02:00      -14.616       38.182       60.515       20.985       33.626       19.902      440.354     1130.691      396.100        0.365        0.098       40.884       16.582        0.165      333.132        2.247      873.148
12/23/2013  09:03:00      -13.424       49.727       68.508       19.660       33.249       22.838      386.513     1105.477      521.570        0.468        0.101       51.507       18.097        0.123      333.082        2.164      873.160
12/23/2013  09:04:00       41.949       44.772       35.600       48.061       28.002       34.362     2309.886      784.137     1180.758        0.465        0.214       61.354       33.400        0.296      332.838        1.762      873.174
12/23/2013  09:05:00       73.099       47.576        2.631       26.235       21.954       22.576      688.262      481.966      509.660        0.465        0.084       87.217       15.763        0.033      332.549        1.282      873.184
12/23/2013  09:06:00       60.952       49.587        8.700       29.839       22.558       24.396      890.340      508.871      595.176        0.412        0.100       78.575       14.267        0.033      332.718        1.563      873.201
12/23/2013  09:07:00       60.476       52.155       -4.857       23.906       21.335       21.606      571.516      455.161      466.826        0.395        0.075       79.859       11.533        0.021      332.782        1.669      873.214
12/23/2013  09:08:00        6.025       55.362       44.201       24.285       31.716       30.826      589.766     1005.923      950.227        0.380        0.127       55.688       20.119        0.131      333.153        2.281      873.212
12/23/2013  09:09:00       46.315       65.430       23.362       42.186       31.366       36.818     1779.619      983.825     1355.548        0.554        0.206       80.163       31.745        0.157      333.004        2.037      873.206
12/23/2013  09:10:00       61.007       56.752        5.007       36.910       23.078       25.783     1362.353      532.571      664.788        0.476        0.128       83.323       19.209        0.053      332.808        1.711      873.194
12/23/2013  09:11:00       83.044       58.725        6.049       16.517       17.209       25.721      272.820      296.150      661.568        0.581        0.062      101.710        9.862        0.009      332.648        1.445      873.189
12/23/2013  09:12:00       21.814       18.891        0.353       27.985       20.874       19.287      783.159      435.732      371.992        0.121        0.080       28.857       17.163        0.354      332.910        1.879      873.189
12/23/2013  09:13:00       55.215       43.092       -0.359       23.408       32.278       24.386      547.918     1041.844      594.665        0.354        0.109       70.040       21.060        0.090      332.850        1.784      873.186
12/23/2013  09:14:00       69.987       44.288       -2.914       20.156       26.565       17.755      406.268      705.674      315.237        0.415        0.071       82.822       14.601        0.031      332.850        1.782      873.191
12/23/2013  09:15:00       53.480       27.624       -9.721       23.920       29.027       21.790      572.180      842.539      474.823        0.280        0.094       60.193       14.005        0.054      332.762        1.636      873.203
12/23/2013  09:16:00       62.612       45.969        0.591       22.376       21.305       17.438      500.700      453.896      304.068        0.365        0.063       77.675        5.286        0.005      332.845        1.772      873.205
12/23/2013  09:17:00        7.029       29.070       16.564       31.823       27.430       25.464     1012.686      752.385      648.419        0.179        0.121       29.908       22.360        0.559      333.393        2.679      873.218
12/23/2013  09:18:00        8.489       14.105       22.612       28.109       25.848       17.676      790.118      668.144      312.434        0.128        0.089       16.463       16.998        1.066      333.461        2.791      873.220
12/23/2013  09:19:00       38.563       63.574       -1.576       24.081       25.008       22.796      579.885      625.393      519.679        0.363        0.086       74.356       12.720        0.029      333.157        2.288      873.212
12/23/2013  09:20:00       22.803       48.171        0.376       36.239       39.195       27.882     1313.243     1536.279      777.380        0.323        0.181       53.295       19.624        0.136      333.233        2.414      873.194
12/23/2013  09:21:00       98.226       60.964        7.306       25.670       23.933       25.505      658.971      572.786      650.525        0.765        0.094      115.607       13.004        0.013      333.044        2.102      873.163
12/23/2013  09:22:00      101.990       59.758       -3.895       26.692       30.490       24.163      712.464      929.649      583.832        0.811        0.111      118.207       13.856        0.014      332.987        2.007      873.154
12/23/2013  09:23:00       79.615       43.894        9.595       36.384       26.576       26.538     1323.805      706.277      704.240        0.555        0.137       90.913       20.262        0.050      333.351        2.608      873.151
12/23/2013  09:24:00       62.673       68.469       14.968       45.570       25.599       28.149     2076.664      655.301      792.354        0.618        0.176       92.822       16.314        0.031      333.172        2.313      873.157
12/23/2013  09:25:00       59.894       49.691        1.967       28.784       22.212       26.323      828.540      493.384      692.880        0.404        0.101       77.823        9.620        0.015      333.086        2.171      873.164
12/23/2013  09:26:00       92.125       35.489        3.105       36.918       32.736       25.431     1362.949     1071.615      646.742        0.642        0.154       98.724       18.291        0.034      333.211        2.378      873.177
12/23/2013  09:27:00       73.491       76.366       12.275       22.641       28.183       27.742      512.613      794.309      769.608        0.673        0.104      105.985       14.648        0.019      333.082        2.164      873.188
12/23/2013  09:28:00       54.343       50.372       46.424       52.064       32.765       32.814     2710.683     1073.551     1076.731        0.625        0.243       74.098       23.836        0.103      333.449        2.770      873.205
12/23/2013  09:29:00       22.861       19.478       39.188       28.918       45.018       34.970      836.276     2026.638     1222.916        0.326        0.204       30.034       33.172        1.220      333.459        2.788      873.231
12/23/2013  09:30:00       54.761       64.796       63.649       43.694       46.439       20.948     1909.162     2156.617      438.839        0.788        0.225       84.837       15.661        0.034      333.399        2.689      873.248
12/23/2013  09:31:00       63.427       86.251       58.475       35.259       24.368       26.926     1243.188      593.816      725.022        0.872        0.128      107.061        8.043        0.006      333.253        2.447      873.255
12/23/2013  09:32:00       41.040       79.753       73.077       41.232       28.217       27.428     1700.052      796.222      752.273        0.832        0.162       89.693       15.550        0.030      333.242        2.429      873.259
12/23/2013  09:33:00       60.221       60.641       44.982       43.951       40.705       39.817     1931.722     1656.890     1585.356        0.725        0.259       85.462       36.396        0.181      333.332        2.578      873.267
12/23/2013  09:34:00       32.590       61.900       56.519       41.922       33.769       35.775     1757.434     1140.374     1279.861        0.613        0.209       69.955       25.935        0.137      333.573        2.977      873.290
12/23/2013  09:35:00       72.442       74.196       61.321       47.038       32.737       34.619     2212.545     1071.724     1198.450        0.950        0.224      103.697       29.748        0.082      333.255        2.449      873.318
12/23/2013  09:36:00       66.848       58.829       31.474       48.532       22.738       29.366     2355.396      517.003      862.369        0.633        0.187       89.047       23.639        0.070      333.281        2.493      873.350
12/23/2013  09:37:00       40.848       58.554       70.227       42.850       34.614       19.274     1836.121     1198.108      371.470        0.672        0.170       71.394       18.778        0.069      333.442        2.759      873.359
12/23/2013  09:38:00       60.305       63.622       59.171       28.740       23.794       28.303      825.964      566.165      801.060        0.669        0.110       87.661       18.320        0.044      333.355        2.618      873.373
12/23/2013  09:39:00       67.807       46.208       33.795       41.419       26.237       26.488     1715.546      688.388      701.626        0.549        0.155       82.055       19.575        0.057      333.456        2.782      873.370
12/23/2013  09:40:00        7.765       49.799       61.701       26.066       30.898       21.286      679.428      954.690      453.088        0.422        0.104       50.401       17.832        0.125      333.778        3.316      873.361
12/23/2013  09:41:00       25.431       70.521       74.018       46.093       47.895       51.823     2124.601     2293.951     2685.668        0.910        0.355       74.967       45.258        0.364      333.616        3.048      873.340
12/23/2013  09:42:00       95.120       80.263       64.802       43.641       33.453       36.779     1904.572     1119.122     1352.670        1.203        0.219      124.459       17.252        0.019      333.522        2.892      873.317
12/23/2013  09:43:00       76.851       78.920       64.712       59.061       57.464       59.200     3488.249     3302.070     3504.602        1.331        0.515      110.156       43.893        0.159      333.440        2.756      873.312
12/23/2013  09:44:00       54.549       83.390       74.841       57.926       44.209       35.150     3355.418     1954.424     1235.525        1.104        0.327       99.647       34.679        0.121      333.734        3.243      873.295
12/23/2013  09:45:00       20.859       89.763       83.803       50.895       41.360       44.054     2590.332     1710.619     1940.782        1.088        0.312       92.155       28.924        0.099      333.844        3.424      873.284
12/23/2013  09:46:00       48.953       87.505       78.580       45.305       43.930       38.991     2052.588     1929.884     1520.289        1.086        0.275      100.268       31.802        0.101      333.627        3.064      873.273
12/23/2013  09:47:00       66.178       90.478       91.478       55.027       57.238       44.439     3027.946     3276.179     1974.830        1.461        0.414      112.098       43.328        0.149      333.540        2.921      873.263
12/23/2013  09:48:00       78.859       90.673       81.325       48.924       47.063       35.412     2393.587     2214.944     1253.978        1.346        0.293      120.168       26.709        0.049      333.476        2.815      873.258
12/23/2013  09:49:00       76.371       64.000       75.125       52.241       35.861       27.550     2729.095     1286.027      759.026        1.017        0.239       99.642       26.941        0.073      333.572        2.976      873.262
12/23/2013  09:50:00       93.247      103.612       70.837       30.985       23.157       33.246      960.090      536.226     1105.312        1.352        0.130      139.393        9.101        0.004      333.430        2.738      873.257
12/23/2013  09:51:00       19.276       55.224       68.950       31.598       28.065       24.920      998.449      787.644      620.996        0.529        0.120       58.492       23.835        0.166      333.697        3.181      873.264
12/23/2013  09:52:00       34.927       72.437       63.285       36.663       37.525       31.207     1344.172     1408.140      973.873        0.710        0.186       80.417       17.722        0.049      333.895        3.510      873.265
12/23/2013  09:53:00       63.675       38.857        9.412       34.495       28.726       31.925     1189.879      825.179     1019.214        0.434        0.152       74.595       21.045        0.080      333.782        3.322      873.276
12/23/2013  09:54:00       58.286       80.441       64.060       42.826       34.633       37.147     1834.069     1199.423     1379.895        0.919        0.221       99.338       24.390        0.060      333.866        3.461      873.280
12/23/2013  09:55:00       54.399       56.189       18.259       42.729       37.103       30.692     1825.760     1376.608      942.025        0.530        0.207       78.208       19.791        0.064      333.660        3.120      873.285
12/23/2013  09:56:00       16.111       39.137       68.414       46.779       46.546       22.257     2188.310     2166.519      495.360        0.566        0.243       42.323        9.375        0.049      333.960        3.617      873.283
12/23/2013  09:57:00       47.145       69.943       87.094       32.509       31.445       24.180     1056.847      988.809      584.673        0.866        0.132       84.348       15.865        0.035      333.747        3.264      873.292
12/23/2013  09:58:00       46.061       42.289       65.622       32.823       27.617       20.379     1077.335      762.705      415.286        0.524        0.113       62.530       18.318        0.086      333.928        3.564      873.283
12/23/2013  09:59:00       33.239       17.187       37.417       33.202       33.082       20.827     1102.344     1094.405      433.772        0.271        0.132       37.420       19.535        0.273      334.215        4.042      873.276
12/23/2013  10:00:00       72.089       64.024       10.867       41.909       26.019       26.783     1756.403      676.985      717.326        0.628        0.158       96.415       25.531        0.070      333.758        3.284      873.273
12/23/2013  10:01:00       29.897       57.337       54.087       36.015       34.189       43.873     1297.105     1168.861     1924.823        0.575        0.220       64.664       24.875        0.148      334.069        3.799      873.268
12/23/2013  10:02:00       74.829       57.861       31.422       35.485       33.983       33.860     1259.195     1154.812     1146.497        0.675        0.178       94.590       18.287        0.037      333.813        3.375      873.285
12/23/2013  10:03:00       91.038       53.625       -3.215       28.366       17.950       25.717      804.609      322.220      661.342        0.648        0.089      105.658       15.364        0.021      333.581        2.990      873.309
12/23/2013  10:04:00       78.791       65.579        0.084       24.884       20.451       32.056      619.222      418.226     1027.557        0.629        0.103      102.512       11.738        0.013      333.723        3.225      873.329
12/23/2013  10:05:00       96.245       59.941       13.160       26.373       25.410       24.226      695.522      645.680      586.900        0.748        0.096      113.384       17.709        0.024      333.572        2.973      873.343
12/23/2013  10:06:00       59.644       58.490        3.306       18.711       25.703       26.145      350.116      660.625      683.557        0.434        0.085       83.538       12.788        0.023      333.662        3.123      873.339
12/23/2013  10:07:00       43.987       84.833       -2.458       29.546       26.163       28.541      872.987      684.513      814.591        0.575        0.119       95.559       16.424        0.030      333.963        3.622      873.321
12/23/2013  10:08:00       53.665       69.742       -6.140       33.141       25.319       22.377     1098.323      641.041      500.716        0.501        0.112       88.000       17.619        0.040      334.036        3.745      873.314
12/23/2013  10:09:00       55.448       61.582       20.612       35.696       30.637       37.694     1274.193      938.634     1420.859        0.546        0.182       82.866       27.708        0.112      334.157        3.945      873.303
12/23/2013  10:10:00       28.004       75.828       65.356       36.439       30.512       24.700     1327.829      930.994      610.102        0.684        0.143       80.834       19.535        0.058      334.292        4.168      873.292
12/23/2013  10:11:00       29.972       56.618       57.196       38.986       27.517       28.599     1519.878      757.164      817.888        0.523        0.155       64.062       20.410        0.102      334.246        4.091      873.286
12/23/2013  10:12:00       21.320        9.381       39.771       29.456       51.182       24.570      867.649     2619.631      603.687        0.311        0.205       23.293       25.963        1.242      334.420        4.381      873.294
12/23/2013  10:13:00       19.553       22.593       35.632       25.734       24.384       25.941      662.247      594.568      672.916        0.205        0.096       29.879       15.646        0.274      334.495        4.506      873.300
12/23/2013  10:14:00       18.445       30.769       10.512       26.905       36.035       24.284      723.895     1298.538      589.710        0.200        0.131       35.874       22.413        0.390      334.504        4.520      873.299
12/23/2013  10:15:00       12.830       61.949       -3.813       27.234       29.165       20.395      741.703      850.589      415.967        0.301        0.100       63.263       20.593        0.106      334.471        4.465      873.299
12/23/2013  10:16:00        7.206       52.184       42.621       36.639       41.584       37.466     1342.386     1729.240     1403.677        0.453        0.224       52.679       20.762        0.155      334.779        4.977      873.304
12/23/2013  10:17:00      102.626       76.096        5.448       34.107       35.531       25.119     1163.317     1262.430      630.964        0.970        0.153      127.760        8.918        0.005      334.069        3.799      873.297
12/23/2013  10:18:00       83.674       48.714        3.145       34.018       34.392       23.741     1157.198     1182.799      563.639        0.614        0.145       96.822       19.698        0.041      334.039        3.749      873.301
12/23/2013  10:19:00       54.924       41.124       11.336       31.277       21.843       26.820      978.243      477.124      719.308        0.351        0.109       68.614       20.450        0.089      334.393        4.336      873.290
12/23/2013  10:20:00       29.980       34.686        9.062       24.483       28.033       28.700      599.415      785.844      823.672        0.220        0.110       45.847       21.389        0.218      334.561        4.614      873.288
12/23/2013  10:21:00       47.499       26.514        4.240       27.055       21.427       24.385      731.967      459.122      594.630        0.238        0.089       54.398       17.093        0.099      334.416        4.374      873.292
12/23/2013  10:22:00       31.755       38.738        2.042       37.228       26.254       25.640     1385.915      689.267      657.428        0.262        0.137       50.090       15.719        0.098      334.501        4.515      873.297
12/23/2013  10:23:00       52.971       45.634       11.268       54.234       39.524       21.959     2941.334     1562.142      482.180        0.500        0.249       69.917       22.742        0.106      334.639        4.745      873.298
12/23/2013  10:24:00       65.898       56.937      -13.267       25.305       22.085       15.613      640.325      487.736      243.752        0.457        0.069       87.089       11.924        0.019      334.114        3.873      873.304
12/23/2013  10:25:00       45.021       17.134       -8.287       13.557       16.340       16.440      183.796      266.980      270.279        0.155        0.036       48.171        9.787        0.041      334.154        3.942      873.289
12/23/2013  10:26:00       75.953       34.731       -7.966       26.164       21.006       17.841      684.580      441.255      318.315        0.424        0.072       83.517        9.339        0.013      334.134        3.908      873.278
12/23/2013  10:27:00       46.866       33.151        0.004       24.660       23.185       18.045      608.107      537.542      325.638        0.238        0.074       57.406       11.005        0.037      334.257        4.112      873.261
12/23/2013  10:28:00       79.071       57.714       11.140       41.090       29.378       28.923     1688.412      863.072      836.561        0.655        0.169       97.894       21.610        0.049      334.434        4.404      873.241
12/23/2013  10:29:00       49.173       40.117       33.885       21.268       21.635       23.028      452.319      468.082      530.304        0.331        0.073       63.462       16.642        0.069      334.586        4.657      873.233
12/23/2013  10:30:00       46.612       17.045       43.685       25.073       32.368       20.731      628.631     1047.681      429.781        0.324        0.105       49.630       17.066        0.118      334.595        4.672      873.225
12/23/2013  10:31:00       45.839       37.799       59.997       48.118       27.690       19.232     2315.330      766.759      369.872        0.529        0.173       59.414       12.347        0.043      334.753        4.934      873.215
12/23/2013  10:32:00       50.453       49.291       27.139       22.109       15.823       25.400      488.823      250.382      645.145        0.355        0.069       70.534       16.007        0.052      334.496        4.507      873.197
12/23/2013  10:33:00       82.131       55.430       24.545       29.504       14.656       20.931      870.463      214.795      438.113        0.597        0.076       99.086       15.030        0.023      334.354        4.271      873.185
12/23/2013  10:34:00       53.724       23.136       34.180       39.301       39.872       35.880     1544.553     1589.811     1287.368        0.451        0.221       58.494       25.172        0.185      334.777        4.973      873.165
12/23/2013  10:35:00       60.377       63.085        8.246       32.071       30.201       30.983     1028.563      912.113      959.971        0.530        0.145       87.321       16.425        0.035      334.545        4.589      873.150
12/23/2013  10:36:00       29.554       29.419       58.356       40.623       58.343       35.939     1650.222     3403.902     1291.636        0.574        0.317       41.701       37.353        0.802      334.861        5.114      873.130
12/23/2013  10:37:00       47.516       29.469       48.471       47.388       54.988       37.319     2245.649     3023.710     1392.718        0.607        0.333       55.913       41.794        0.559      334.936        5.238      873.110
12/23/2013  10:38:00       80.400       80.112       62.472       64.115       40.472       45.325     4110.781     1638.012     2054.399        1.229        0.390      113.499       41.550        0.134      334.880        5.144      873.108
12/23/2013  10:39:00       67.684       50.280       25.080       47.723       42.705       36.192     2277.483     1823.737     1309.875        0.657        0.271       84.316       29.409        0.122      334.997        5.340      873.106
12/23/2013  10:40:00       85.690       81.844       45.696       65.840       35.952       40.025     4334.918     1292.512     1602.029        1.168        0.361      118.495       32.950        0.077      334.969        5.293      873.106
12/23/2013  10:41:00       21.950       59.672       62.486       40.866       39.325       46.338     1670.000     1546.468     2147.219        0.665        0.268       63.581       37.542        0.349      335.046        5.420      873.105
12/23/2013  10:42:00       22.214       36.459       63.109       29.082       31.495       23.293      845.745      991.925      542.571        0.409        0.119       42.694       10.554        0.061      335.276        5.803      873.101
12/23/2013  10:43:00       64.955      102.734       96.176       55.784       33.605       28.325     3111.885     1129.278      802.289        1.453        0.252      121.546       14.501        0.014      334.836        5.071      873.090
12/23/2013  10:44:00       28.669       60.046       69.360       37.295       37.145       27.396     1390.943     1379.751      750.516        0.638        0.176       66.540       13.685        0.042      334.994        5.333      873.073
12/23/2013  10:45:00       22.774       62.957       71.119       45.139       47.739       24.193     2037.546     2279.009      585.310        0.722        0.245       66.950       25.088        0.140      334.899        5.176      873.071
12/23/2013  10:46:00       41.145       79.179       74.949       34.404       29.096       25.277     1183.620      846.565      638.951        0.812        0.133       89.231       10.794        0.015      334.938        5.240      873.048
12/23/2013  10:47:00       74.737       73.584       56.397       35.581       25.617       32.468     1266.000      656.238     1054.142        0.858        0.149      104.882       21.887        0.044      334.890        5.160      873.054
12/23/2013  10:48:00       -8.155       67.003       86.892       24.181       45.083       28.813      584.715     2032.518      830.179        0.778        0.172       67.498       24.985        0.137      335.322        5.879      873.039
12/23/2013  10:49:00       13.798       56.363       52.697       31.642       46.080       26.386     1001.201     2123.359      696.210        0.498        0.191       58.027       20.516        0.125      335.320        5.874      873.035
12/23/2013  10:50:00       35.879       34.037       13.150       35.787       24.647       26.786     1280.745      607.493      717.494        0.261        0.130       49.455       14.238        0.083      335.310        5.860      873.028
12/23/2013  10:51:00       32.736       -6.397       42.347       38.732       47.710       30.140     1500.183     2276.268      908.400        0.379        0.234       33.356       18.016        0.292      335.482        6.144      873.023
12/23/2013  10:52:00       67.677       65.165       48.458       43.398       39.452       42.356     1883.369     1556.451     1794.040        0.820        0.262       93.950       28.189        0.090      335.037        5.406      873.021
12/23/2013  10:53:00       22.573       63.831       65.676       40.567       43.911       29.046     1645.694     1928.182      843.646        0.666        0.221       67.705       14.059        0.043      335.270        5.793      873.029
12/23/2013  10:54:00       33.938       61.943       47.699       30.555       29.780       20.080      933.625      886.838      403.222        0.474        0.111       70.631       13.082        0.034      335.095        5.501      873.029
12/23/2013  10:55:00       -8.877       13.167       31.276       30.300       25.496       25.235      918.092      650.052      636.782        0.172        0.110       15.880       15.915        1.004      335.659        6.440      873.033
12/23/2013  10:56:00       77.391       33.062       59.998       59.078       39.190       34.620     3490.213     1535.862     1198.574        0.845        0.311       84.157       30.966        0.135      335.212        5.696      873.023
12/23/2013  10:57:00       27.672        3.825        3.392       50.383       23.994       35.321     2538.415      575.697     1247.546        0.258        0.218       27.935       21.144        0.573      335.115        5.536      873.019
12/23/2013  10:58:00       14.802       23.675       44.459       20.611       28.492       22.244      424.817      811.775      494.799        0.224        0.087       27.921       13.504        0.234      335.576        6.302      872.995
12/23/2013  10:59:00       10.614       51.371       81.611       30.858       35.815       23.295      952.230     1282.720      542.656        0.609        0.139       52.456       16.567        0.100      335.666        6.451      872.996
12/23/2013  11:00:00        7.934       38.667       33.043       26.121       35.240       25.641      682.281     1241.829      657.475        0.262        0.129       39.473       13.726        0.121      335.832        6.727      872.983
12/23/2013  11:01:00       49.391       79.473       65.392       51.130       47.733       40.305     2614.250     2278.399     1624.463        0.977        0.326       93.570       25.182        0.072      335.754        6.599      872.987
12/23/2013  11:02:00       89.127       85.998       70.050       33.788       23.923       29.179     1141.624      572.293      851.386        1.141        0.128      123.852       14.111        0.013      335.162        5.613      872.989
12/23/2013  11:03:00      105.290       97.758       51.135       32.030       21.003       30.657     1025.905      441.114      939.877        1.283        0.120      143.675       13.154        0.008      335.052        5.430      872.990
12/23/2013  11:04:00       39.809       38.068       68.006       36.021       38.905       17.446     1297.528     1513.636      304.364        0.539        0.156       55.081       16.049        0.085      335.468        6.124      872.983
12/23/2013  11:05:00       11.051        2.269       37.590       39.207       27.907       32.622     1537.221      778.809     1064.210        0.246        0.169       11.281       25.431        5.082      335.443        6.080      872.969
12/23/2013  11:06:00       25.199       59.800       76.192       36.445       38.300       21.468     1328.245     1466.914      460.866        0.664        0.163       64.892       24.483        0.142      335.679        6.474      872.955
12/23/2013  11:07:00       72.920       68.881       49.332       22.935       22.553       29.616      526.000      508.638      877.120        0.720        0.096      100.309       13.344        0.018      335.228        5.722      872.937
12/23/2013  11:08:00       69.493       49.544       19.710       43.329       24.952       33.516     1877.410      622.580     1123.352        0.565        0.181       85.345       24.158        0.080      335.322        5.880      872.929
12/23/2013  11:09:00       29.100       25.799      -14.679       20.827       19.464       20.571      433.763      378.850      423.153        0.148        0.062       38.889       10.436        0.072      335.368        5.955      872.911
12/23/2013  11:10:00       -7.712       11.769       12.366       11.959       16.517       19.680      143.021      272.817      387.285        0.058        0.040       14.070       11.803        0.704      335.869        6.790      872.909
12/23/2013  11:11:00       72.793       42.987       -1.026       44.246       32.047       28.869     1957.674     1026.978      833.447        0.548        0.191       84.538       17.948        0.045      335.648        6.422      872.896
12/23/2013  11:12:00       39.598       90.575       67.455       42.631       39.470       44.971     1817.439     1557.898     2022.414        0.986        0.270       98.853       29.701        0.090      335.807        6.686      872.895
12/23/2013  11:13:00       72.700       44.517       39.821       56.690       41.837       44.868     3213.793     1750.339     2013.149        0.791        0.349       85.247       37.645        0.195      335.719        6.539      872.892
12/23/2013  11:14:00      107.953       95.496      -10.152       36.062       29.263       24.865     1300.497      856.314      618.292        1.183        0.139      144.130       12.107        0.007      335.459        6.107      872.886
12/23/2013  11:15:00      105.524       87.589        4.598       37.470       35.006       33.740     1403.995     1225.397     1138.421        1.130        0.188      137.139       19.800        0.021      335.496        6.169      872.871
12/23/2013  11:16:00       98.356       83.612       17.865       37.032       17.090       27.411     1371.335      292.063      751.372        0.970        0.121      129.093       25.645        0.039      335.301        5.843      872.853
12/23/2013  11:17:00       -2.846        4.989       23.901       21.003       43.401       32.357      441.146     1883.640     1046.973        0.199        0.169        5.743       17.962        9.781      336.070        7.126      872.831
12/23/2013  11:18:00       32.407       61.138       70.739       38.376       29.839       28.268     1472.709      890.393      799.064        0.648        0.158       69.196       18.277        0.070      335.710        6.527      872.803
12/23/2013  11:19:00       20.934       30.635       63.745       36.898       40.390       25.216     1361.499     1631.338      635.830        0.453        0.181       37.104       21.419        0.333      335.888        6.823      872.786
12/23/2013  11:20:00        0.214       64.680       79.778       25.011       32.684       26.528      625.545     1068.267      703.710        0.647        0.120       64.681       19.190        0.088      335.949        6.923      872.760
12/23/2013  11:21:00       -4.719       82.762       93.329       40.031       45.284       39.413     1602.507     2050.678     1553.411        1.039        0.260       82.896       27.671        0.111      335.999        7.006      872.746
12/23/2013  11:22:00       65.786       62.318       40.439       59.463       29.358       37.936     3535.833      861.864     1439.142        0.784        0.292       90.617       25.437        0.079      335.592        6.328      872.739
12/23/2013  11:23:00       72.573       58.740       33.394       38.467       30.894       33.908     1479.672      954.463     1149.774        0.671        0.179       93.366       23.692        0.064      335.712        6.529      872.737
12/23/2013  11:24:00       52.088       60.741       33.735       48.837       48.042       32.970     2385.066     2308.060     1087.018        0.666        0.289       80.017       15.986        0.040      336.097        7.171      872.723
12/23/2013  11:25:00       68.499       67.438       65.396       43.539       39.705       36.201     1895.680     1576.448     1310.522        0.915        0.239       96.125       17.801        0.034      335.814        6.699      872.712
12/23/2013  11:26:00       91.662       72.709       45.324       21.770       27.793       30.481      473.924      772.445      929.105        0.896        0.109      116.998       17.381        0.022      335.479        6.141      872.692
12/23/2013  11:27:00       49.053       63.244      -13.065       20.545       22.460       27.325      422.109      504.463      746.654        0.412        0.084       80.038       18.001        0.051      335.470        6.126      872.676
12/23/2013  11:28:00       48.199       32.146        4.158       41.361       23.780       28.184     1710.770      565.500      794.321        0.322        0.154       57.935       14.355        0.061      335.719        6.540      872.669
12/23/2013  11:29:00       74.771       46.116        4.900       36.783       34.577       26.230     1353.018     1195.535      687.987        0.549        0.162       87.849       19.221        0.048      335.619        6.373      872.664
12/23/2013  11:30:00       35.680       60.084       44.430       29.606       46.119       51.971      876.519     2126.992     2700.949        0.628        0.285       69.880       36.875        0.278      335.751        6.594      872.660
12/23/2013  11:31:00       80.114       27.681       45.069       63.341       49.173       37.031     4012.094     2417.982     1371.260        0.851        0.390       84.761       26.410        0.097      335.757        6.603      872.642
12/23/2013  11:32:00       52.657       36.203       28.009       36.237       29.829       26.617     1313.114      889.781      708.450        0.389        0.146       63.901       14.880        0.054      335.821        6.711      872.634
12/23/2013  11:33:00       60.887       55.485       33.734       50.261       36.765       37.379     2526.154     1351.653     1397.162        0.660        0.264       82.376       34.430        0.175      336.043        7.080      872.618
12/23/2013  11:34:00       36.650       41.677       54.969       50.875       61.858       43.687     2588.261     3826.393     1908.521        0.721        0.416       55.500       41.509        0.559      336.108        7.188      872.609
12/23/2013  11:35:00       53.243       48.659       54.492       60.973       44.429       41.759     3717.751     1973.973     1743.779        0.780        0.372       72.128       41.565        0.332      336.144        7.250      872.610
12/23/2013  11:36:00      124.199      102.771       17.985       45.980       37.753       34.843     2114.189     1425.286     1214.060        1.553        0.238      161.205       16.274        0.010      335.730        6.559      872.601
12/23/2013  11:37:00      114.782       77.320        5.979       38.244       31.932       32.383     1462.570     1019.655     1048.681        1.136        0.177      138.396       17.132        0.015      335.886        6.818      872.590
12/23/2013  11:38:00       18.438       57.505       89.092       41.704       45.471       20.626     1739.252     2067.657      425.413        0.791        0.212       60.389       15.648        0.067      336.247        7.420      872.589
12/23/2013  11:39:00       76.778       79.433       55.649       88.067       46.686       43.174     7755.843     2179.552     1864.021        1.355        0.590      110.474       23.641        0.046      335.930        6.892      872.568
12/23/2013  11:40:00       75.321       46.680       21.712       46.687       44.984       27.757     2179.711     2023.516      770.439        0.665        0.249       88.613       16.633        0.035      335.888        6.822      872.564
12/23/2013  11:41:00       65.957       70.753       24.270       53.041       34.851       37.107     2813.325     1214.625     1376.937        0.767        0.270       96.728       33.441        0.120      336.059        7.107      872.548
12/23/2013  11:42:00       14.559       54.637       60.350       48.587       44.830       50.891     2360.664     2009.754     2589.867        0.690        0.348       56.543       39.690        0.493      336.180        7.309      872.521
12/23/2013  11:43:00       33.389       75.888       89.442       37.463       38.444       19.379     1403.443     1477.925      375.564        0.906        0.163       82.909       15.171        0.033      336.079        7.140      872.519
12/23/2013  11:44:00       74.232       83.815       78.502       53.578       49.216       38.877     2870.570     2422.179     1511.446        1.275        0.340      111.961       38.550        0.119      335.991        6.994      872.515
12/23/2013  11:45:00       40.479       25.059       45.840       33.554       26.415       29.312     1125.896      697.771      859.197        0.352        0.134       47.608       19.833        0.174      336.073        7.130      872.503
12/23/2013  11:46:00       82.821       14.099       52.940       53.523       69.564       42.800     2864.756     4839.189     1831.877        0.970        0.477       84.013       42.274        0.253      336.110        7.193      872.487
12/23/2013  11:47:00       56.154       60.590       46.236       48.416       34.792       42.944     2344.094     1210.510     1844.155        0.718        0.270       82.611       29.572        0.128      335.989        6.990      872.468
12/23/2013  11:48:00       38.730       73.484       73.998       33.262       44.685       39.979     1106.377     1996.777     1598.344        0.854        0.235       83.065       30.576        0.135      336.083        7.146      872.435
12/23/2013  11:49:00       53.140       89.889       66.945       52.742       37.160       45.324     2781.714     1380.840     2054.267        1.080        0.311      104.421       38.695        0.137      336.071        7.125      872.422
12/23/2013  11:50:00       35.253       47.567       10.775       59.890       33.125       38.411     3586.817     1097.268     1475.370        0.489        0.308       59.206       35.942        0.369      336.153        7.264      872.415
12/23/2013  11:51:00       50.870       63.957       45.253       52.168       57.025       42.142     2721.471     3251.820     1775.989        0.824        0.387       81.721       33.135        0.164      336.226        7.385      872.404
12/23/2013  11:52:00       56.080       77.905       23.074       59.334       38.417       53.232     3520.505     1475.830     2833.654        0.879        0.391       95.990       50.540        0.277      336.157        7.272      872.402
12/23/2013  11:53:00        2.723       65.356       75.570       20.501       34.561       16.521      420.294     1194.463      272.952        0.594        0.094       65.413       17.959        0.075      336.343        7.581      872.408
12/23/2013  11:54:00       39.564       68.510       61.961       45.217       40.714       42.780     2044.579     1657.653     1830.096        0.781        0.277       79.113       28.293        0.128      336.148        7.254      872.402
12/23/2013  11:55:00       53.163       94.923       67.159       57.407       48.945       58.096     3295.543     2395.660     3375.139        1.271        0.453      108.797       52.579        0.234      336.353        7.597      872.375
12/23/2013  11:56:00       69.537       64.911        6.295       46.015       37.429       42.799     2117.343     1400.946     1831.766        0.722        0.268       95.125       19.746        0.043      336.293        7.498      872.360
12/23/2013  11:57:00       21.047       62.125       79.673       43.307       51.634       41.979     1875.469     2666.060     1762.231        0.848        0.315       65.593       32.992        0.253      336.433        7.732      872.350
12/23/2013  11:58:00       41.277       61.730       64.658       55.650       52.238       49.502     3096.876     2728.848     2450.496        0.898        0.414       74.259       49.843        0.451      336.154        7.265      872.328
12/23/2013  11:59:00       63.831       64.354       67.561       48.553       49.488       33.362     2357.373     2449.105     1112.994        0.935        0.296       90.641       26.298        0.084      336.213        7.363      872.307
12/23/2013  12:00:00       86.972       84.615       73.675       59.167       41.907       46.930     3500.726     1756.208     2202.433        1.380        0.373      121.342       41.799        0.119      336.286        7.484      872.283
12/23/2013  12:01:00       -1.534       68.765      101.759       32.673       48.237       35.040     1067.525     2326.815     1227.830        0.985        0.231       68.782       35.371        0.264      336.359        7.608      872.266
12/23/2013  12:02:00       93.620      107.577       25.667       50.778       54.373       51.421     2578.398     2956.448     2644.082        1.459        0.409      142.609       32.579        0.052      336.028        7.054      872.254
12/23/2013  12:03:00       26.822        9.288       19.833       35.441       30.665       26.420     1256.044      940.313      698.017        0.205        0.145       28.385       14.616        0.265      336.375        7.635      872.257
12/23/2013  12:04:00       55.794       46.830       19.728       28.385       28.046       27.939      805.686      786.560      780.586        0.403        0.119       72.842       17.352        0.057      336.315        7.535      872.242
12/23/2013  12:05:00        5.588       38.106       56.208       34.672       36.301       22.175     1202.175     1317.781      491.731        0.383        0.151       38.513       20.810        0.292      336.922        8.548      872.216
12/23/2013  12:06:00       35.002       49.104       72.601       42.777       39.078       32.921     1829.914     1527.088     1083.817        0.667        0.222       60.302       25.322        0.176      336.597        8.005      872.202
12/23/2013  12:07:00      127.408       70.551       56.631       57.082       53.666       48.046     3258.313     2880.034     2308.434        1.643        0.422      145.637       37.518        0.066      336.315        7.533      872.177
12/23/2013  12:08:00      116.547       95.894       56.540       58.560       37.059       36.262     3429.281     1373.345     1314.948        1.605        0.306      150.927       26.516        0.031      336.251        7.426      872.168
12/23/2013  12:09:00       22.302       12.914       36.401       65.490       60.635       38.174     4288.983     3676.574     1457.242        0.570        0.471       25.772       20.066        0.606      336.616        8.037      872.161
12/23/2013  12:10:00       42.887       44.216       72.702       46.946       57.375       50.187     2203.963     3291.926     2518.696        0.855        0.401       61.598       50.819        0.681      336.384        7.651      872.164
12/23/2013  12:11:00       47.816       23.337       26.330       29.980       35.927       26.353      898.787     1290.716      694.460        0.320        0.144       53.207       20.743        0.152      336.430        7.726      872.147
12/23/2013  12:12:00       44.104       60.076       63.187       52.927       56.527       32.432     2801.302     3195.291     1051.859        0.830        0.352       74.527       18.474        0.061      336.538        7.908      872.110
12/23/2013  12:13:00       25.747       26.759       54.779       34.506       44.567       27.718     1190.683     1986.210      768.314        0.416        0.197       37.135       27.806        0.561      336.763        8.283      872.096
12/23/2013  12:14:00       86.708      101.852       68.283       77.562       45.450       57.293     6015.901     2065.682     3282.449        1.696        0.568      133.762       59.674        0.199      336.344        7.580      872.085
12/23/2013  12:15:00      133.711       96.317       44.308       48.871       36.439       40.330     2388.331     1327.837     1626.492        1.723        0.267      164.789       25.078        0.023      336.168        7.288      872.066
12/23/2013  12:16:00       85.616       71.410       33.662       37.032       27.076       38.172     1371.401      733.115     1457.130        0.856        0.178      111.487       19.726        0.031      336.228        7.388      872.062
12/23/2013  12:17:00       39.877       60.303       49.364       49.188       44.228       46.173     2419.413     1956.087     2131.939        0.708        0.325       72.296       30.723        0.181      336.536        7.902      872.045
12/23/2013  12:18:00       84.046       65.823       68.889       52.433       51.054       43.655     2749.231     2606.544     1905.754        1.170        0.363      106.754       35.224        0.109      336.326        7.552      872.028
12/23/2013  12:19:00       27.249      103.365      116.506       53.685       54.800       34.881     2882.034     3003.038     1216.700        1.605        0.355      106.896       29.781        0.078      336.491        7.828      872.018
12/23/2013  12:20:00       60.724      111.795       99.939       55.869       59.455       49.372     3121.330     3534.954     2437.622        1.763        0.455      127.222       38.796        0.093      336.435        7.735      872.023
12/23/2013  12:21:00       63.500      134.261      112.530       29.645       32.154       27.006      878.801     1033.896      729.329        1.868        0.132      148.520       14.565        0.010      336.346        7.586      872.006
12/23/2013  12:22:00       91.256       88.925       86.905       42.193       43.357       42.480     1780.225     1879.805     1804.509        1.463        0.273      127.418       32.906        0.067      336.395        7.668      871.987
12/23/2013  12:23:00      100.735      120.943       84.844       63.533       36.043       45.604     4036.469     1299.107     2079.726        1.969        0.371      157.400       41.613        0.070      336.392        7.662      871.974
12/23/2013  12:24:00       95.392       86.784       73.268       40.876       44.022       39.648     1670.869     1937.914     1571.972        1.359        0.259      128.962       20.450        0.025      336.422        7.713      871.971
12/23/2013  12:25:00       95.822       54.199       62.866       52.779       33.290       38.739     2785.588     1108.223     1500.721        1.073        0.270      110.089       30.328        0.076      336.503        7.849      871.947
12/23/2013  12:26:00       50.629       34.410       62.807       50.207       46.028       33.389     2520.747     2118.604     1114.824        0.672        0.288       61.216       24.331        0.158      336.515        7.868      871.939
12/23/2013  12:27:00       51.717       40.223       37.586       48.045       53.519       33.549     2308.336     2864.300     1125.530        0.600        0.315       65.517       29.140        0.198      336.685        8.154      871.936
12/23/2013  12:28:00        2.819       37.064       51.636       33.785       52.414       36.339     1141.448     2747.274     1320.556        0.463        0.260       37.171       33.837        0.829      336.783        8.316      871.909
12/23/2013  12:29:00      113.621       56.383       45.322       72.930       56.346       52.494     5318.750     3174.879     2755.607        1.469        0.562      126.842       46.193        0.133      336.437        7.738      871.879
12/23/2013  12:30:00       78.222       56.806       64.893       64.417       59.546       36.818     4149.512     3545.782     1355.566        1.130        0.453       96.673       29.878        0.096      336.655        8.102      871.872
12/23/2013  12:31:00      106.318       69.342       42.978       78.174       50.870       46.279     6111.115     2587.795     2141.771        1.440        0.542      126.932       44.139        0.121      336.618        8.040      871.857
12/23/2013  12:32:00      154.737       87.672        9.439       35.520       32.406       35.878     1261.640     1050.172     1287.259        1.766        0.180      177.847       17.241        0.009      336.369        7.624      871.849
12/23/2013  12:33:00       40.416       64.422       -1.057       43.126       32.328       22.476     1859.865     1045.120      505.178        0.460        0.171       76.050       15.593        0.042      336.561        7.945      871.848
12/23/2013  12:34:00       80.005       66.206       23.677       55.091       41.000       40.846     3035.043     1681.011     1668.411        0.886        0.319      103.846       23.439        0.051      336.719        8.210      871.850
12/23/2013  12:35:00      120.850       90.246       13.495       52.774       44.130       45.311     2785.071     1947.493     2053.127        1.486        0.339      150.828       33.003        0.048      336.584        7.983      871.846
12/23/2013  12:36:00      164.676      123.868       11.682       50.510       38.711       35.493     2551.241     1498.510     1259.780        2.395        0.265      206.061       24.158        0.014      336.355        7.599      871.844
12/23/2013  12:37:00      106.463       93.776       -5.424       46.932       30.057       29.022     2202.578      903.445      842.305        1.205        0.197      141.874       15.495        0.012      336.471        7.796      871.843
12/23/2013  12:38:00      116.722       78.918       15.810       58.030       35.850       34.900     3367.524     1285.224     1217.994        1.299        0.294      140.897       21.765        0.024      336.554        7.934      871.836
12/23/2013  12:39:00       44.772       83.537       90.574       46.858       42.732       34.727     2195.680     1826.063     1205.968        1.121        0.261       94.779       24.420        0.066      336.796        8.339      871.823
12/23/2013  12:40:00      121.750       66.657       -2.773       47.108       30.694       32.018     2219.150      942.121     1025.152        1.173        0.209      138.803       20.467        0.022      336.498        7.839      871.820
12/23/2013  12:41:00       54.941       40.522       -2.481       36.214       33.417       24.763     1311.421     1116.682      613.191        0.385        0.152       68.268       17.761        0.068      336.738        8.242      871.828
12/23/2013  12:42:00       20.992       44.708        5.979       32.859       32.112       24.386     1079.698     1031.156      594.678        0.259        0.135       49.391       17.060        0.119      336.815        8.370      871.822
12/23/2013  12:43:00       12.216       47.148       14.976       30.323       41.724       26.198      919.497     1740.876      686.320        0.297        0.167       48.704       25.553        0.275      336.903        8.516      871.802
12/23/2013  12:44:00       34.767       24.372       34.536       37.421       28.169       23.981     1400.300      793.499      575.088        0.288        0.138       42.458       20.826        0.241      337.246        9.090      871.800
12/23/2013  12:45:00       84.406       57.497       16.937       57.299       39.065       32.665     3283.162     1526.095     1066.999        0.830        0.294      102.129       29.645        0.084      336.942        8.583      871.792
12/23/2013  12:46:00       68.715       51.574       32.201       43.303       31.856       34.023     1875.184     1014.776     1157.562        0.623        0.202       85.917       11.246        0.017      336.918        8.541      871.781
12/23/2013  12:47:00       94.322       89.467       74.356       58.979       45.824       51.868     3478.472     2099.867     2690.283        1.535        0.413      130.004       42.213        0.105      336.791        8.331      871.759
12/23/2013  12:48:00       29.256      -46.711       20.483       23.054       40.258       26.547      531.500     1620.725      704.729        0.316        0.143       55.117       17.191        0.097      336.955        8.604      871.759
12/23/2013  12:49:00       19.414       -8.107       30.194       31.145       64.512       38.505      970.031     4161.743     1482.663        0.398        0.331       21.039       31.883        2.296      337.230        9.064      871.746
12/23/2013  12:50:00       34.547       -9.791       22.099       36.211       38.641       30.727     1311.269     1493.124      944.121        0.276        0.187       35.907       15.187        0.179      337.180        8.980      871.731
12/23/2013  12:51:00       87.781       36.757       17.488       50.648       36.847       32.380     2565.195     1357.733     1048.451        0.717        0.249       95.166       23.723        0.062      336.856        8.438      871.725
12/23/2013  12:52:00       72.966       72.875       68.952       70.976       56.568       53.823     5037.603     3199.990     2896.949        1.326        0.557      103.125       43.025        0.174      336.762        8.280      871.706
12/23/2013  12:53:00      142.054      116.839       65.155       44.169       40.759       50.220     1950.918     1661.257     2522.043        2.210        0.307      183.931       36.243        0.039      336.604        8.017      871.682
12/23/2013  12:54:00       77.445       88.084       92.651       85.338       46.308       44.841     7282.554     2144.471     2010.696        1.689        0.572      117.288       48.763        0.173      336.863        8.449      871.662
12/23/2013  12:55:00       78.056       63.132       50.628       73.456       58.162       43.465     5395.783     3382.872     1889.221        1.165        0.533      100.391       28.062        0.078      336.949        8.594      871.651
12/23/2013  12:56:00       15.542       62.566       72.851       50.929       41.539       34.895     2593.784     1725.468     1217.656        0.750        0.277       64.467       29.678        0.212      337.220        9.046      871.647
12/23/2013  12:57:00        9.612       51.241       81.586       50.918       48.400       27.796     2592.684     2342.515      772.605        0.754        0.285       52.135       27.814        0.285      337.208        9.027      871.617
12/23/2013  12:58:00       22.284       66.907       69.641       55.049       40.358       31.698     3030.349     1628.760     1004.752        0.774        0.283       70.520       20.158        0.082      337.229        9.062      871.609
12/23/2013  12:59:00       40.421       50.096       52.609       49.845       27.515       28.596     2484.522      757.091      817.714        0.548        0.203       64.370       25.900        0.162      337.018        8.710      871.593
12/23/2013  13:00:00       79.742       90.207       59.734       74.331       39.071       57.107     5525.069     1526.513     3261.184        1.419        0.516      120.400       53.591        0.198      336.979        8.645      871.569
12/23/2013  13:01:00       29.668       93.594       80.339       45.585       39.144       44.281     2078.002     1532.281     1960.834        1.083        0.279       98.183       36.723        0.140      336.951        8.596      871.543
12/23/2013  13:02:00       42.194       45.979       55.100       25.975       67.706       38.143      674.712     4584.165     1454.893        0.682        0.336       62.405       45.408        0.529      336.953        8.601      871.528
12/23/2013  13:03:00       63.293      -32.575        6.783       32.585       27.717       25.964     1061.758      768.236      674.117        0.381        0.125       71.184       19.765        0.077      336.961        8.613      871.518
12/23/2013  13:04:00       14.008       60.685       81.455       51.342       70.575       53.373     2636.019     4980.793     2848.698        1.049        0.523       62.281       58.667        0.887      337.018        8.709      871.500
12/23/2013  13:05:00       32.272      115.326       99.184       38.308       56.424       42.836     1467.485     3183.652     1834.944        1.533        0.324      119.756       38.153        0.102      336.863        8.450      871.481
12/23/2013  13:06:00       62.650       52.814       13.141       51.196       35.647       37.196     2621.076     1270.674     1383.555        0.608        0.264       81.941       38.213        0.217      336.813        8.367      871.482
12/23/2013  13:07:00       52.288      -52.623       -4.087       49.923       33.157       21.533     2492.271     1099.386      463.665        0.479        0.203       74.184       19.577        0.070      337.032        8.734      871.479
12/23/2013  13:08:00       -1.115       18.251       35.116       31.996       31.351       31.670     1023.747      982.872     1002.970        0.229        0.150       18.285       17.543        0.920      337.399        9.348      871.474
12/23/2013  13:09:00       -9.717       48.025       85.668       18.445       43.844       23.000      340.222     1922.312      529.016        0.627        0.140       48.998       25.816        0.278      337.380        9.316      871.457
12/23/2013  13:10:00       36.250       61.371       66.171       53.439       41.920       49.616     2855.725     1757.286     2461.708        0.827        0.354       71.277       50.407        0.500      337.030        8.728      871.467
12/23/2013  13:11:00       60.467       50.760       10.695       60.771       38.480       31.046     3693.096     1480.719      963.881        0.624        0.307       78.948       34.483        0.191      336.980        8.644      871.474
12/23/2013  13:12:00       57.443       35.128       29.100       52.906       32.970       30.289     2799.027     1087.001      917.430        0.509        0.240       67.332       13.920        0.043      337.042        8.750      871.465
12/23/2013  13:13:00       78.634       40.311       42.861       62.057       39.935       32.621     3851.048     1594.825     1064.102        0.808        0.325       88.364       29.969        0.115      337.006        8.688      871.455
12/23/2013  13:14:00       24.951       62.739       65.452       41.374       51.446       50.932     1711.832     2646.668     2594.076        0.790        0.348       67.518       48.537        0.517      337.182        8.982      871.420
12/23/2013  13:15:00      108.776       82.328       42.366       82.067       48.831       46.605     6735.037     2384.480     2172.004        1.585        0.565      136.419       43.103        0.100      337.146        8.921      871.417
12/23/2013  13:16:00       50.865       64.289       62.489       51.896       51.496       40.739     2693.183     2651.889     1659.688        0.881        0.350       81.978       34.188        0.174      337.206        9.024      871.417
12/23/2013  13:17:00       62.168       12.497       25.259       32.080       26.764       30.034     1029.103      716.293      902.065        0.365        0.132       63.412       26.142        0.170      337.035        8.737      871.427
12/23/2013  13:18:00       24.561       25.510       10.020       28.414       21.288       29.664      807.363      453.177      879.976        0.175        0.107       35.411       22.397        0.400      337.099        8.844      871.404
12/23/2013  13:19:00        5.003       20.880       33.302       27.325       22.399       26.224      746.638      501.696      687.681        0.175        0.097       21.471       19.028        0.785      337.338        9.245      871.395
12/23/2013  13:20:00        6.527      -78.466      -13.550       23.972       33.305       22.538      574.639     1109.227      507.953        0.429        0.110       78.737       10.344        0.017      337.066        8.789      871.382
12/23/2013  13:21:00       32.768       19.778       26.001       31.301       26.371       17.740      979.775      695.410      314.704        0.207        0.099       38.274       13.955        0.133      337.443        9.421      871.367
12/23/2013  13:22:00       23.992       36.334       35.889       26.965       19.207       28.811      727.089      368.920      830.046        0.255        0.096       43.540       23.094        0.281      337.393        9.337      871.350
12/23/2013  13:23:00       39.108       69.404       70.041       44.723       34.246       29.936     2000.140     1172.761      896.176        0.766        0.203       79.664       24.124        0.092      337.334        9.237      871.326
12/23/2013  13:24:00       83.214       70.056       57.400       42.458       39.536       45.301     1802.718     1563.073     2052.196        1.027        0.271      108.777       35.132        0.104      337.096        8.839      871.309
12/23/2013  13:25:00       28.447       20.465       21.654       22.010       37.068       21.411      484.454     1374.031      458.421        0.201        0.116       35.044       21.279        0.369      337.189        8.996      871.310
12/23/2013  13:26:00        8.942      -23.154       11.215       37.955       38.834       19.172     1440.561     1508.097      367.564        0.203        0.166       24.821       18.960        0.584      337.241        9.081      871.305
12/23/2013  13:27:00       54.358      -28.406       11.207       27.342       20.995       19.187      747.592      440.790      368.141        0.272        0.078       61.333       14.752        0.058      337.074        8.803      871.301
12/23/2013  13:28:00       62.721       16.270       31.749       35.303       62.951       38.361     1246.324     3962.882     1471.588        0.594        0.334       64.797       42.363        0.427      337.042        8.749      871.307
12/23/2013  13:29:00       84.995       63.634       45.983       24.550       48.369       36.802      602.723     2339.543     1354.361        0.884        0.215      106.176       31.669        0.089      337.057        8.773      871.310
12/23/2013  13:30:00       61.427        6.653       11.150       33.187       22.453       23.063     1101.379      504.140      531.918        0.304        0.107       61.786       15.810        0.065      337.078        8.809      871.299
12/23/2013  13:31:00       71.228       18.743       19.385       17.929       20.535       23.000      321.456      421.679      529.001        0.354        0.064       73.653       11.782        0.026      337.140        8.913      871.290
12/23/2013  13:32:00      132.785       87.933        0.893       55.342       42.392       33.529     3062.709     1797.093     1124.191        1.567        0.299      159.261       17.217        0.012      337.197        9.008      871.280
12/23/2013  13:33:00       63.354       37.810       38.760       42.771       54.130       31.400     1829.324     2930.102      985.939        0.634        0.287       73.779       15.322        0.043      337.371        9.300      871.270
12/23/2013  13:34:00        6.078        0.891       18.351       22.509       27.877       20.837      506.668      777.110      434.190        0.105        0.086        6.143       21.648       12.421      337.597        9.678      871.246
12/23/2013  13:35:00       21.555      -14.209       16.548       18.872       30.209       14.704      356.141      912.560      216.202        0.121        0.074       25.817       10.748        0.173      337.406        9.358      871.242
12/23/2013  13:36:00       37.999      -32.760        5.272       30.952       39.923       19.048      958.007     1593.832      362.808        0.273        0.146       50.171       22.736        0.205      337.321        9.217      871.235
12/23/2013  13:37:00       12.106       21.420       12.360       17.055       17.034       17.108      290.861      290.149      292.698        0.082        0.044       24.604        5.589        0.052      337.399        9.347      871.219
12/23/2013  13:38:00        2.533       37.850       45.690       20.612       36.446       38.128      424.851     1328.315     1453.745        0.337        0.160       37.934       29.025        0.585      337.626        9.727      871.204
12/23/2013  13:39:00       80.452       82.335       40.714       41.721       29.555       35.147     1740.636      873.485     1235.313        0.938        0.192      115.115       31.350        0.074      337.250        9.098      871.206
12/23/2013  13:40:00       28.389       15.046        6.209       33.758       29.015       18.912     1139.600      841.898      357.653        0.170        0.117       32.130       19.373        0.364      337.389        9.330      871.198
12/23/2013  13:41:00       38.004       47.480       42.845       21.872       19.972       25.443      478.374      398.861      647.327        0.353        0.076       60.817       13.724        0.051      337.432        9.402      871.186
12/23/2013  13:42:00       49.013        7.704       33.051       54.703       60.526       34.090     2992.462     3663.454     1162.116        0.568        0.391       49.615       36.877        0.552      337.494        9.505      871.183
12/23/2013  13:43:00      102.477       82.252       31.281       26.294       20.427       26.416      691.384      417.276      697.827        1.003        0.090      131.403       13.409        0.010      337.197        9.009      871.182
12/23/2013  13:44:00       76.489       72.816       41.478       40.805       39.996       30.077     1665.086     1599.650      904.646        0.852        0.208      105.607       26.078        0.061      337.512        9.536      871.161
12/23/2013  13:45:00        0.407       -4.047       54.296       25.907       60.153       32.728      671.170     3618.430     1071.146        0.416        0.268        4.067       31.783       61.065      337.741        9.921      871.160
12/23/2013  13:46:00       15.608       83.074      104.352       41.590       49.947       33.907     1729.753     2494.741     1149.658        1.170        0.269       84.527       32.062        0.144      337.409        9.365      871.153
12/23/2013  13:47:00       67.571       84.401       48.782       37.977       35.590       43.756     1442.250     1266.620     1914.596        0.935        0.231      108.117       37.061        0.118      337.302        9.185      871.149
12/23/2013  13:48:00       30.535       -4.741        7.985       22.078       33.408       17.442      487.431     1116.093      304.234        0.146        0.095       30.901       16.947        0.301      337.334        9.239      871.149
12/23/2013  13:49:00       -5.811      -26.232       -1.148       10.246       17.488       15.307      104.981      305.815      234.304        0.068        0.032       26.868        4.632        0.030      337.465        9.458      871.146
12/23/2013  13:50:00       20.971       -1.749        6.549       36.566       13.848       17.133     1337.042      191.756      293.532        0.115        0.091       21.044       13.555        0.415      337.596        9.677      871.135
12/23/2013  13:51:00       82.391      -10.109       10.290       25.397       19.845       21.536      644.984      393.839      463.814        0.425        0.075       83.009       10.536        0.016      337.383        9.322      871.128
12/23/2013  13:52:00       22.420       55.084       75.848       41.237       46.728       33.995     1700.504     2183.545     1155.682        0.716        0.252       59.472       33.488        0.317      337.727        9.895      871.120
12/23/2013  13:53:00       62.372       29.961       45.506       30.790       34.313       25.066      948.007     1177.364      628.318        0.481        0.138       69.195       18.441        0.071      337.462        9.453      871.121
12/23/2013  13:54:00       47.825       12.352       20.800       39.875       39.725       30.854     1590.009     1578.094      951.975        0.350        0.206       49.395       34.905        0.499      337.512        9.536      871.113
12/23/2013  13:55:00       45.831       59.055       66.509       50.025       43.815       26.532     2502.504     1919.743      703.950        0.757        0.256       74.753       15.556        0.043      337.620        9.719      871.098
12/23/2013  13:56:00       70.045       72.312       61.902       53.426       45.258       42.761     2854.290     2048.286     1828.505        1.035        0.337      100.674       39.627        0.155      337.525        9.558      871.092
12/23/2013  13:57:00       94.255       52.162       20.069       33.227       29.995       28.623     1104.044      899.681      819.283        0.741        0.141      107.726       10.400        0.009      337.464        9.457      871.078
12/23/2013  13:58:00       50.653       58.764       47.456       44.840       37.519       33.970     2010.606     1407.696     1153.937        0.642        0.229       77.582       26.858        0.120      337.628        9.730      871.056
12/23/2013  13:59:00       73.839       65.204       33.624       54.022       35.328       34.409     2918.337     1248.067     1183.961        0.809        0.268       98.507       29.406        0.089      337.551        9.602      871.054
12/23/2013  14:00:00       41.195       38.391       45.916       53.992       50.582       36.930     2915.095     2558.536     1363.802        0.606        0.342       56.311       31.464        0.312      337.791       10.005      871.054
12/23/2013  14:01:00       16.892       44.167       72.244       57.713       80.456       57.499     3330.847     6473.114     3306.153        1.028        0.656       47.287       61.510        1.692      337.925       10.228      871.041
12/23/2013  14:02:00      120.205       56.224       47.920       66.388       51.127       60.848     4407.349     2613.953     3702.438        1.531        0.536      132.704       49.031        0.137      337.601        9.685      871.042
12/23/2013  14:03:00       90.662       75.453       76.708       54.929       36.915       30.509     3017.211     1362.705      930.797        1.255        0.266      117.952       16.640        0.020      337.678        9.814      871.048
12/23/2013  14:04:00       15.825        7.728       41.422       33.091       51.968       32.163     1095.042     2700.722     1034.446        0.343        0.242       17.611       29.923        2.887      337.912       10.208      871.044
12/23/2013  14:05:00       39.458       19.077       40.759       54.989       56.561       45.669     3023.779     3199.092     2085.687        0.594        0.415       43.828       44.054        1.010      337.859       10.118      871.036
12/23/2013  14:06:00       70.156       65.905       49.912       65.751       39.210       33.072     4323.254     1537.430     1093.748        0.935        0.348       96.256       26.573        0.076      337.754        9.942      871.028
12/23/2013  14:07:00       80.026       40.630       45.035       58.613       44.626       41.628     3435.491     1991.450     1732.894        0.862        0.358       89.749       40.632        0.205      337.689        9.833      871.019
12/23/2013  14:08:00       71.984       73.136       69.539       60.689       56.091       46.991     3683.191     3146.222     2208.176        1.220        0.452      102.619       43.988        0.184      337.699        9.850      871.005
12/23/2013  14:09:00       65.990       77.585       56.397       48.342       35.318       36.888     2336.938     1247.392     1360.759        0.925        0.247      101.853       29.747        0.085      337.720        9.885      870.995
12/23/2013  14:10:00       81.389       83.587       63.275       63.649       47.164       40.732     4051.226     2224.472     1659.076        1.277        0.397      116.667       38.503        0.109      337.736        9.911      870.992
12/23/2013  14:11:00       47.307       29.434       41.707       53.605       48.096       33.306     2873.467     2313.225     1109.301        0.557        0.315       55.717       31.487        0.319      337.871       10.138      870.990
12/23/2013  14:12:00      116.434       70.646       30.767       30.014       23.304       31.626      900.839      543.093     1000.187        1.097        0.122      136.190       21.505        0.025      337.730        9.902      870.989
12/23/2013  14:13:00       86.686       45.903       28.130       41.396       37.100       28.793     1713.646     1376.431      829.040        0.717        0.196       98.089       20.956        0.046      337.705        9.858      870.984
12/23/2013  14:14:00       76.396       45.333       27.231       30.172       25.889       23.186      910.331      670.262      537.611        0.538        0.106       88.833       12.665        0.020      337.939       10.252      870.983
12/23/2013  14:15:00       80.648       79.679       41.657       50.041       29.513       39.942     2504.147      871.018     1595.337        0.978        0.249      113.371       36.183        0.102      337.877       10.149      870.988
12/23/2013  14:16:00       76.296       63.423       48.643       42.783       31.480       28.959     1830.398      990.986      838.614        0.793        0.183       99.215       21.911        0.049      337.941       10.256      870.988
12/23/2013  14:17:00       51.264       67.023       54.605       36.521       33.088       32.877     1333.757     1094.830     1080.873        0.680        0.175       84.380       27.192        0.104      337.893       10.176      870.981
12/23/2013  14:18:00       91.410       74.954       24.160       17.745       14.732       17.232      314.886      217.042      296.933        0.769        0.041      118.211        6.160        0.003      337.688        9.830      870.967
12/23/2013  14:19:00       73.986       77.888       62.022       48.616       35.436       34.832     2363.471     1255.716     1213.296        1.011        0.242      107.426       26.873        0.063      337.834       10.076      870.961
12/23/2013  14:20:00       55.711       21.293       29.668       28.238       22.039       32.625      797.367      485.700     1064.381        0.339        0.117       59.641       10.796        0.033      337.780        9.985      870.965
12/23/2013  14:21:00       31.719       27.900       20.525       23.469       21.826       15.424      550.774      476.391      237.910        0.174        0.063       42.243       14.109        0.112      337.900       10.186      870.966
12/23/2013  14:22:00       21.101       25.462       25.302       26.683       27.722       24.533      711.977      768.509      601.881        0.191        0.104       33.070       21.678        0.430      338.070       10.473      870.968
12/23/2013  14:23:00        6.593        9.630       -9.474       18.309       16.189       16.038      335.228      262.086      257.208        0.054        0.043       11.671       13.594        1.357      338.103       10.527      870.969
12/23/2013  14:24:00       -2.202      -10.801        7.507       12.167       25.537       16.985      148.027      652.114      288.492        0.063        0.054       11.023        6.686        0.368      338.590       11.345      870.963
12/23/2013  14:25:00       12.242      -27.296       18.483       27.639       41.457       30.780      763.923     1718.652      947.403        0.233        0.171       29.916       29.366        0.964      338.326       10.901      870.967
12/23/2013  14:26:00       35.708       19.220       37.442       39.298       20.952       33.374     1544.357      439.005     1113.852        0.307        0.155       40.553       21.326        0.277      338.102       10.526      870.975
12/23/2013  14:27:00       27.561       24.731       35.578       29.271       28.948       32.303      856.792      837.959     1043.461        0.269        0.137       37.030       23.252        0.394      338.175       10.648      870.992
12/23/2013  14:28:00        7.145        3.267       19.591       20.748       23.670       20.800      430.460      560.272      432.638        0.093        0.071        7.857       16.707        4.522      338.316       10.884      870.994
12/23/2013  14:29:00       15.339       27.165       24.457       22.087       16.759       17.270      487.853      280.863      298.262        0.132        0.053       31.196       14.067        0.203      338.076       10.482      870.988
12/23/2013  14:30:00       -5.285      -45.627       -0.925       37.729       47.791       24.596     1423.497     2283.941      604.975        0.321        0.216       45.932       22.417        0.238      338.309       10.873      870.979
12/23/2013  14:31:00       24.502      -81.603       -7.935       25.250       21.913       27.250      637.575      480.167      742.574        0.459        0.093       85.202       15.767        0.034      338.155       10.614      870.971
12/23/2013  14:32:00       48.920      -57.304      -11.871       21.832       30.622       18.196      476.630      937.728      331.107        0.378        0.087       75.346       10.773        0.020      338.125       10.564      870.973
12/23/2013  14:33:00       12.918      -28.339        9.738       23.314       24.989       27.049      543.563      624.460      731.632        0.148        0.095       31.145       14.366        0.213      338.331       10.910      870.973
12/23/2013  14:34:00       23.891       26.335       38.123       45.754       33.358       31.035     2093.433     1112.782      963.142        0.344        0.208       35.557       21.429        0.363      338.194       10.679      870.971
12/23/2013  14:35:00       64.844       32.130       31.574       38.671       40.863       35.726     1495.446     1669.760     1276.336        0.534        0.222       72.368       35.203        0.237      338.070       10.472      870.976
12/23/2013  14:36:00       71.612       57.525       63.238       37.932       39.147       33.323     1438.805     1532.497     1110.436        0.826        0.204       91.856       25.687        0.078      338.049       10.437      870.982
12/23/2013  14:37:00       26.217      -11.863       28.694       38.530       43.372       29.509     1484.563     1881.144      870.758        0.294        0.212       28.776       23.888        0.689      338.258       10.787      870.986
12/23/2013  14:38:00       20.063       16.522       34.774       32.782       52.410       24.774     1074.676     2746.764      613.753        0.316        0.222       25.990       31.354        1.455      338.302       10.862      870.996
12/23/2013  14:39:00       69.893      -27.498       20.402       37.357       33.577       25.518     1395.568     1127.399      651.176        0.462        0.159       75.108       26.141        0.121      338.123       10.560      871.002
12/23/2013  14:40:00       60.131       -6.286       -2.363       27.649       19.813       19.419      764.442      392.549      377.085        0.260        0.077       60.459       11.252        0.035      337.982       10.324      871.003
12/23/2013  14:41:00       60.796       46.640       32.315       28.494       21.099       19.032      811.882      445.155      362.214        0.427        0.081       76.625       14.225        0.034      338.089       10.503      871.007
12/23/2013  14:42:00       26.560       35.220       57.210       36.685       25.239       24.028     1345.805      637.009      577.365        0.389        0.128       44.113       19.664        0.199      338.252       10.777      871.013
12/23/2013  14:43:00       48.135       64.074       47.098       36.234       27.723       31.094     1312.890      768.591      966.806        0.584        0.152       80.140       21.855        0.074      338.089       10.503      871.023
12/23/2013  14:44:00       21.976       -4.182        6.986       15.335       18.593       20.737      235.164      345.695      430.006        0.078        0.051       22.370       15.797        0.499      338.196       10.683      871.031
12/23/2013  14:45:00       20.692       26.711       23.758       14.800       21.607       17.281      219.041      466.859      298.631        0.135        0.049       33.787       14.299        0.179      338.210       10.706      871.031
12/23/2013  14:46:00       22.539       29.480        5.649       20.036       10.831       14.061      401.460      117.318      197.709        0.106        0.036       37.109        6.147        0.027      338.213       10.711      871.032
12/23/2013  14:47:00        5.410       26.378       16.807       10.946       19.483       26.144      119.808      379.596      683.492        0.110        0.059       26.927       19.279        0.513      338.335       10.916      871.034
12/23/2013  14:48:00        1.519       23.281       38.955       31.313       55.851       33.882      980.526     3119.298     1147.982        0.365        0.262       23.330       33.270        2.034      338.387       11.005      871.041
12/23/2013  14:49:00       25.580       36.899       21.169       21.570       23.343       26.247      465.263      544.882      688.930        0.208        0.085       44.899       11.466        0.065      338.305       10.866      871.051
12/23/2013  14:50:00       35.110       37.117       51.335       42.894       29.929       21.642     1839.900      895.739      468.373        0.422        0.160       51.091       15.169        0.088      338.384       10.999      871.055
12/23/2013  14:51:00       -7.683       12.923       36.921       11.475       32.952       23.172      131.676     1085.857      536.941        0.167        0.088       15.034       22.999        2.340      338.717       11.558      871.055
12/23/2013  14:52:00       42.636       59.382       40.441       37.976       24.421       36.346     1442.140      596.374     1321.010        0.517        0.168       73.103       22.634        0.096      338.302       10.861      871.058
12/23/2013  14:53:00        9.152        2.282       12.462       16.487       18.920       20.693      271.817      357.961      428.182        0.065        0.053        9.432       13.729        2.119      338.618       11.392      871.062
12/23/2013  14:54:00       39.643       32.995       26.920       16.607       11.388       15.354      275.784      129.689      235.755        0.201        0.032       51.577       10.454        0.041      338.254       10.779      871.066
12/23/2013  14:55:00       29.436       28.018       24.704       32.322       23.248       13.000     1044.738      540.484      168.992        0.201        0.088       40.639        9.692        0.057      338.499       11.194      871.065
12/23/2013  14:56:00       42.360       49.316       42.477       34.037       27.496       29.036     1158.495      756.048      843.112        0.439        0.138       65.011       22.352        0.118      338.238       10.753      871.065
12/23/2013  14:57:00        1.515      -23.728       13.857       18.532       36.481       19.398      343.427     1330.854      376.295        0.140        0.103       23.777       15.039        0.400      338.579       11.326      871.070
12/23/2013  14:58:00       27.788      -27.593       26.907       32.878       62.700       40.168     1080.952     3931.295     1613.456        0.444        0.331       39.160       46.639        1.418      338.412       11.047      871.079
12/23/2013  14:59:00       41.906       18.725       39.298       31.631       53.583       33.988     1000.517     2871.124     1155.174        0.434        0.251       45.899       32.061        0.488      338.321       10.894      871.105
12/23/2013  15:00:00       14.385       16.987       28.307       17.471       25.493       19.493      305.221      649.889      379.978        0.132        0.067       22.260        9.078        0.166      338.515       11.220      871.125
12/23/2013  15:01:00       44.724       27.495       14.617       25.101       13.366       19.599      630.085      178.642      384.115        0.208        0.060       52.500       16.302        0.096      338.396       11.019      871.144
12/23/2013  15:02:00       40.610       24.529       26.769       23.513       19.641       17.759      552.849      385.753      315.383        0.211        0.063       47.443        8.585        0.033      338.377       10.986      871.155
12/23/2013  15:03:00       60.829       13.770        3.323       43.350       32.583       14.732     1879.233     1061.657      217.039        0.353        0.158       62.368        6.691        0.012      338.263       10.794      871.156
12/23/2013  15:04:00       36.841       25.643       16.960       40.594       30.236       25.141     1647.876      914.225      632.088        0.275        0.160       44.887       25.835        0.331      338.449       11.108      871.161
12/23/2013  15:05:00       44.414       45.869       12.952       20.756       18.012       21.924      430.802      324.439      480.665        0.274        0.062       63.848       13.555        0.045      338.352       10.945      871.178
12/23/2013  15:06:00       24.871        1.420       17.980       31.805       29.163       19.357     1011.536      850.479      374.712        0.159        0.112       24.911       21.253        0.728      338.567       11.306      871.191
12/23/2013  15:07:00       33.418       30.524       31.199       27.116       24.810       23.032      735.292      615.538      530.488        0.245        0.094       45.260       12.587        0.077      338.471       11.145      871.205
12/23/2013  15:08:00       44.332       45.874       22.026       43.249       20.247       39.051     1870.460      409.931     1525.007        0.418        0.190       63.794       30.200        0.224      338.409       11.040      871.213
12/23/2013  15:09:00       17.437       19.690        4.146       20.884       17.842       16.899      436.128      318.327      285.581        0.087        0.052       26.301        9.557        0.132      338.365       10.967      871.223
12/23/2013  15:10:00       26.451       25.968        1.908       31.468       27.626       19.153      990.216      763.193      366.835        0.175        0.106       37.067       15.201        0.168      338.355       10.951      871.220
12/23/2013  15:11:00       33.815       14.347        2.071       32.422       27.724       20.876     1051.198      768.627      435.825        0.180        0.113       36.733       12.445        0.115      338.384       10.999      871.225
12/23/2013  15:12:00       30.096       18.095        6.070       31.168       26.117       16.398      971.470      682.106      268.899        0.160        0.096       35.117        9.220        0.069      338.432       11.080      871.235
12/23/2013  15:13:00       11.164       33.213       -9.001       16.907       11.066        7.142      285.850      122.463       51.009        0.088        0.023       35.039        5.766        0.027      338.432       11.080      871.240
12/23/2013  15:14:00       -3.089       41.728       -7.913        7.255       16.235        5.787       52.632      263.584       33.484        0.108        0.017       41.842        2.533        0.004      338.455       11.119      871.240
12/23/2013  15:15:00        1.621       41.407       -6.594       12.435       15.851       12.458      154.635      251.238      155.207        0.116        0.028       41.438       11.570        0.078      338.464       11.133      871.247
12/23/2013  15:16:00        9.503        3.741       10.313       15.937        8.921       12.795      253.975       79.591      163.703        0.035        0.025       10.213        9.522        0.869      338.737       11.592      871.248
12/23/2013  15:17:00       56.688       15.721       25.306       30.488       30.936       24.286      929.525      957.016      589.820        0.329        0.124       58.828       24.036        0.167      338.502       11.196      871.247
12/23/2013  15:18:00       63.167        0.543       23.561       31.707       21.598       25.797     1005.339      466.471      665.499        0.334        0.107       63.169       18.007        0.081      338.441       11.095      871.260
12/23/2013  15:19:00       18.468       10.580       38.196       24.222       41.135       18.066      586.697     1692.102      326.386        0.226        0.130       21.284       23.728        1.243      338.629       11.411      871.266
12/23/2013  15:20:00       45.180       42.725       39.946       40.495       23.709       28.687     1639.806      562.135      822.919        0.424        0.151       62.183       27.963        0.202      338.505       11.203      871.284
12/23/2013  15:21:00       54.634       24.170       31.342       32.273       37.895       34.163     1041.515     1436.055     1167.082        0.410        0.182       59.742       32.926        0.304      338.509       11.208      871.300
12/23/2013  15:22:00        8.968       63.958       72.504       20.542       49.860       29.460      421.956     2486.057      867.917        0.660        0.189       64.583       35.571        0.303      338.598       11.358      871.305
12/23/2013  15:23:00       16.765       53.268       64.271       28.414       23.770       12.660      807.372      565.021      160.278        0.439        0.077       55.844        9.499        0.029      338.626       11.404      871.317
12/23/2013  15:24:00       13.945       65.040       70.302       28.319       27.780       21.318      801.953      771.725      454.471        0.570        0.101       66.518       15.169        0.052      338.624       11.404      871.321
12/23/2013  15:25:00       86.110       70.794       36.839       26.238       20.516       25.831      688.443      420.917      667.237        0.778        0.089      111.476       16.480        0.022      338.557       11.291      871.329
12/23/2013  15:26:00       41.533       51.781       43.322       36.920       42.000       34.214     1363.076     1763.979     1170.611        0.529        0.215       66.380       28.264        0.181      338.595       11.352      871.340
12/23/2013  15:27:00       41.437       14.149       31.271       41.672       36.239       26.541     1736.526     1313.271      704.415        0.332        0.188       43.786       20.035        0.209      338.593       11.350      871.352
12/23/2013  15:28:00       40.906       34.809       17.698       37.136       31.718       17.760     1379.108     1006.055      315.404        0.295        0.135       53.712       15.218        0.080      338.669       11.479      871.365
12/23/2013  15:29:00       24.321      -35.188       19.144       37.367       45.801       26.581     1396.328     2097.739      706.575        0.320        0.210       42.775       26.672        0.389      338.766       11.639      871.374
12/23/2013  15:30:00       78.384       -7.038       34.007       53.729       36.179       29.867     2886.797     1308.926      892.049        0.622        0.254       78.699       24.838        0.100      338.558       11.292      871.386
12/23/2013  15:31:00       29.424       41.039       63.959       32.427       42.647       33.596     1051.516     1818.744     1128.709        0.532        0.200       50.497       31.098        0.379      338.605       11.369      871.395
12/23/2013  15:32:00       55.489       -3.507       25.203       56.864       36.992       29.657     3233.518     1368.427      879.545        0.460        0.274       55.600       30.935        0.310      338.616       11.388      871.405
12/23/2013  15:33:00       42.520       53.244       32.083       32.120       17.132       17.915     1031.703      293.518      320.952        0.366        0.082       68.139       12.166        0.032      338.506       11.204      871.413
12/23/2013  15:34:00       51.177       52.979       59.329       50.170       38.846       32.345     2517.007     1508.999     1046.223        0.701        0.254       73.660       29.204        0.157      338.600       11.362      871.422
12/23/2013  15:35:00       74.577       38.585       26.690       43.373       39.351       27.980     1881.246     1548.463      782.892        0.599        0.211       83.968       25.056        0.089      338.561       11.297      871.424
12/23/2013  15:36:00       51.587       34.188       30.308       44.576       32.191       18.957     1986.997     1036.280      359.379        0.407        0.169       61.888       19.755        0.102      338.635       11.420      871.423
12/23/2013  15:37:00       22.409      -43.680       17.642       17.838       59.704       24.503      318.195     3564.589      600.409        0.360        0.224       49.093       33.468        0.465      338.715       11.553      871.424
12/23/2013  15:38:00        9.386       -9.334       11.604       21.970       33.910       16.394      482.674     1149.904      268.773        0.111        0.095       13.238        9.255        0.489      338.786       11.674      871.426
12/23/2013  15:39:00       36.544       51.957       48.644       45.540       52.474       34.364     2073.853     2753.541     1180.901        0.620        0.300       63.522       37.724        0.353      338.587       11.340      871.428
12/23/2013  15:40:00       59.523       53.939       48.690       51.147       37.620       32.455     2616.002     1415.283     1053.339        0.695        0.254       80.327       21.873        0.074      338.555       11.287      871.421
12/23/2013  15:41:00       23.489      -25.608       27.225       35.253       47.693       29.920     1242.801     2274.657      895.203        0.318        0.221       34.749       26.250        0.571      338.703       11.534      871.418
12/23/2013  15:42:00       88.384       13.979       43.898       51.954       40.653       31.292     2699.187     1652.674      979.162        0.763        0.267       89.483       32.230        0.130      338.546       11.272      871.418
12/23/2013  15:43:00       20.623        7.331       42.573       38.564       44.208       29.527     1487.159     1954.348      871.817        0.330        0.216       21.888       15.756        0.518      338.654       11.450      871.410
12/23/2013  15:44:00       65.182      -38.220       11.395       55.640       76.288       46.125     3095.778     5819.811     2127.475        0.844        0.552       75.561       57.785        0.585      338.562       11.299      871.406
12/23/2013  15:45:00       52.754       -8.622       29.352       45.687       53.579       48.968     2087.345     2870.744     2397.913        0.554        0.368       53.453       48.363        0.819      338.607       11.373      871.401
12/23/2013  15:46:00       41.428      -47.518       14.770       39.503       50.885       30.990     1560.466     2589.286      960.351        0.465        0.256       63.042       31.581        0.251      338.630       11.412      871.413
12/23/2013  15:47:00       59.589      -66.971       -1.874       39.123       54.208       27.505     1530.614     2938.460      756.534        0.663        0.261       89.643       25.437        0.081      338.630       11.412      871.428
12/23/2013  15:48:00       84.823      -54.229        5.434       24.641       23.914       21.910      607.179      571.903      480.048        0.591        0.083      100.676       10.857        0.012      338.562       11.299      871.448
12/23/2013  15:49:00       21.252        4.738       11.942       23.151       20.395       16.125      535.954      415.961      260.015        0.091        0.061       21.773       18.844        0.749      338.620       11.396      871.460
12/23/2013  15:50:00       23.143       19.764       29.362       18.061       30.266       18.400      326.214      916.022      338.575        0.168        0.079       30.434       10.582        0.121      338.561       11.296      871.480
12/23/2013  15:51:00       47.988       28.898       28.917       40.028       28.468       26.100     1602.246      810.438      681.200        0.353        0.155       56.017       29.176        0.271      338.539       11.259      871.503
12/23/2013  15:52:00       29.029       20.028       34.394       34.675       30.832       19.952     1202.354      950.608      398.094        0.249        0.128       35.268       15.497        0.193      338.566       11.303      871.528
12/23/2013  15:53:00       61.726       43.527       20.742       28.734       21.292       19.213      825.654      453.351      369.157        0.389        0.082       75.530        8.885        0.014      338.551       11.280      871.546
12/23/2013  15:54:00       53.165       38.140       37.726       21.879       23.371       17.803      478.680      546.186      316.958        0.352        0.067       65.430       13.391        0.042      338.519       11.226      871.559
12/23/2013  15:55:00        6.033       36.570       49.934       23.207       28.867       19.642      538.556      833.326      385.820        0.281        0.088       37.064       18.780        0.257      338.617       11.389      871.566
12/23/2013  15:56:00       29.176       35.846       33.726       19.306       18.795       14.788      372.710      353.245      218.698        0.211        0.047       46.219        8.930        0.037      338.560       11.295      871.570
12/23/2013  15:57:00        7.491       10.807       22.422       16.473       15.689       11.763      271.375      246.154      138.371        0.067        0.033       13.149        6.862        0.272      338.625       11.403      871.573
12/23/2013  15:58:00        0.730       50.750       64.167       14.928       30.824       28.840      222.838      950.116      831.758        0.435        0.100       50.756       23.016        0.206      338.533       11.249      871.566
12/23/2013  15:59:00       14.950       69.131       89.037       45.872       41.189       27.265     2104.243     1696.530      743.388        0.874        0.227       70.729       24.249        0.118      338.596       11.355      871.561
12/23/2013  16:00:00       58.643       71.389       63.965       31.042       32.013       21.887      963.608     1024.831      479.052        0.755        0.123       92.387       10.262        0.012      338.582       11.332      871.553
12/23/2013  16:01:00       32.807       45.090       48.006       26.593       24.490       18.416      707.180      599.771      339.134        0.353        0.082       55.762       15.540        0.078      338.518       11.225      871.547
12/23/2013  16:02:00       29.943        0.613       26.455       20.303       36.841       23.580      412.201     1357.256      556.002        0.196        0.116       29.949       22.580        0.568      338.536       11.255      871.540
12/23/2013  16:03:00       40.696      -25.183       29.577       42.082       57.240       29.327     1770.856     3276.422      860.053        0.454        0.295       47.858       38.223        0.638      338.511       11.212      871.541
12/23/2013  16:04:00        5.401       -8.398       27.749       18.394       30.360       17.228      338.341      921.735      296.814        0.121        0.078        9.985       20.333        4.147      338.603       11.367      871.542
12/23/2013  16:05:00        7.912       33.240       53.206       28.855       27.722       20.745      832.633      768.513      430.352        0.301        0.102       34.168       18.223        0.284      338.553       11.283      871.541
12/23/2013  16:06:00       51.583      -46.849        4.721       52.780       40.747       29.476     2785.686     1660.316      868.839        0.510        0.266       69.682       22.391        0.103      338.589       11.343      871.544
12/23/2013  16:07:00       47.699      -53.898       23.482       47.442       67.783       35.743     2250.734     4594.543     1277.532        0.693        0.406       71.973       44.628        0.384      338.524       11.235      871.539
12/23/2013  16:08:00       14.424       22.948       53.781       24.827       38.838       28.877      616.395     1508.407      833.859        0.329        0.148       27.105       28.839        1.132      338.533       11.248      871.537
12/23/2013  16:09:00       38.885      -32.948       16.441       45.408       47.194       43.290     2061.854     2227.292     1874.066        0.451        0.308       50.966       34.926        0.470      338.488       11.173      871.533
12/23/2013  16:10:00       64.063      -59.373        3.601       43.361       41.737       29.138     1880.155     1741.950      848.996        0.606        0.224       87.345       29.587        0.115      338.464       11.133      871.537
12/23/2013  16:11:00       50.015      -16.707       19.048       35.465       45.657       28.770     1257.795     2084.573      827.689        0.366        0.209       52.731       28.448        0.291      338.432       11.079      871.539
12/23/2013  16:12:00       24.837       -7.806       26.274       43.438       51.059       32.252     1886.848     2607.049     1040.205        0.345        0.277       26.035       40.384        2.406      338.461       11.128      871.549
12/23/2013  16:13:00       10.794        3.827       38.014       21.596       33.431       21.977      466.366     1117.607      483.009        0.182        0.103       11.452       22.889        3.995      338.469       11.142      871.566
12/23/2013  16:14:00        3.224      -30.686        9.690       22.531       39.542       24.783      507.637     1563.543      614.197        0.187        0.134       30.855       25.196        0.667      338.466       11.137      871.584
12/23/2013  16:15:00      -13.174        6.220       29.406       20.757       20.466       15.347      430.841      418.874      235.535        0.108        0.054       14.569       15.010        1.061      338.417       11.055      871.586
12/23/2013  16:16:00        5.943       -5.573        8.987       14.221       18.343       12.874      202.233      336.449      165.738        0.043        0.035        8.147        5.145        0.399      338.407       11.038      871.592
12/23/2013  16:17:00      -11.294       -7.651       -1.872       16.650       27.390       14.186      277.207      750.216      201.230        0.071        0.061       13.642       15.886        1.356      338.419       11.058      871.597
12/23/2013  16:18:00      -25.872      -14.543       -0.002       30.102       14.206       13.624      906.131      201.805      185.610        0.109        0.065       29.680       16.410        0.306      338.447       11.103      871.596
12/23/2013  16:19:00      -10.827      -10.877       -7.360       11.696       12.410        7.381      136.787      153.998       54.480        0.032        0.017       15.347        3.834        0.062      338.343       10.930      871.602
12/23/2013  16:20:00        1.468        8.460        9.496       10.714       11.001        9.502      114.799      121.026       90.294        0.024        0.016        8.586        6.762        0.620      338.269       10.806      871.612
12/23/2013  16:21:00      -14.727       23.413       38.264       12.520       16.929       18.776      156.739      286.576      352.534        0.151        0.040       27.660       13.274        0.230      338.085       10.498      871.613
12/23/2013  16:22:00      -19.473       18.754       31.927       13.767       13.950       13.637      189.532      194.596      185.957        0.116        0.029       27.035       11.615        0.185      338.194       10.679      871.617
12/23/2013  16:23:00       47.462      -49.216        0.685       50.245       41.613       25.541     2524.607     1731.606      652.356        0.479        0.245       68.373       32.254        0.223      338.311       10.876      871.633
12/23/2013  16:24:00       44.229      -12.115       12.257       46.578       32.744       17.166     2169.485     1072.187      294.674        0.289        0.177       45.859       23.966        0.273      338.334       10.914      871.643
12/23/2013  16:25:00       38.594       -1.538       21.722       31.859       34.915       22.863     1014.986     1219.084      522.727        0.236        0.138       38.624       24.041        0.387      338.184       10.664      871.652
12/23/2013  16:26:00       15.442       13.295       23.692       21.213       21.681       16.573      449.989      470.067      274.659        0.109        0.060       20.376       14.393        0.499      338.100       10.522      871.669
12/23/2013  16:27:00       18.955        3.008       17.009       18.424       23.572       17.811      339.436      555.659      317.218        0.093        0.061       19.192       15.517        0.654      338.123       10.562      871.666
12/23/2013  16:28:00       26.753      -13.884       13.428       17.363       28.871       16.512      301.461      833.542      272.657        0.125        0.070       30.142       17.466        0.336      338.167       10.635      871.669
12/23/2013  16:29:00       56.110      -31.780       11.460       17.651       19.836       17.489      311.548      393.477      305.852        0.265        0.051       64.484       14.104        0.048      338.183       10.662      871.664
12/23/2013  16:30:00        7.624       11.926       16.858       11.988       11.815        9.148      143.715      139.584       83.692        0.043        0.018       14.155        2.926        0.043      338.032       10.408      871.662
12/23/2013  16:31:00        6.286        2.027       12.699       11.379       15.278       11.050      129.471      233.422      122.101        0.034        0.024        6.604       10.577        2.565      338.077       10.483      871.671
12/23/2013  16:32:00       45.870       11.025       10.911       20.967       19.521       17.465      439.599      381.068      305.038        0.174        0.056       47.177       14.358        0.093      338.071       10.474      871.664
12/23/2013  16:33:00       45.494       19.634       17.988       29.398       24.276       19.932      864.263      589.302      397.268        0.231        0.093       49.550       11.880        0.057      338.050       10.438      871.669
12/23/2013  16:34:00       44.213        8.336       10.673       21.540       16.030       14.171      463.962      256.946      200.817        0.153        0.046       44.992       12.252        0.074      337.988       10.336      871.662
12/23/2013  16:35:00       41.395        8.898       11.882       20.626       16.392       14.114      425.437      268.704      199.200        0.141        0.045       42.340        7.586        0.032      337.998       10.350      871.657
12/23/2013  16:36:00       10.625        4.869       12.680       23.432       13.335       10.081      549.036      177.833      101.634        0.056        0.041       11.687       11.501        0.968      337.929       10.235      871.641
12/23/2013  16:37:00        5.447        5.123        2.477       15.094       10.691        8.341      227.818      114.304       69.569        0.024        0.021        7.478        7.358        0.968      337.955       10.280      871.644
12/23/2013  16:38:00      -28.792      -22.455       -0.081       12.578        8.139        6.859      158.218       66.238       47.046        0.080        0.014       36.513        4.315        0.014      337.693        9.839      871.638
12/23/2013  16:39:00      -46.004      -24.210       -6.262       13.938        9.702        8.216      194.257       94.133       67.498        0.155        0.018       51.986        6.296        0.015      337.503        9.521      871.639
12/23/2013  16:40:00      -54.912      -15.723      -10.779       15.548       11.531        8.556      241.750      132.970       73.206        0.191        0.022       57.119        7.880        0.019      337.423        9.386      871.644
12/23/2013  16:41:00      -86.360      -17.571       -9.139       11.750       17.355       10.429      138.062      301.207      108.762        0.420        0.027       88.129        8.314        0.009      337.330        9.232      871.643
12/23/2013  16:42:00      -77.881       -6.417       -9.333       20.669        9.815        9.073      427.187       96.338       82.317        0.340        0.030       78.145        8.170        0.011      337.391        9.332      871.643
12/23/2013  16:43:00      -62.200      -15.656       -7.092       11.232       11.818        8.380      126.154      139.667       70.231        0.225        0.017       64.140        5.514        0.007      337.385        9.323      871.643
12/23/2013  16:44:00      -15.097       -6.990        1.537       20.899        8.232        7.690      436.768       67.763       59.140        0.042        0.028       16.637        8.701        0.274      337.316        9.209      871.636
12/23/2013  16:45:00      -10.252      -15.356      -10.544       18.678       13.845        5.364      348.876      191.690       28.777        0.051        0.028       18.464        6.638        0.129      337.469        9.465      871.629
12/23/2013  16:46:00      -39.582       13.827      -10.948       11.670        9.367        7.716      136.188       87.745       59.531        0.108        0.014       41.928        6.489        0.024      337.896       10.179      871.606
12/23/2013  16:47:00      -28.653      -15.166       -8.610       13.079       11.499        7.901      171.059      132.226       62.426        0.075        0.018       32.419        2.085        0.004      337.597        9.677      871.585
12/23/2013  16:48:00      -40.894      -25.041       -1.576       25.301       13.169       10.748      640.137      173.421      115.521        0.162        0.046       47.951       13.893        0.084      337.347        9.260      871.567
12/23/2013  16:49:00      -59.057      -19.879       -8.482        9.802       11.068        6.402       96.080      122.491       40.987        0.211        0.013       62.313        1.763        0.001      337.400        9.348      871.568
12/23/2013  16:50:00      -39.839      -14.697       -8.574        8.581        9.721        6.012       73.632       94.498       36.141        0.104        0.010       42.463        5.985        0.020      337.270        9.130      871.579
12/23/2013  16:51:00      -40.626      -25.778       -7.886       10.444        9.392        5.937      109.079       88.210       35.246        0.130        0.012       48.114        3.766        0.006      337.089        8.827      871.583
12/23/2013  16:52:00      -53.472      -23.185       -7.301       12.347       10.451        9.547      152.456      109.222       91.137        0.190        0.018       58.282        5.106        0.008      336.922        8.549      871.586
12/23/2013  16:53:00      -82.642       -6.245      -10.811       16.944       21.928       10.397      287.102      480.837      108.107        0.393        0.044       82.877        8.373        0.010      336.928        8.558      871.583
12/23/2013  16:54:00      -69.436      -11.692      -13.875       19.186       16.931       13.449      368.120      286.661      180.872        0.299        0.042       70.414       12.790        0.033      336.805        8.354      871.582
12/23/2013  16:55:00      -53.342      -25.825       -8.846       22.235       25.767       13.874      494.398      663.948      192.475        0.247        0.068       59.265       15.612        0.069      336.738        8.241      871.589
12/23/2013  16:56:00      -57.045      -44.029      -14.169       23.778       23.335       16.575      565.408      544.518      274.725        0.339        0.069       72.061       13.349        0.034      336.703        8.185      871.592
12/23/2013  16:57:00      -67.813      -21.948      -23.266       17.847       15.874       13.142      318.511      251.995      172.703        0.318        0.037       71.277        8.809        0.015      336.683        8.151      871.600
12/23/2013  16:58:00      -66.439      -30.847      -11.310       23.385       23.677       17.279      546.860      560.603      298.555        0.345        0.070       73.251        9.443        0.017      336.590        7.994      871.595
12/23/2013  16:59:00      -74.060      -31.536       -7.562       33.360       27.446       17.377     1112.885      753.279      301.963        0.435        0.108       80.495       17.008        0.045      336.467        7.788      871.609
12/23/2013  17:00:00      -37.456       -8.692       -4.098       25.394       29.179       16.463      644.842      851.429      271.016        0.163        0.088       38.452       10.324        0.072      336.516        7.870      871.623
12/23/2013  17:01:00      -68.146      -13.182       -3.813       46.718       37.065       18.559     2182.574     1373.828      344.429        0.437        0.195       69.409       21.396        0.095      336.567        7.956      871.633
12/23/2013  17:02:00     -101.172      -33.810       -9.534       34.221       30.715       18.779     1171.082      943.438      352.658        0.697        0.123      106.672       14.088        0.017      336.457        7.771      871.642
12/23/2013  17:03:00      -85.617      -24.737      -17.187       32.564       22.687       19.985     1060.438      514.690      399.405        0.511        0.099       89.119       10.634        0.014      336.302        7.512      871.647
12/23/2013  17:04:00     -105.113      -44.939      -11.248       47.712       34.299       23.981     2276.393     1176.431      575.091        0.861        0.201      114.317       17.169        0.023      336.345        7.585      871.647
12/23/2013  17:05:00     -132.772      -27.955        1.501       51.189       45.808       26.335     2620.336     2098.379      693.529        1.191        0.271      135.683       21.313        0.025      336.390        7.660      871.659
12/23/2013  17:06:00     -126.410       -6.351       -1.751       59.550       50.922       29.235     3546.210     2593.063      854.689        1.151        0.350      126.569       29.725        0.055      336.503        7.848      871.668
12/23/2013  17:07:00     -131.530        7.760      -11.551       51.688       45.695       31.088     2671.651     2088.019      966.470        1.161        0.286      131.759       31.482        0.057      336.539        7.909      871.665
12/23/2013  17:08:00     -188.363       26.620      -18.186       48.597       26.063       16.731     2361.658      679.266      279.937        1.992        0.166      190.235       13.388        0.005      336.344        7.580      871.657
12/23/2013  17:09:00     -142.020       -0.067      -12.897       69.306       36.947       23.598     4803.314     1365.067      556.851        1.353        0.336      142.020       26.695        0.035      336.339        7.574      871.655
12/23/2013  17:10:00     -147.302        3.591      -15.674       53.801       34.250       23.047     2894.564     1173.088      531.153        1.328        0.230      147.346       26.546        0.032      336.309        7.523      871.648
12/23/2013  17:11:00     -152.090       -3.286      -20.740       28.856       25.036       20.369      832.696      626.787      414.888        1.272        0.094      152.125       17.737        0.014      336.257        7.435      871.645
12/23/2013  17:12:00     -159.915       11.295      -20.946       26.565       27.314       18.395      705.705      746.054      338.394        1.396        0.090      160.313       15.642        0.010      336.330        7.560      871.643
12/23/2013  17:13:00     -113.022       16.151      -12.851       51.722       30.091       26.453     2675.212      905.471      699.770        0.874        0.214      114.170       30.157        0.070      336.322        7.544      871.647
12/23/2013  17:14:00      -92.623       16.046       -8.370       37.823       28.988       20.466     1430.544      840.281      418.864        0.580        0.134       94.003       17.919        0.036      336.229        7.390      871.656
12/23/2013  17:15:00     -101.087       -0.403      -10.625       26.731       21.165       19.730      714.549      447.962      389.279        0.594        0.078      101.088       17.135        0.029      336.206        7.351      871.655
12/23/2013  17:16:00      -93.322        2.086      -11.934       43.093       22.369       20.062     1857.021      500.350      402.470        0.581        0.138       93.345       17.964        0.037      336.253        7.429      871.647
12/23/2013  17:17:00      -75.122       37.154       -5.120       40.009       32.782       24.382     1600.681     1074.647      594.478        0.516        0.163       83.807       13.041        0.024      336.278        7.472      871.639
12/23/2013  17:18:00     -137.249       46.804      -12.497       43.039       26.317       22.873     1852.387      692.564      523.196        1.213        0.153      145.010       14.853        0.010      336.338        7.573      871.635
12/23/2013  17:19:00     -148.968       45.041      -15.952       42.436       27.534       20.930     1800.805      758.127      438.053        1.374        0.150      155.628       12.723        0.007      336.330        7.559      871.627
12/23/2013  17:20:00     -145.481       24.976       -9.509       35.283       25.868       18.702     1244.896      669.139      349.768        1.207        0.113      147.609       11.997        0.007      336.239        7.407      871.620
12/23/2013  17:21:00     -137.081        3.404       -9.924       37.505       26.758       19.103     1406.649      715.985      364.933        1.069        0.124      137.124       11.956        0.008      336.228        7.389      871.616
12/23/2013  17:22:00     -114.807      -12.600       -4.543       34.079       24.033       17.876     1161.399      577.599      319.559        0.771        0.103      115.497       18.228        0.025      336.038        7.070      871.607
12/23/2013  17:23:00     -135.168      -16.123      -14.416       21.271       24.519       13.195      452.474      601.201      174.119        0.998        0.061      136.127       10.510        0.006      336.059        7.107      871.601
12/23/2013  17:24:00     -136.481      -13.768      -12.082       17.785       14.746       16.235      316.316      217.445      263.568        0.988        0.040      137.174       10.809        0.006      336.093        7.164      871.598
12/23/2013  17:25:00      -91.147       -4.723       -8.165       32.886       33.314       17.973     1081.518     1109.840      323.042        0.546        0.126       91.269       18.371        0.041      336.076        7.135      871.604
12/23/2013  17:26:00     -124.160      -10.589      -13.442       30.261       27.747       20.033      915.727      769.922      401.340        0.890        0.104      124.611       16.346        0.017      336.111        7.194      871.604
12/23/2013  17:27:00      -96.244      -30.604       -5.845       20.293       23.466       14.153      411.795      550.668      200.297        0.570        0.058      100.992       10.468        0.011      336.031        7.060      871.604
12/23/2013  17:28:00      -88.730      -36.954       -5.575       28.695       19.299       18.643      823.407      372.458      347.555        0.541        0.077       96.118       16.426        0.029      336.008        7.020      871.602
12/23/2013  17:29:00      -80.171      -30.921       -8.738       20.906       18.318       12.293      437.048      335.541      151.116        0.419        0.046       85.928       12.456        0.021      336.004        7.014      871.603
12/23/2013  17:30:00      -86.386        4.729       -8.039       33.455       18.854       15.947     1119.257      355.487      254.299        0.464        0.086       86.515       15.746        0.033      336.116        7.202      871.604
12/23/2013  17:31:00     -111.651       -3.775      -11.375       23.437       23.477       14.916      549.312      551.164      222.502        0.697        0.066      111.714       11.486        0.011      336.140        7.241      871.602
12/23/2013  17:32:00     -108.410        1.219       -9.546       39.926       28.340       19.122     1594.074      803.145      365.656        0.730        0.138      108.417        9.962        0.008      336.104        7.182      871.600
12/23/2013  17:33:00     -127.448       -8.607      -12.079       35.293       26.132       18.605     1245.574      682.868      346.134        0.937        0.114      127.739       19.756        0.024      336.078        7.137      871.596
12/23/2013  17:34:00     -130.798      -31.447      -12.258       24.018       23.535       14.774      576.886      553.903      218.277        0.980        0.067      134.525       15.218        0.013      335.986        6.985      871.594
12/23/2013  17:35:00     -152.271      -42.645      -11.562       27.106       27.058       18.409      734.720      732.156      338.875        1.347        0.090      158.129       13.095        0.007      335.876        6.801      871.593
12/23/2013  17:36:00     -134.385      -42.989       -8.071       37.084       36.689       23.982     1375.225     1346.081      575.121        1.163        0.165      141.094       20.566        0.021      335.767        6.622      871.599
12/23/2013  17:37:00      -49.288      -35.685        4.917       49.511       27.739       23.613     2451.337      769.441      557.569        0.375        0.189       60.850       19.269        0.100      335.765        6.618      871.619
12/23/2013  17:38:00      -80.788      -43.726      -13.806       33.260       30.886       18.077     1106.257      953.975      326.796        0.551        0.119       91.863       14.671        0.026      335.668        6.457      871.639
12/23/2013  17:39:00      -95.708      -37.818      -11.494       18.974       24.448       13.932      360.031      597.714      194.112        0.594        0.058      102.909       13.536        0.017      335.619        6.373      871.650
12/23/2013  17:40:00      -77.696      -41.773      -17.433       16.576       17.782       11.044      274.767      316.203      121.981        0.440        0.036       88.214        7.615        0.007      335.654        6.432      871.663
12/23/2013  17:41:00      -65.504      -23.890       -5.894       16.179       22.190       15.715      261.772      492.386      246.961        0.295        0.050       69.725       13.831        0.039      335.666        6.453      871.666
12/23/2013  17:42:00      -67.071      -31.287       -5.211       14.975       21.822       15.524      224.259      476.214      240.985        0.322        0.047       74.010        5.799        0.006      335.652        6.428      871.669
12/23/2013  17:43:00      -83.143      -20.284      -20.212       14.934       14.379       10.299      223.028      206.769      106.070        0.413        0.027       85.581        9.021        0.011      335.703        6.515      871.670
12/23/2013  17:44:00      -75.721      -16.254      -14.490       18.144       14.253       13.719      329.217      203.148      188.225        0.346        0.036       77.445        8.786        0.013      335.715        6.535      871.678
12/23/2013  17:45:00      -78.427      -26.507       -9.420       15.140       18.476       11.923      229.212      341.380      142.170        0.383        0.036       82.786        8.393        0.010      335.705        6.518      871.687
12/23/2013  17:46:00      -82.743      -37.383      -18.891       19.084       14.756       12.626      364.208      217.730      159.423        0.467        0.037       90.796        9.006        0.010      335.686        6.485      871.698
12/23/2013  17:47:00     -105.895      -39.187      -18.393       15.679       23.686       11.945      245.824      561.024      142.689        0.702        0.047      112.913        6.798        0.004      335.628        6.388      871.706
12/23/2013  17:48:00     -108.911      -37.324       -9.154       16.123       19.013       12.191      259.947      361.512      148.613        0.705        0.039      115.129       10.464        0.008      335.690        6.491      871.700
12/23/2013  17:49:00     -113.655      -31.916      -19.188       18.445       16.951       15.095      340.232      287.341      227.844        0.758        0.043      118.051       13.660        0.013      335.654        6.433      871.692
12/23/2013  17:50:00     -116.459      -18.590      -16.025       18.143       14.480       11.781      329.165      209.662      138.784        0.742        0.034      117.934       10.292        0.008      335.672        6.462      871.696
12/23/2013  17:51:00      -98.110       -0.259      -14.013       14.325       10.370        8.897      205.218      107.539       79.159        0.511        0.020       98.111        6.116        0.004      335.717        6.539      871.693
12/23/2013  17:52:00     -125.477        3.446      -15.001        6.803        8.852        7.860       46.278       78.363       61.774        0.808        0.009      125.524        5.577        0.002      335.729        6.557      871.701
12/23/2013  17:53:00     -128.828       -1.637      -17.375       11.287       15.443        9.122      127.403      238.477       83.218        0.868        0.022      128.839        4.779        0.001      335.794        6.664      871.709
12/23/2013  17:54:00     -118.283      -20.209      -17.380       12.922       14.067       10.712      166.977      197.882      114.740        0.759        0.024      119.997        5.249        0.002      335.730        6.559      871.725
12/23/2013  17:55:00     -115.449      -34.254       -9.927       20.174       23.781       18.518      406.982      565.520      342.924        0.796        0.066      120.423       14.866        0.015      335.596        6.336      871.745
12/23/2013  17:56:00     -133.339      -45.646      -16.871       18.917       19.714       19.861      357.871      388.650      394.462        1.064        0.057      140.935       17.083        0.015      335.537        6.238      871.744
12/23/2013  17:57:00     -116.298      -46.013      -20.871       21.341       20.167       17.431      455.450      406.707      303.834        0.862        0.058      125.070        8.169        0.004      335.277        5.802      871.753
12/23/2013  17:58:00     -124.748      -25.424       -5.556       37.832       29.198       22.578     1431.267      852.526      509.745        0.952        0.140      127.312       20.193        0.025      335.333        5.896      871.752
12/23/2013  17:59:00     -132.604      -22.659      -10.393       43.292       26.326       23.030     1874.212      693.070      530.396        1.065        0.155      134.526       23.498        0.031      335.285        5.815      871.754
12/23/2013  18:00:00     -135.094      -37.264       -5.197       39.517       29.386       18.653     1561.603      863.518      347.918        1.122        0.139      140.139       18.624        0.018      335.204        5.682      871.754
12/23/2013  18:01:00     -123.996      -34.351       -5.967       30.910       22.796       20.635      955.444      519.656      425.822        0.925        0.095      128.666       19.590        0.023      335.267        5.787      871.763
12/23/2013  18:02:00     -118.995      -44.558       -2.733       33.249       25.896       15.357     1105.482      670.614      235.833        0.908        0.101      127.064       13.833        0.012      335.313        5.863      871.763
12/23/2013  18:03:00     -124.293      -60.507       -5.561       26.223       28.618       15.976      687.663      818.989      255.241        1.045        0.088      138.239       13.563        0.010      335.329        5.889      871.775
12/23/2013  18:04:00     -147.656      -43.647       -7.617       27.285       24.223       17.873      744.465      586.731      319.428        1.271        0.083      153.972       16.063        0.011      335.356        5.936      871.772
12/23/2013  18:05:00     -118.344      -54.192       -6.211       31.416       19.192       21.597      986.961      368.330      466.441        0.940        0.091      130.162       20.760        0.025      335.324        5.882      871.783
12/23/2013  18:06:00     -110.408      -54.228       -7.848       24.237       18.328       15.218      587.429      335.907      231.576        0.817        0.058      123.006       14.110        0.013      335.399        6.006      871.771
12/23/2013  18:07:00     -107.702      -59.775       -9.756       23.774       17.774       14.763      565.199      315.924      217.934        0.818        0.055      123.178       11.861        0.009      335.509        6.191      871.772
12/23/2013  18:08:00     -118.095      -59.739       -7.093       32.318       19.113       12.472     1044.464      365.294      155.555        0.957        0.078      132.345       15.219        0.013      335.454        6.099      871.770
12/23/2013  18:09:00     -128.402      -66.048       -9.175       20.862       19.407       13.134      435.226      376.622      172.503        1.096        0.049      144.393       11.417        0.006      335.467        6.121      871.792
12/23/2013  18:10:00     -132.950      -77.645      -12.292       15.431       16.062       14.611      238.102      257.980      213.482        1.228        0.035      153.962        6.638        0.002      335.438        6.070      871.803
12/23/2013  18:11:00     -140.282      -61.481      -17.867       18.939       21.158       11.365      358.682      447.648      129.157        1.236        0.047      153.163        6.634        0.002      335.392        5.996      871.830
12/23/2013  18:12:00     -144.796      -57.012      -13.894       17.807       21.517       14.859      317.072      463.000      220.800        1.270        0.050      155.616       11.509        0.005      335.356        5.935      871.856
12/23/2013  18:13:00     -132.313      -51.466      -10.935       23.374       22.075       17.185      546.359      487.314      295.338        1.080        0.066      141.970       15.435        0.012      335.296        5.834      871.881
12/23/2013  18:14:00      -74.670      -40.585       -3.525       26.917       22.827       15.889      724.500      521.083      252.469        0.437        0.075       84.987       11.999        0.020      335.265        5.782      871.889
12/23/2013  18:15:00      -84.416      -41.030       -9.057       20.176       18.247       15.798      407.066      332.955      249.571        0.494        0.049       93.859       12.129        0.017      335.234        5.732      871.888
12/23/2013  18:16:00      -88.768      -39.362      -13.054       19.869       21.526       13.757      394.768      463.348      189.260        0.532        0.052       97.103        5.199        0.003      335.211        5.692      871.887
12/23/2013  18:17:00      -86.286      -29.514       -8.029       21.944       23.349       16.275      481.546      545.177      264.867        0.484        0.065       91.194       11.483        0.016      335.198        5.671      871.893
12/23/2013  18:18:00      -92.957      -22.895      -10.221       22.128       20.425       18.978      489.642      417.179      360.152        0.527        0.063       95.735       13.297        0.019      335.161        5.611      871.914
12/23/2013  18:19:00     -112.680      -34.704      -10.237       26.854       28.387       18.486      721.117      805.807      341.730        0.794        0.093      117.903       14.792        0.016      335.101        5.513      871.924
12/23/2013  18:20:00     -105.960      -41.880      -13.983       29.998       27.058       19.667      899.855      732.146      386.796        0.760        0.101      113.936       15.710        0.019      335.046        5.421      871.942
12/23/2013  18:21:00      -92.719      -53.763      -14.949       22.866       31.935       20.164      522.857     1019.874      406.606        0.683        0.097      107.178       15.506        0.021      335.051        5.428      871.953
12/23/2013  18:22:00      -78.442      -54.302      -10.281       25.375       29.093       29.702      643.915      846.426      882.232        0.579        0.119       95.404       22.998        0.058      335.039        5.408      871.961
12/23/2013  18:23:00      -88.237      -41.519      -10.203       34.483       30.910       26.924     1189.067      955.427      724.887        0.624        0.143       97.517       19.628        0.041      335.011        5.363      871.959
12/23/2013  18:24:00     -102.204      -41.913      -20.418       36.316       24.618       19.604     1318.881      606.067      384.319        0.746        0.115      110.465       18.718        0.029      335.035        5.401      871.949
12/23/2013  18:25:00      -96.031      -53.337      -10.964       22.757       17.362       17.594      517.895      301.427      309.549        0.666        0.056      109.849       12.762        0.013      335.108        5.524      871.935
12/23/2013  18:26:00      -89.527      -42.495      -11.224       32.667       26.814       17.659     1067.154      718.975      311.828        0.602        0.105       99.101       20.339        0.042      335.146        5.587      871.917
12/23/2013  18:27:00     -118.310      -31.174      -13.891       17.665       21.650       13.103      312.049      468.705      171.681        0.806        0.048      122.348        9.144        0.006      335.032        5.397      871.904
12/23/2013  18:28:00      -94.720      -53.249      -21.229       17.694       22.764       14.522      313.095      518.194      210.874        0.665        0.052      108.661        8.997        0.007      335.075        5.469      871.890
12/23/2013  18:29:00      -85.508      -64.471      -15.293       27.844       26.339       16.306      775.303      693.745      265.895        0.672        0.087      107.089       14.749        0.019      335.042        5.415      871.887
12/23/2013  18:30:00      -94.935      -35.206      -22.791       30.814       24.706       17.238      949.508      610.363      297.156        0.631        0.093      101.253       16.950        0.028      334.983        5.317      871.877
12/23/2013  18:31:00      -82.707      -47.782      -14.814       36.703       28.359       25.038     1347.146      804.211      626.909        0.606        0.139       95.517       15.153        0.025      335.009        5.359      871.864
12/23/2013  18:32:00      -84.037      -48.709      -17.392       19.040       20.953       14.935      362.538      439.008      223.046        0.538        0.051       97.133        9.158        0.009      334.925        5.220      871.862
12/23/2013  18:33:00      -71.063      -57.179      -11.632       34.685       25.629       24.422     1203.047      656.846      596.421        0.546        0.123       91.210       17.403        0.036      334.894        5.168      871.853
12/23/2013  18:34:00      -72.118      -43.180       -2.954       33.993       28.805       22.618     1155.496      829.714      511.565        0.479        0.125       84.057       20.379        0.059      334.853        5.101      871.850
12/23/2013  18:35:00     -113.901      -44.356      -16.829       35.025       20.344       18.262     1226.728      413.878      333.486        0.860        0.099      122.233       14.522        0.014      334.913        5.200      871.828
12/23/2013  18:36:00      -78.783      -53.117      -14.124       29.906       26.146       15.017      894.395      683.615      225.523        0.552        0.090       95.017        8.879        0.009      334.895        5.170      871.803
12/23/2013  18:37:00     -127.187      -74.763       -4.999       32.340       23.959       18.493     1045.864      574.015      341.981        1.188        0.098      147.533       13.842        0.009      334.899        5.176      871.764
12/23/2013  18:38:00     -147.043      -60.259      -13.635       21.912       15.889       14.442      480.136      252.461      208.566        1.319        0.047      158.912       10.030        0.004      334.914        5.201      871.747
12/23/2013  18:39:00     -126.902      -75.592       -6.262       28.613       21.299       20.859      818.691      453.628      435.107        1.178        0.085      147.710       16.696        0.013      334.927        5.222      871.733
12/23/2013  18:40:00     -123.337      -63.275       -8.047       37.167       26.603       18.488     1381.394      707.724      341.794        1.086        0.122      138.621       18.265        0.017      334.876        5.137      871.740
12/23/2013  18:41:00     -120.316      -52.512       -3.997       26.507       26.956       17.155      702.625      726.622      294.284        0.949        0.086      131.276       16.459        0.016      334.872        5.131      871.745
12/23/2013  18:42:00      -94.089      -61.866        2.285       26.686       20.736       13.453      712.163      429.975      180.991        0.700        0.066      112.606       11.849        0.011      334.856        5.103      871.744
12/23/2013  18:43:00      -81.895      -51.369        0.066       43.109       23.135       24.173     1858.427      535.244      584.315        0.616        0.149       96.673       26.143        0.073      334.851        5.097      871.759
12/23/2013  18:44:00      -90.948      -72.416       -4.938       44.339       27.105       18.642     1965.915      734.675      347.511        0.829        0.152      116.257       17.486        0.023      334.919        5.211      871.759
12/23/2013  18:45:00     -116.225      -92.368       -7.999       38.167       26.710       20.168     1456.729      713.427      406.768        1.234        0.129      148.460       20.276        0.019      334.957        5.274      871.768
12/23/2013  18:46:00     -116.770      -61.210       -7.602       32.389       26.144       17.938     1049.035      683.505      321.765        0.975        0.103      131.841       12.956        0.010      334.977        5.305      871.782
12/23/2013  18:47:00     -121.561      -61.119        2.149       30.958       23.782       17.195      958.368      565.586      295.657        1.017        0.091      136.061       12.605        0.009      334.911        5.195      871.787
12/23/2013  18:48:00     -107.278      -46.231       -3.462       22.884       25.021       20.662      523.694      626.036      426.916        0.762        0.079      116.815       13.744        0.014      334.951        5.262      871.809
12/23/2013  18:49:00      -95.442       -7.265      -10.070       29.792       27.172       19.513      887.563      738.307      380.742        0.563        0.100       95.718       18.358        0.037      334.925        5.218      871.806
12/23/2013  18:50:00     -121.971        5.710       -8.630       38.374       25.689       21.537     1472.583      659.919      463.837        0.879        0.130      122.104       14.727        0.015      334.861        5.113      871.795
12/23/2013  18:51:00     -138.307       -9.197      -12.694       32.834       30.676       19.613     1078.041      941.044      384.661        1.089        0.120      138.612       15.044        0.012      334.845        5.087      871.801
12/23/2013  18:52:00     -146.047      -19.228       -9.024       38.291       28.477       21.290     1466.174      810.923      453.277        1.226        0.137      147.308       19.971        0.018      334.898        5.174      871.807
12/23/2013  18:53:00     -149.132      -41.762       -5.721       35.935       33.628       20.062     1291.338     1130.846      402.491        1.342        0.141      154.869       18.588        0.014      334.859        5.109      871.811
12/23/2013  18:54:00     -148.056      -54.494       -5.718       40.455       36.681       17.236     1636.582     1345.485      297.080        1.410        0.164      157.767       16.350        0.011      334.873        5.133      871.824
12/23/2013  18:55:00     -143.746      -44.861      -11.804       30.951       28.573       19.031      957.968      816.439      362.171        1.248        0.107      150.584       12.099        0.006      334.911        5.195      871.847
12/23/2013  18:56:00      -55.431      -27.840        3.834       39.387       28.491       24.258     1551.346      811.751      588.470        0.341        0.148       62.030       19.293        0.097      334.883        5.150      871.847
12/23/2013  18:57:00      -29.090      -10.662        2.134       27.291       22.995       23.490      744.794      528.753      551.783        0.139        0.091       30.983       16.741        0.292      334.906        5.188      871.846
12/23/2013  18:58:00      -85.163       -6.095      -10.553       36.047       23.605       20.195     1299.376      557.173      407.852        0.483        0.113       85.381       21.006        0.061      334.895        5.169      871.848
12/23/2013  18:59:00     -114.054      -24.012      -21.059       23.556       25.466       16.308      554.892      648.508      265.936        0.775        0.073      116.554       11.761        0.010      334.808        5.026      871.847
12/23/2013  19:00:00     -101.879      -43.870      -27.757       22.799       17.329       15.832      519.793      300.286      250.662        0.707        0.054      110.923       10.937        0.010      334.848        5.093      871.850
12/23/2013  19:01:00      -86.738      -22.137      -15.258       24.995       28.762       21.235      624.748      827.256      450.906        0.507        0.095       89.518       18.321        0.042      334.799        5.010      871.854
12/23/2013  19:02:00      -98.010      -20.180      -12.515       22.027       21.339       15.617      485.209      455.342      243.880        0.568        0.059      100.066       11.854        0.014      334.795        5.003      871.859
12/23/2013  19:03:00     -119.085      -12.539      -20.700       26.948       18.281       12.235      726.211      334.204      149.692        0.799        0.061      119.743        9.889        0.007      334.781        4.978      871.856
12/23/2013  19:04:00     -104.039      -10.905      -22.422       20.830       18.874       16.225      433.885      356.232      263.235        0.625        0.053      104.609       12.838        0.015      334.790        4.993      871.854
12/23/2013  19:05:00     -105.428      -24.246      -15.520       19.944       27.640       17.841      397.776      763.994      318.316        0.671        0.074      108.180       13.359        0.015      334.723        4.883      871.867
12/23/2013  19:06:00     -108.525       -4.438      -19.527       16.932       14.347       11.853      286.687      205.835      140.491        0.641        0.032      108.616        5.224        0.002      334.751        4.931      871.886
12/23/2013  19:07:00     -120.380        1.781      -20.635       19.532       17.282       11.674      381.492      298.661      136.271        0.787        0.041      120.393        2.882        0.001      334.698        4.840      871.880
12/23/2013  19:08:00      -96.426        4.092      -18.366       18.455       17.179       13.496      340.602      295.125      182.135        0.523        0.041       96.513       10.827        0.013      334.685        4.819      871.875
12/23/2013  19:09:00      -90.409       -5.002      -19.543       27.447       15.432       13.035      753.311      238.157      169.911        0.487        0.058       90.547        6.478        0.005      334.660        4.780      871.888
12/23/2013  19:10:00      -60.592      -20.651       -6.410       16.161       12.661       11.199      261.178      160.296      125.425        0.234        0.027       64.014        9.817        0.024      334.638        4.743      871.888
12/23/2013  19:11:00      -74.648      -15.829      -16.435        8.873       11.239        9.534       78.721      126.320       90.907        0.319        0.015       76.308        7.547        0.010      334.593        4.668      871.890
12/23/2013  19:12:00      -74.767      -34.857      -19.160       15.676       17.521       12.426      245.740      306.979      154.400        0.394        0.035       82.493        9.338        0.013      334.655        4.771      871.910
12/23/2013  19:13:00      -84.262      -22.933      -15.328       21.698       24.852       17.909      470.806      617.608      320.717        0.463        0.070       87.327       13.834        0.025      334.549        4.594      871.918
12/23/2013  19:14:00      -71.791      -23.909      -11.118       13.588       16.667       10.859      184.623      277.788      117.924        0.321        0.029       75.668        9.130        0.015      334.569        4.626      871.922
12/23/2013  19:15:00      -55.233       -7.100      -13.630        9.717       12.385        8.660       94.422      153.392       75.000        0.180        0.016       55.688        5.993        0.012      334.618        4.710      871.929
12/23/2013  19:16:00      -48.141       -0.196      -11.896       12.505       14.425        7.603      156.364      208.086       57.803        0.144        0.021       48.141        6.419        0.018      335.021        5.378      871.944
12/23/2013  19:17:00      -55.212      -24.260       -7.566       19.889       15.008        9.119      395.559      225.225       83.159        0.220        0.035       60.307        4.809        0.006      334.908        5.191      871.955
12/23/2013  19:18:00      -77.571       -6.459      -15.495       16.853        8.984        9.225      284.008       80.711       85.101        0.337        0.022       77.839        6.915        0.008      334.823        5.051      871.964
12/23/2013  19:19:00      -89.312        1.124      -15.226       13.505       11.060       11.334      182.372      122.316      128.449        0.432        0.022       89.319        6.281        0.005      334.593        4.668      871.984
12/23/2013  19:20:00      -99.337       -5.353      -12.712       16.329       13.215       12.783      266.627      174.638      163.408        0.533        0.030       99.481        4.600        0.002      334.643        4.752      871.995
12/23/2013  19:21:00      -78.679       -8.541      -12.862       11.412       14.068       10.789      130.239      197.916      116.407        0.344        0.022       79.141        7.161        0.008      334.692        4.831      871.999
12/23/2013  19:22:00      -59.333      -18.862      -12.412       12.542       14.037        7.244      157.302      197.047       52.481        0.222        0.020       62.259        3.951        0.004      334.856        5.104      872.002
12/23/2013  19:23:00      -58.557       -1.577      -10.277       16.002       14.415       11.845      256.057      207.779      140.307        0.207        0.030       58.578        6.294        0.012      334.865        5.121      872.010
12/23/2013  19:24:00      -69.540       -9.829      -15.998       12.603       10.563        9.590      158.836      111.571       91.964        0.278        0.018       70.231        6.065        0.007      334.652        4.767      872.017
12/23/2013  19:25:00      -91.680      -10.594      -15.457       17.223       13.515       11.771      296.645      182.655      138.565        0.469        0.031       92.290        5.051        0.003      334.601        4.680      872.017
12/23/2013  19:26:00      -90.326      -11.651      -15.710       20.414       15.889       12.071      416.723      252.447      145.701        0.468        0.041       91.074        7.278        0.006      334.525        4.555      872.027
12/23/2013  19:27:00      -99.755        3.237      -15.627       15.752       17.163       12.221      248.130      294.563      149.361        0.545        0.035       99.807        3.525        0.001      334.498        4.510      872.050
12/23/2013  19:28:00      -92.827        2.556      -22.296       17.476       15.356       10.665      305.397      235.792      113.743        0.489        0.033       92.863        2.464        0.001      334.624        4.720      872.058
12/23/2013  19:29:00      -83.593      -13.855       -9.684       30.830       16.473       15.486      950.460      271.372      239.814        0.437        0.073       84.734       12.946        0.023      334.562        4.615      872.065
12/23/2013  19:30:00      -82.433        0.213       -9.751       26.389       10.558       17.360      696.384      111.476      301.370        0.400        0.055       82.434       15.617        0.036      334.478        4.476      872.083
12/23/2013  19:31:00      -53.901      -23.135       -3.726       14.169       25.755       15.654      200.752      663.305      245.036        0.228        0.055       58.656        7.707        0.017      334.509        4.529      872.093
12/23/2013  19:32:00      -53.343      -24.839       -4.075       23.149       15.298       13.144      535.880      234.041      172.761        0.221        0.047       58.842       11.837        0.040      334.600        4.679      872.098
12/23/2013  19:33:00      -74.240      -26.359      -13.471       13.039       13.300        8.671      170.020      176.896       75.186        0.340        0.021       78.781        4.899        0.004      334.534        4.569      872.107
12/23/2013  19:34:00      -86.524      -46.870      -16.931       21.690       10.420        9.500      470.468      108.582       90.246        0.532        0.033       98.403        3.904        0.002      334.532        4.567      872.105
12/23/2013  19:35:00     -100.326      -44.310      -12.725       15.652       13.961       10.725      244.993      194.913      115.018        0.637        0.028      109.675        5.904        0.003      334.480        4.480      872.127
12/23/2013  19:36:00     -110.721      -29.067       -9.898       22.389       23.355       19.178      501.266      545.439      367.795        0.731        0.071      114.472       16.069        0.020      334.499        4.511      872.145
12/23/2013  19:37:00      -99.753      -33.632      -19.731       18.105       15.225        7.536      327.798      231.794       56.787        0.604        0.031      105.270        8.195        0.006      334.563        4.618      872.163
12/23/2013  19:38:00      -76.467      -54.332      -10.162       17.876       18.339       12.047      319.554      336.307      145.122        0.485        0.040       93.804        7.019        0.006      334.589        4.662      872.170
12/23/2013  19:39:00      -88.442      -50.299       -9.104       31.985       27.036       17.034     1023.052      730.937      290.145        0.624        0.102      101.744       17.399        0.029      334.518        4.543      872.183
12/23/2013  19:40:00      -98.718      -33.723       -9.960       26.452       19.813       14.471      699.682      392.537      209.416        0.614        0.065      104.319       14.298        0.019      334.548        4.593      872.192
12/23/2013  19:41:00      -81.904      -24.609       -3.352       20.471       17.943       13.483      419.042      321.956      181.803        0.412        0.046       85.521        8.679        0.010      334.526        4.556      872.185
12/23/2013  19:42:00      -87.483      -21.364      -13.323       10.739       13.585        8.365      115.317      184.547       69.970        0.433        0.018       90.054        5.539        0.004      334.484        4.487      872.192
12/23/2013  19:43:00      -95.738      -23.541       -8.621       21.086       16.923       11.121      444.638      286.380      123.677        0.532        0.043       98.590        5.606        0.003      334.506        4.523      872.205
12/23/2013  19:44:00      -80.573      -28.841       -2.390       22.526       21.058       15.325      507.427      443.454      234.854        0.426        0.059       85.580       14.652        0.029      334.459        4.447      872.219
12/23/2013  19:45:00      -70.920      -42.861      -14.516       19.774       21.181       14.273      390.997      448.639      203.709        0.406        0.052       82.866        9.352        0.013      334.522        4.549      872.215
12/23/2013  19:46:00      -85.399      -20.636      -22.062       12.171       12.117        9.776      148.137      146.829       95.579        0.430        0.020       87.857        5.218        0.004      334.532        4.567      872.203
12/23/2013  19:47:00      -71.559      -29.010      -17.564        9.734       15.825        8.914       94.743      250.436       79.460        0.335        0.021       77.216        8.704        0.013      334.500        4.514      872.186
12/23/2013  19:48:00      -68.274      -33.421      -20.063       11.897       12.144        7.821      141.532      147.478       61.166        0.327        0.018       76.016        4.900        0.004      334.512        4.534      872.178
12/23/2013  19:49:00      -69.837      -27.872      -16.681       11.502       10.716        7.153      132.287      114.837       51.172        0.312        0.015       75.194        7.096        0.009      334.609        4.693      872.158
12/23/2013  19:50:00      -72.257      -28.927      -12.957        6.164        5.553        5.370       37.992       30.834       28.842        0.316        0.005       77.832        3.320        0.002      334.601        4.681      872.144
12/23/2013  19:51:00      -74.141      -28.914      -11.336        8.400        9.236        8.055       70.560       85.301       64.883        0.334        0.011       79.579        5.675        0.005      334.627        4.722      872.137
12/23/2013  19:52:00      -89.385       -1.483      -10.627       16.214       16.319       10.723      262.882      266.294      114.991        0.437        0.032       89.397        7.596        0.007      334.538        4.577      872.145
12/23/2013  19:53:00     -138.057      -24.755      -17.879       12.403       15.746        9.293      153.846      247.945       86.364        1.024        0.024      140.259        3.519        0.001      334.471        4.466      872.164
12/23/2013  19:54:00     -132.334      -46.761      -21.941       14.965       17.829       11.848      223.954      317.862      140.377        1.043        0.034      140.353        7.731        0.003      334.396        4.342      872.183
12/23/2013  19:55:00      -78.572      -63.073       -8.158       28.637       26.405       18.780      820.051      697.218      352.682        0.604        0.093      100.756       13.844        0.019      334.366        4.291      872.193
12/23/2013  19:56:00     -122.267      -37.077      -16.035       19.348       16.449       10.533      374.347      270.574      110.948        0.867        0.038      127.765        9.749        0.006      334.369        4.296      872.209
12/23/2013  19:57:00     -115.421      -54.768      -15.184       16.654       14.376       10.747      277.355      206.671      115.487        0.858        0.030      127.756        8.829        0.005      334.536        4.573      872.227
12/23/2013  19:58:00      -92.576      -29.724      -14.439       12.178       10.992       11.162      148.304      120.830      124.585        0.503        0.020       97.231        7.071        0.005      334.479        4.479      872.243
12/23/2013  19:59:00     -109.114      -39.153      -15.098       13.126       13.544        8.703      172.305      183.452       75.737        0.705        0.022      115.926        4.178        0.001      334.371        4.301      872.257
12/23/2013  20:00:00     -118.143      -34.442      -11.921       21.141       17.988       11.725      446.927      323.558      137.482        0.810        0.045      123.061        9.748        0.006      334.347        4.259      872.254
12/23/2013  20:01:00     -115.691      -64.704       -3.816       20.846       17.455       11.674      434.566      304.683      136.280        0.923        0.044      132.556       10.035        0.006      334.365        4.291      872.242
12/23/2013  20:02:00     -105.623      -53.338       -5.331       20.154       15.012       16.198      406.176      225.367      262.384        0.746        0.045      118.326       13.816        0.014      334.469        4.462      872.226
12/23/2013  20:03:00      -90.553      -48.674       -5.456       15.567       13.785       12.270      242.347      190.030      150.541        0.559        0.029      102.806        8.778        0.007      334.494        4.503      872.220
12/23/2013  20:04:00      -35.845      -33.239        1.819       29.727       18.724       15.998      883.682      350.589      255.940        0.194        0.075       48.884       12.441        0.065      334.430        4.398      872.214
12/23/2013  20:05:00      -53.023      -35.075       -2.089       20.757       16.599       14.583      430.867      275.525      212.659        0.248        0.046       63.575        9.291        0.021      334.382        4.321      872.207
12/23/2013  20:06:00      -79.236      -58.035        2.954       37.078       31.289       20.469     1374.763      978.998      418.995        0.621        0.139       98.216       20.339        0.043      334.339        4.246      872.208
12/23/2013  20:07:00     -107.030      -66.657       -9.293       29.617       21.735       18.581      877.142      472.407      345.269        0.884        0.085      126.090       15.908        0.016      334.432        4.402      872.205
12/23/2013  20:08:00     -126.899      -48.764        0.407       26.844       24.324       17.395      720.604      591.658      302.602        1.005        0.081      135.946       12.252        0.008      334.396        4.343      872.218
12/23/2013  20:09:00     -127.665      -45.322       -0.639       34.825       25.312       15.979     1212.775      640.676      255.321        1.023        0.105      135.471       17.908        0.017      334.382        4.318      872.231
12/23/2013  20:10:00     -124.226      -21.739       -9.548       32.124       26.190       17.241     1031.965      685.908      297.262        0.901        0.101      126.114       17.727        0.020      334.309        4.197      872.237
12/23/2013  20:11:00     -125.903      -50.243      -10.240       24.902       13.316       12.629      620.089      177.313      159.501        0.972        0.048      135.558       11.087        0.007      334.229        4.062      872.241
12/23/2013  20:12:00      -97.694      -59.916      -15.998       20.178       19.929       13.190      407.141      397.146      173.984        0.718        0.049      114.604        6.382        0.003      334.129        3.897      872.252
12/23/2013  20:13:00     -119.437      -64.030      -11.909       13.502       17.148        9.802      182.316      294.046       96.080        0.954        0.029      135.517        3.916        0.001      334.340        4.249      872.278
12/23/2013  20:14:00     -120.068      -56.472      -15.466       14.510       19.364       13.225      210.539      374.947      174.902        0.930        0.038      132.685        5.835        0.002      334.217        4.044      872.308
12/23/2013  20:15:00     -111.413      -29.122      -13.512       20.524       19.217       14.681      421.214      369.275      215.535        0.722        0.050      115.156       11.919        0.011      334.147        3.928      872.337
12/23/2013  20:16:00     -136.458      -18.739       -6.586       40.352       26.326       20.158     1628.323      693.063      406.352        1.087        0.136      137.739       20.077        0.021      334.030        3.734      872.361
12/23/2013  20:17:00      -91.715       -4.589       -2.737       48.520       39.942       27.902     2354.145     1595.380      778.539        0.658        0.236       91.830       25.248        0.076      334.126        3.893      872.382
12/23/2013  20:18:00      -91.138      -48.037       -1.304       41.427       35.644       20.817     1716.190     1270.479      433.354        0.702        0.171      103.022       19.354        0.035      334.119        3.881      872.400
12/23/2013  20:19:00     -119.934      -20.870       -3.350       37.910       28.938       18.641     1437.182      837.403      347.470        0.873        0.131      121.736       15.405        0.016      334.142        3.919      872.410
12/23/2013  20:20:00      -89.109      -39.060       -9.386       20.064       25.944       15.251      402.547      673.101      232.588        0.543        0.065       97.294        7.174        0.005      334.149        3.931      872.426
12/23/2013  20:21:00     -100.353      -34.632       -9.047       26.522       26.701       13.745      703.401      712.943      188.935        0.648        0.080      106.161       14.794        0.019      334.115        3.874      872.440
12/23/2013  20:22:00      -83.764        2.429       -3.748       51.904       33.928       25.818     2694.033     1151.142      666.568        0.577        0.226       83.799       28.803        0.118      334.129        3.900      872.456
12/23/2013  20:23:00     -133.708       20.030      -17.343       62.509       37.588       27.516     3907.399     1412.883      757.139        1.233        0.304      135.200       26.791        0.039      334.280        4.149      872.474
12/23/2013  20:24:00     -141.381      -13.473      -11.948       43.533       43.388       28.613     1895.156     1882.557      818.728        1.245        0.230      142.022       25.624        0.033      334.214        4.039      872.473
12/23/2013  20:25:00     -116.487      -29.108       -1.595       47.487       38.112       23.404     2255.006     1452.551      547.747        0.934        0.213      120.069       24.365        0.041      334.106        3.861      872.465
12/23/2013  20:26:00     -145.937      -35.122      -11.239       39.419       34.734       25.628     1553.829     1206.438      656.818        1.304        0.171      150.104       21.113        0.020      334.105        3.857      872.450
12/23/2013  20:27:00     -151.727      -22.693      -12.084       52.845       35.907       29.093     2792.615     1289.294      846.416        1.430        0.246      153.415       29.162        0.036      334.028        3.730      872.441
12/23/2013  20:28:00      -88.649       10.601        1.103       62.517       46.369       35.456     3908.389     2150.117     1257.129        0.764        0.366       89.281       26.616        0.089      334.135        3.907      872.447
12/23/2013  20:29:00     -149.771       52.780      -14.341       70.267       41.177       35.906     4937.401     1695.557     1289.260        1.667        0.396      158.798       35.329        0.049      334.272        4.134      872.450
12/23/2013  20:30:00     -135.194       50.113       -8.343       71.093       39.124       30.998     5054.186     1530.698      960.891        1.420        0.377      144.183       29.111        0.041      334.236        4.074      872.442
12/23/2013  20:31:00     -118.678       28.630       -9.818       46.721       43.981       32.060     2182.806     1934.372     1027.873        1.007        0.257      122.082       23.269        0.036      334.188        3.995      872.431
12/23/2013  20:32:00      -74.974       -4.900        5.668       61.826       41.823       27.364     3822.423     1749.125      748.795        0.600        0.316       75.134       32.287        0.185      334.142        3.919      872.423
12/23/2013  20:33:00      -47.733       -8.729        4.476       32.279       34.617       18.159     1041.910     1198.367      329.743        0.247        0.129       48.524       15.422        0.101      334.080        3.816      872.427
12/23/2013  20:34:00      -86.453      -16.438      -16.762       24.224       13.606       12.894      586.812      185.113      166.250        0.448        0.047       88.001        9.864        0.013      334.014        3.708      872.420
12/23/2013  20:35:00      -68.561      -27.307      -18.621       13.928       20.366       13.380      193.977      414.792      179.014        0.329        0.039       73.799        8.383        0.013      334.020        3.717      872.416
12/23/2013  20:36:00      -93.031      -30.392      -29.030       24.237       22.334       12.924      587.448      498.815      167.025        0.584        0.063       97.870       10.104        0.011      334.072        3.805      872.415
12/23/2013  20:37:00     -107.873      -33.795      -23.150       22.153       23.587       12.926      490.737      556.361      167.075        0.726        0.061      113.043        2.419        0.000      333.970        3.636      872.420
12/23/2013  20:38:00      -73.110      -14.066       -7.411       40.897       40.687       27.429     1672.599     1655.396      752.330        0.484        0.204       74.450       22.343        0.090      333.966        3.629      872.435
12/23/2013  20:39:00      -86.215        0.956      -14.113       41.688       39.449       24.204     1737.876     1556.188      585.838        0.576        0.194       86.220       26.081        0.092      334.186        3.993      872.436
12/23/2013  20:40:00      -62.601        0.403      -14.593       35.370       30.589       19.856     1251.032      935.708      394.251        0.336        0.129       62.602       15.963        0.065      334.404        4.354      872.423
12/23/2013  20:41:00      -55.800       -7.185      -13.712       30.410       22.537       15.185      924.790      507.932      230.580        0.251        0.083       56.261       13.808        0.060      334.312        4.202      872.402
12/23/2013  20:42:00      -93.957      -26.160      -14.166       18.315       16.353       12.245      335.454      267.407      149.945        0.523        0.038       97.530        7.815        0.006      334.030        3.734      872.379
12/23/2013  20:43:00      -95.135      -34.874      -22.049       26.289       25.890       15.801      691.093      670.273      249.666        0.618        0.081      101.325       11.258        0.012      334.017        3.710      872.364
12/23/2013  20:44:00      -80.915      -38.318      -17.714       43.421       25.310       18.460     1885.373      640.606      340.760        0.560        0.143       89.529       20.531        0.053      334.040        3.752      872.348
12/23/2013  20:45:00      -94.185      -26.253      -22.656       29.554       21.516       17.760      873.423      462.932      315.413        0.586        0.083       97.775       13.360        0.019      334.048        3.764      872.335
12/23/2013  20:46:00      -57.994      -48.791       -6.820       33.209       27.253       19.246     1102.809      742.717      370.390        0.400        0.111       75.788       17.051        0.051      334.049        3.764      872.355
12/23/2013  20:47:00     -110.984      -21.012      -16.484       35.561       34.058       18.584     1264.588     1159.938      345.365        0.790        0.138      112.956       12.292        0.012      334.016        3.713      872.380
12/23/2013  20:48:00     -116.364      -11.959      -18.147       37.525       24.801       20.522     1408.112      615.083      421.137        0.823        0.122      116.977       17.482        0.022      334.032        3.738      872.400
12/23/2013  20:49:00     -120.580      -36.444      -20.129       36.791       27.627       20.563     1353.552      763.243      422.851        0.941        0.127      125.967       14.575        0.013      333.963        3.625      872.408
12/23/2013  20:50:00     -153.464      -42.952      -16.596       33.876       40.781       24.591     1147.557     1663.102      604.711        1.454        0.171      159.362       14.646        0.008      333.943        3.589      872.409
12/23/2013  20:51:00      -59.180      -30.119       -7.774       58.090       29.305       26.084     3374.461      858.812      680.390        0.469        0.246       66.403       22.676        0.117      334.038        3.748      872.402
12/23/2013  20:52:00      -56.196      -36.175       -4.270       34.266       24.766       23.544     1174.136      613.356      554.313        0.341        0.117       66.833       19.542        0.085      334.013        3.706      872.397
12/23/2013  20:53:00     -119.281      -24.782      -22.947       27.455       28.597       14.315      753.760      817.780      204.914        0.857        0.089      121.829       14.953        0.015      334.049        3.765      872.374
12/23/2013  20:54:00     -100.392      -61.552      -24.352       18.349       21.788       17.445      336.695      474.698      304.330        0.779        0.056      117.759        9.837        0.007      334.097        3.845      872.355
12/23/2013  20:55:00     -114.086      -78.444      -19.505       32.938       20.438       18.705     1084.923      417.704      349.859        1.070        0.093      138.452       15.919        0.013      334.126        3.892      872.353
12/23/2013  20:56:00     -128.788      -88.105       -2.258       45.638       36.869       29.380     2082.792     1359.295      863.168        1.433        0.215      156.042       20.627        0.017      334.160        3.949      872.363
12/23/2013  20:57:00     -118.842      -78.239       -4.852       46.144       40.748       26.903     2129.246     1660.421      723.751        1.239        0.226      142.284       18.500        0.017      334.323        4.220      872.370
12/23/2013  20:58:00     -130.609      -74.013        2.261       45.762       33.460       23.432     2094.173     1119.553      549.059        1.315        0.188      150.123       20.741        0.019      334.164        3.956      872.363
12/23/2013  20:59:00     -105.612      -98.194       -7.231       53.973       45.004       31.157     2913.123     2025.397      970.728        1.338        0.295      144.208       27.977        0.038      334.104        3.855      872.358
12/23/2013  21:00:00     -131.721      -69.559       -3.569       40.183       36.738       21.596     1614.712     1349.655      466.380        1.282        0.172      148.960       19.663        0.017      334.037        3.746      872.354
12/23/2013  21:01:00     -106.172      -80.081       -4.884       42.375       26.148       22.643     1795.635      683.733      512.686        1.035        0.150      132.987       18.399        0.019      334.104        3.856      872.349
12/23/2013  21:02:00     -138.178      -73.905       -2.404       50.873       33.789       24.163     2588.073     1141.702      583.871        1.444        0.216      156.701       24.967        0.025      334.121        3.883      872.334
12/23/2013  21:03:00     -126.713      -87.700        2.435       40.985       32.763       26.877     1679.772     1073.409      722.367        1.361        0.174      154.102       26.306        0.029      334.103        3.855      872.318
12/23/2013  21:04:00     -109.901      -89.954       -0.830       36.821       37.353       22.989     1355.758     1395.249      528.492        1.172        0.164      142.021       19.686        0.019      334.182        3.986      872.294
12/23/2013  21:05:00      -65.053      -63.815        9.158       49.570       36.159       30.990     2457.196     1307.458      960.356        0.656        0.236       91.128       24.318        0.071      334.245        4.089      872.282
12/23/2013  21:06:00      -72.051      -52.277       10.145       39.604       35.104       28.516     1568.465     1232.274      813.176        0.582        0.181       89.018       24.258        0.074      334.283        4.155      872.277
12/23/2013  21:07:00      -99.252      -64.157        4.068       44.962       35.022       25.535     2021.539     1226.526      652.030        0.894        0.195      118.182       22.557        0.036      334.306        4.193      872.260
12/23/2013  21:08:00     -126.885      -67.460       -4.579       27.646       26.193       18.760      764.324      686.098      351.938        1.124        0.090      143.703       14.812        0.011      334.224        4.056      872.255
12/23/2013  21:09:00     -118.330      -74.307       -1.273       38.392       26.311       24.911     1473.913      692.274      620.545        1.116        0.139      139.727       20.532        0.022      334.204        4.023      872.251
12/23/2013  21:10:00      -73.478      -62.633        5.485       43.837       30.768       23.216     1921.701      946.691      538.979        0.638        0.170       96.550       16.666        0.030      334.189        3.997      872.269
12/23/2013  21:11:00     -124.634      -68.727       -6.188       23.868       21.548       15.308      569.694      464.302      234.339        1.078        0.063      142.327       13.540        0.009      334.208        4.029      872.280
12/23/2013  21:12:00     -137.082      -51.400       -8.000       20.756       21.821       15.155      430.825      476.157      229.679        1.132        0.057      146.402       12.608        0.007      334.144        3.923      872.295
12/23/2013  21:13:00     -122.553      -64.165       -0.726       31.809       28.501       19.285     1011.820      812.307      371.922        1.067        0.110      138.335       16.630        0.014      334.072        3.803      872.300
12/23/2013  21:14:00     -134.790      -61.643       -2.307       28.499       24.510       15.797      812.177      600.721      249.541        1.182        0.083      148.217       13.904        0.009      334.065        3.791      872.305
12/23/2013  21:15:00     -101.574      -49.319       -0.895       36.253       20.827       19.130     1314.298      433.754      365.952        0.743        0.106      112.914       19.174        0.029      334.039        3.749      872.294
12/23/2013  21:16:00     -113.691      -42.493       -4.970       26.496       14.921       10.268      702.063      222.632      105.437        0.789        0.052      121.373        6.791        0.003      334.064        3.790      872.286
12/23/2013  21:17:00     -101.235      -22.524       -5.202       22.437       12.604        9.680      503.424      158.848       93.710        0.577        0.038      103.711       10.604        0.010      334.020        3.718      872.282
12/23/2013  21:18:00      -88.658      -32.563       -6.469       14.717       14.649       11.407      216.596      214.597      130.111        0.476        0.028       94.449       10.766        0.013      334.015        3.709      872.286
12/23/2013  21:19:00      -81.825      -26.463      -11.171       13.654       17.711       11.375      186.427      313.675      129.398        0.407        0.031       85.998        2.946        0.001      333.938        3.583      872.303
12/23/2013  21:20:00      -90.752      -12.977       -9.710       22.275       23.615       15.046      496.173      557.653      226.367        0.489        0.064       91.675       12.139        0.018      333.919        3.549      872.313
12/23/2013  21:21:00      -70.032       -7.233       -7.647       25.100       21.185       18.799      630.018      448.785      353.388        0.322        0.072       70.405       18.214        0.067      333.974        3.643      872.320
12/23/2013  21:22:00      -84.970        5.315      -20.777       25.951       14.620       15.213      673.467      213.733      231.427        0.440        0.056       85.136        9.219        0.012      333.996        3.678      872.323
12/23/2013  21:23:00     -101.308       -5.309      -15.075       34.725       15.471       15.494     1205.829      239.339      240.079        0.610        0.084      101.447       18.032        0.032      333.955        3.611      872.321
12/23/2013  21:24:00      -90.568        0.401      -16.341       21.032       16.292       13.228      442.342      265.420      174.990        0.468        0.044       90.569        6.816        0.006      333.903        3.524      872.326
12/23/2013  21:25:00      -53.835      -19.156      -11.983        8.996       13.599        7.963       80.933      184.927       63.405        0.187        0.016       57.142        6.106        0.011      333.834        3.408      872.331
12/23/2013  21:26:00      -21.861       -0.704       -5.708       14.166        5.875        3.837      200.675       34.514       14.720        0.038        0.012       21.873        2.344        0.011      333.946        3.593      872.324
12/23/2013  21:27:00      -17.885       -3.131       -3.080        4.966        5.678        3.669       24.665       32.238       13.460        0.020        0.004       18.157        2.467        0.018      334.134        3.906      872.316
12/23/2013  21:28:00      -34.912      -23.580       -7.206       16.567       14.948        9.820      274.470      223.436       96.427        0.121        0.030       42.129        4.941        0.014      334.071        3.803      872.323
12/23/2013  21:29:00      -41.507      -30.349      -17.151       15.579       11.540        9.827      242.705      133.167       96.575        0.171        0.024       51.419        7.395        0.021      333.865        3.460      872.338
12/23/2013  21:30:00      -55.219      -23.427       -9.951        9.768       12.296        8.259       95.411      151.196       68.207        0.201        0.016       59.983        2.379        0.002      333.770        3.303      872.359
12/23/2013  21:31:00      -35.246        0.435       -8.382       40.152       13.427        8.193     1612.197      180.296       67.123        0.159        0.093       35.248        9.440        0.072      333.959        3.616      872.374
12/23/2013  21:32:00        2.132       13.177       -1.327       16.164       11.395        8.860      261.269      129.837       78.501        0.032        0.023       13.348        2.701        0.041      334.293        4.170      872.377
12/23/2013  21:33:00       35.239       21.639       -2.098       11.745       11.554        9.388      137.941      133.504       88.127        0.104        0.018       41.353        5.199        0.016      334.450        4.431      872.366
12/23/2013  21:34:00       39.565        6.194        1.713       13.315       12.669       11.482      177.299      160.515      131.842        0.104        0.023       40.047        5.840        0.021      334.293        4.170      872.351
12/23/2013  21:35:00       14.131        4.745        1.919       10.385        8.971        7.492      107.849       80.480       56.124        0.024        0.012       14.906        4.842        0.106      334.248        4.097      872.347
12/23/2013  21:36:00        8.731       11.026       -5.448        8.153       13.035        8.514       66.469      169.911       72.489        0.027        0.015       14.065        7.041        0.251      334.346        4.260      872.357
12/23/2013  21:37:00       -6.521        6.131        4.042       11.059        7.702        6.026      122.298       59.322       36.309        0.016        0.011        8.950        2.809        0.098      334.130        3.900      872.363
12/23/2013  21:38:00      -13.696       15.456        3.434       14.093       17.119        7.157      198.604      293.074       51.228        0.049        0.027       20.651        4.897        0.056      334.097        3.846      872.371
12/23/2013  21:39:00       -4.356       11.862        0.743        6.654        9.717        5.579       44.274       94.421       31.123        0.016        0.008       12.637        2.624        0.043      334.251        4.101      872.363
12/23/2013  21:40:00      -16.574       -8.916        3.403       11.541       12.661        5.937      133.203      160.306       35.244        0.035        0.016       18.820        4.308        0.052      334.155        3.942      872.343
12/23/2013  21:41:00      -40.900      -22.501       -6.894       16.267       10.426        7.395      264.617      108.701       54.693        0.133        0.021       46.681        3.248        0.005      334.096        3.843      872.328
12/23/2013  21:42:00      -65.128      -14.915      -11.539        8.941        9.983        7.509       79.941       99.652       56.378        0.242        0.012       66.814        5.370        0.006      333.852        3.441      872.323
12/23/2013  21:43:00      -63.509      -12.719      -12.594        8.262        6.883        6.441       68.263       47.374       41.483        0.226        0.008       64.770        3.047        0.002      333.819        3.383      872.322
12/23/2013  21:44:00      -56.421       -8.708      -12.475        8.468        8.354        7.032       71.710       69.791       49.454        0.180        0.010       57.089        5.590        0.010      333.815        3.379      872.327
12/23/2013  21:45:00      -58.476      -13.429       -9.709        6.684        9.371        4.672       44.678       87.807       21.830        0.192        0.008       59.999        3.051        0.003      333.835        3.411      872.330
12/23/2013  21:46:00      -64.429      -24.256      -11.886        8.001       13.421        7.917       64.011      180.133       62.681        0.259        0.015       68.844        7.121        0.011      333.802        3.356      872.337
12/23/2013  21:47:00     -100.843      -31.748      -10.489       25.297        9.252        7.213      639.956       85.597       52.021        0.603        0.039      105.723        4.441        0.002      333.673        3.142      872.342
12/23/2013  21:48:00     -132.282      -37.065      -10.991       17.427       14.448        9.332      303.698      208.731       87.089        0.980        0.030      137.377        4.607        0.001      333.691        3.172      872.353
12/23/2013  21:49:00      -83.231      -57.907       -3.937       28.540       16.016       13.794      814.553      256.503      190.263        0.578        0.063      101.394        8.281        0.007      333.693        3.175      872.370
12/23/2013  21:50:00      -80.192      -63.051       -6.094       25.180       27.653       17.024      634.036      764.690      289.814        0.607        0.084      102.010       17.282        0.029      333.719        3.217      872.374
12/23/2013  21:51:00      -93.172      -77.126      -12.314       26.187       30.000       17.068      685.778      899.972      291.317        0.833        0.094      120.952       14.689        0.015      334.024        3.724      872.378
12/23/2013  21:52:00      -69.049      -25.914       -4.021       14.807       17.808       13.579      219.248      317.118      184.389        0.309        0.036       73.752       10.388        0.020      333.923        3.557      872.375
12/23/2013  21:53:00      -51.663      -27.808        3.469       18.397       22.095       15.298      338.468      488.199      234.038        0.226        0.053       58.671        6.274        0.011      333.804        3.359      872.371
12/23/2013  21:54:00      -45.107      -46.288        4.539       36.560       30.090       16.707     1336.625      905.388      279.117        0.336        0.126       64.632       14.752        0.052      333.866        3.464      872.371
12/23/2013  21:55:00      -91.856      -49.799       -2.645       37.740       34.466       20.839     1424.312     1187.928      434.246        0.699        0.152      104.487       18.529        0.031      333.816        3.380      872.389
12/23/2013  21:56:00      -63.564       -6.011       -2.041       33.396       20.813       20.458     1115.277      433.161      418.550        0.302        0.098       63.848       19.573        0.094      333.681        3.154      872.443
12/23/2013  21:57:00      -59.224       21.638       -7.663       25.493       23.467       14.053      649.892      550.698      197.489        0.272        0.070       63.053        9.978        0.025      333.726        3.229      872.491
12/23/2013  21:58:00      -58.096       11.547       -7.034       16.942       15.699        8.989      287.038      246.461       80.795        0.209        0.031       59.232        6.743        0.013      333.817        3.380      872.516
12/23/2013  21:59:00      -67.969        5.884       -4.175       11.434       17.996        9.738      130.747      323.867       94.826        0.261        0.027       68.223        5.544        0.007      333.899        3.519      872.505
12/23/2013  22:00:00      -29.084      -31.680        1.194       24.539       14.272       10.730      602.186      203.689      115.141        0.139        0.046       43.006        9.917        0.053      333.866        3.463      872.481
12/23/2013  22:01:00      -26.348      -19.717        3.940       23.007       17.329       19.430      529.332      300.298      377.519        0.115        0.060       32.909       17.914        0.296      333.753        3.275      872.455
12/23/2013  22:02:00      -48.554      -24.241        4.111       31.285       17.229       10.847      978.725      296.829      117.660        0.218        0.070       54.270       13.823        0.065      333.794        3.343      872.455
12/23/2013  22:03:00      -58.259       -3.718        0.150       28.463       26.697       10.594      810.127      712.750      112.224        0.252        0.082       58.378       13.958        0.057      333.762        3.288      872.460
12/23/2013  22:04:00      -89.540       11.043       -8.754       12.884        8.802        7.994      166.004       77.483       63.905        0.426        0.015       90.218        2.390        0.001      333.654        3.110      872.486
12/23/2013  22:05:00      -68.390        5.734      -14.360       17.264       13.335        9.650      298.059      177.822       93.117        0.274        0.028       68.630        7.882        0.013      333.709        3.201      872.498
12/23/2013  22:06:00      -91.731      -14.938      -10.819        9.339       13.161        8.253       87.215      173.200       68.110        0.454        0.016       92.940        6.294        0.005      333.793        3.341      872.493
12/23/2013  22:07:00      -78.604      -38.052        0.810       24.466       11.424       13.513      598.585      130.515      182.605        0.427        0.046       87.330       16.406        0.035      333.764        3.293      872.472
12/23/2013  22:08:00      -42.515      -22.864        7.194       30.361       17.132       14.862      921.770      293.489      220.891        0.191        0.072       48.273       16.880        0.122      333.708        3.199      872.451
12/23/2013  22:09:00      -44.750      -21.665        2.810       20.565       12.529        7.688      422.912      156.988       59.098        0.156        0.032       49.719        8.716        0.031      333.705        3.194      872.448
12/23/2013  22:10:00      -52.573      -19.116       -3.694        9.077        6.987        4.961       82.387       48.824       24.612        0.165        0.008       55.940        2.132        0.001      333.749        3.269      872.444
12/23/2013  22:11:00      -54.169      -23.547       -3.540        7.687        9.261        4.831       59.091       85.772       23.335        0.183        0.008       59.066        3.899        0.004      333.733        3.242      872.446
12/23/2013  22:12:00      -66.735      -22.169       -3.210       22.746        8.756        7.843      517.392       76.669       61.518        0.281        0.033       70.320        8.709        0.015      333.644        3.092      872.450
12/23/2013  22:13:00      -92.470      -21.762       -7.180       19.482       10.521       11.470      379.533      110.686      131.561        0.485        0.031       94.996       12.878        0.018      333.596        3.015      872.440
12/23/2013  22:14:00      -85.699      -20.477       -1.985       10.818       13.659        8.581      117.036      186.556       73.627        0.407        0.019       88.112        5.249        0.004      333.542        2.924      872.435
12/23/2013  22:15:00      -73.451      -27.051       -8.085       18.092       15.408        9.023      327.328      237.394       81.415        0.342        0.032       78.274        4.724        0.004      333.533        2.910      872.435
12/23/2013  22:16:00      -75.849      -13.041       -4.161       15.461       15.562       10.384      239.037      242.174      107.835        0.326        0.029       76.962        6.611        0.007      333.437        2.749      872.454
12/23/2013  22:17:00      -73.084       -6.660       -4.326       16.149       13.364       13.798      260.788      178.594      190.373        0.302        0.031       73.387       10.102        0.019      333.415        2.714      872.482
12/23/2013  22:18:00      -84.374       -9.507       -8.347       20.994       15.878       13.028      440.762      252.115      169.732        0.407        0.043       84.908       11.721        0.019      333.407        2.699      872.512
12/23/2013  22:19:00      -68.182       -9.023       -7.007       23.751       19.413       12.783      564.121      376.880      163.414        0.294        0.055       68.776       10.124        0.022      333.429        2.738      872.533
12/23/2013  22:20:00      -43.794      -13.196       -8.524       13.725       12.039        9.114      188.388      144.927       83.058        0.129        0.021       45.739        6.523        0.020      333.405        2.699      872.555
12/23/2013  22:21:00      -60.632      -13.601       -9.700       14.987       13.968       10.675      224.622      195.099      113.965        0.224        0.027       62.138        6.511        0.011      333.330        2.573      872.566
12/23/2013  22:22:00      -53.517      -12.286       -6.682       20.021       21.241       12.551      400.824      451.159      157.540        0.203        0.050       54.909        8.395        0.023      333.289        2.505      872.564
12/23/2013  22:23:00      -79.990      -18.821      -12.511       11.934       11.793        9.347      142.415      139.082       87.367        0.364        0.018       82.174        5.443        0.004      333.250        2.440      872.567
12/23/2013  22:24:00      -74.410       -7.358       -6.524       23.173       16.697       12.989      537.006      278.783      168.726        0.331        0.049       74.773       14.484        0.038      333.208        2.372      872.573
12/23/2013  22:25:00     -107.008       -2.574      -17.391       16.621        9.866        8.869      276.247       97.329       78.656        0.611        0.023      107.039        5.388        0.003      333.252        2.444      872.576
12/23/2013  22:26:00      -89.920      -10.515      -13.964       19.083       15.292       10.494      364.159      233.842      110.131        0.455        0.035       90.533        6.580        0.005      333.243        2.429      872.581
12/23/2013  22:27:00     -124.742      -14.824      -15.617       25.158       12.398       12.134      632.937      153.710      147.224        0.848        0.047      125.619       10.446        0.007      333.316        2.550      872.596
12/23/2013  22:28:00     -108.263      -18.032      -13.384       22.807       18.740       17.468      520.170      351.172      305.131        0.670        0.059      109.755       12.488        0.013      333.227        2.402      872.599
12/23/2013  22:29:00     -102.214      -30.207       -7.710       21.669       23.243       19.129      469.543      540.246      365.907        0.640        0.069      106.584       13.606        0.016      333.218        2.389      872.591
12/23/2013  22:30:00     -100.569      -36.143       -6.761       16.103       23.312       15.008      259.306      543.443      225.232        0.625        0.051      106.866        5.159        0.002      333.208        2.371      872.569
12/23/2013  22:31:00      -91.011      -30.014       -9.644       27.370       20.963       20.839      749.096      439.438      434.281        0.545        0.081       95.832       17.780        0.034      333.228        2.403      872.546
12/23/2013  22:32:00      -81.151      -24.817      -10.936       22.201       17.431       16.630      492.892      303.855      276.561        0.420        0.054       84.861       14.202        0.028      333.160        2.293      872.524
12/23/2013  22:33:00      -79.692      -23.491       -4.847       26.103       21.516       14.832      681.366      462.943      220.002        0.414        0.068       83.082       13.965        0.028      333.230        2.408      872.528
12/23/2013  22:34:00      -63.495      -11.428       -2.913       32.265       18.883       14.773     1041.023      356.561      218.232        0.289        0.081       64.515       13.515        0.044      333.357        2.618      872.526
12/23/2013  22:35:00      -47.191      -11.876       -3.769       26.743       20.472       16.647      715.167      419.119      277.112        0.190        0.071       48.662       16.048        0.109      333.474        2.812      872.530
12/23/2013  22:36:00      -29.520      -34.783       -1.319       27.582       16.197       15.242      760.750      262.327      232.333        0.167        0.063       45.621       14.950        0.107      333.419        2.722      872.530
12/23/2013  22:37:00      -61.539      -35.830       -7.006       21.036       20.467       15.187      442.525      418.895      230.638        0.311        0.055       71.210        7.801        0.012      333.417        2.718      872.533
12/23/2013  22:38:00      -89.094      -18.724      -12.033       14.854       12.282        8.081      220.628      150.845       65.305        0.443        0.022       91.040        7.079        0.006      333.301        2.525      872.541
12/23/2013  22:39:00      -98.254      -41.404      -14.698       16.409       17.293       10.899      269.257      299.042      118.784        0.614        0.034      106.621        8.101        0.006      333.297        2.518      872.554
12/23/2013  22:40:00      -85.668      -35.255      -11.194       18.450       18.023       10.242      340.391      324.831      104.889        0.474        0.039       92.639       10.333        0.012      333.285        2.499      872.567
12/23/2013  22:41:00     -111.121       -1.464      -15.236       15.957       11.928       11.421      254.625      142.277      130.439        0.655        0.026      111.130        5.619        0.003      333.409        2.704      872.579
12/23/2013  22:42:00      -90.127       -9.847      -10.590       25.063       22.007       13.699      628.129      484.291      187.669        0.482        0.065       90.664       12.336        0.019      333.416        2.717      872.575
12/23/2013  22:43:00     -135.259      -30.533      -19.944       21.592       22.015       14.398      466.226      484.652      207.304        1.039        0.058      138.663       11.691        0.007      333.340        2.591      872.571
12/23/2013  22:44:00     -140.622      -36.215      -11.139       40.793       29.037       21.290     1664.038      843.171      453.244        1.208        0.148      145.211       22.215        0.023      333.179        2.325      872.566
12/23/2013  22:45:00     -123.605      -29.429      -16.288       31.132       30.427       22.127      969.228      925.795      489.599        0.940        0.119      127.060       19.053        0.022      333.123        2.232      872.562
12/23/2013  22:46:00     -138.168       -6.392      -14.554       17.786       13.116       17.033      316.330      172.022      290.124        1.006        0.039      138.315        7.687        0.003      333.181        2.327      872.553
12/23/2013  22:47:00      -97.029       -7.334       -6.961       30.166       23.079       19.080      910.001      532.619      364.050        0.566        0.090       97.306       17.380        0.032      333.181        2.326      872.554
12/23/2013  22:48:00      -70.207        8.041        3.532       45.240       38.525       21.657     2046.689     1484.159      469.046        0.450        0.200       70.666       20.460        0.084      333.336        2.583      872.558
12/23/2013  22:49:00     -120.325       39.658       -9.922       57.192       36.544       23.679     3270.954     1335.460      560.709        1.066        0.258      126.692       17.131        0.018      333.605        3.028      872.565
12/23/2013  22:50:00     -153.166       58.462      -16.679       50.834       37.175       27.003     2584.061     1382.014      729.174        1.592        0.235      163.944       18.564        0.013      333.573        2.976      872.571
12/23/2013  22:51:00     -186.531       38.040      -10.990       44.377       34.689       22.889     1969.288     1203.298      523.890        2.003        0.185      190.370       18.041        0.009      333.527        2.899      872.565
12/23/2013  22:52:00     -117.600      -36.593      -10.088       32.968       38.307       18.739     1086.901     1467.437      351.146        0.909        0.145      123.162       15.613        0.016      333.377        2.651      872.564
12/23/2013  22:53:00     -106.204      -38.033       -1.015       41.340       31.471       21.903     1708.975      990.408      479.749        0.795        0.159      112.808       17.193        0.023      333.340        2.591      872.568
12/23/2013  22:54:00     -117.231      -56.595       -5.145       39.612       36.559       22.630     1569.134     1336.535      512.105        1.019        0.171      130.177       16.360        0.016      333.240        2.424      872.575
12/23/2013  22:55:00     -144.480      -45.022      -16.915       33.233       30.632       19.161     1104.426      938.305      367.138        1.280        0.120      151.333       11.770        0.006      333.146        2.269      872.563
12/23/2013  22:56:00      -84.531      -46.688       -6.268       33.089       29.547       26.186     1094.880      873.040      685.693        0.601        0.133       96.568       16.289        0.028      333.174        2.314      872.537
12/23/2013  22:57:00     -132.707      -54.560      -10.311       36.829       43.066       22.415     1356.387     1854.683      502.431        1.220        0.186      143.485       12.932        0.008      333.185        2.333      872.517
12/23/2013  22:58:00     -157.244      -24.261      -10.829       37.325       32.602       20.685     1393.152     1062.878      427.850        1.416        0.144      159.105       15.344        0.009      333.120        2.227      872.505
12/23/2013  22:59:00     -121.000      -14.736       -1.450       58.179       38.115       24.366     3384.834     1452.717      593.692        1.014        0.272      121.894       22.310        0.033      333.228        2.404      872.501
12/23/2013  23:00:00     -151.413        4.492      -15.557       37.833       33.191       27.358     1431.343     1101.612      748.433        1.323        0.164      151.479       22.992        0.023      333.309        2.539      872.497
12/23/2013  23:01:00     -119.839       -5.858      -11.709       33.758       27.626       22.334     1139.595      763.211      498.786        0.847        0.120      119.982       20.726        0.030      333.195        2.348      872.492
12/23/2013  23:02:00     -119.433      -45.002       -4.275       27.984       25.071       18.210      783.083      628.550      331.596        0.903        0.087      127.630       16.187        0.016      333.182        2.330      872.493
12/23/2013  23:03:00     -124.008      -28.308       -9.911       32.879       21.191       18.048     1081.049      449.038      325.721        0.907        0.093      127.198       14.464        0.013      333.187        2.335      872.489
12/23/2013  23:04:00     -127.101      -23.056       -8.237       28.834       30.213       17.198      831.425      912.830      295.779        0.940        0.102      129.175       14.189        0.012      333.180        2.325      872.490
12/23/2013  23:05:00     -148.195      -15.089      -13.807       18.464       11.126       10.053      340.937      123.780      101.063        1.147        0.028      148.962       11.683        0.006      333.229        2.406      872.486
12/23/2013  23:06:00      -77.889      -14.486       -2.107       43.074       19.729       15.998     1855.411      389.249      255.949        0.439        0.125       79.225       21.319        0.072      333.211        2.378      872.465
12/23/2013  23:07:00      -87.981      -15.638       -4.441       36.376       20.126       15.959     1323.241      405.058      254.689        0.499        0.099       89.360       17.556        0.039      333.247        2.435      872.450
12/23/2013  23:08:00      -95.196       -0.605       -9.773       43.591       22.649       21.537     1900.196      512.988      463.860        0.602        0.144       95.198       11.126        0.014      333.460        2.789      872.442
12/23/2013  23:09:00      -87.931       -7.784       -3.333       36.970       29.967       17.998     1366.761      898.006      323.934        0.520        0.129       88.275       13.964        0.025      333.466        2.795      872.441
12/23/2013  23:10:00      -64.616      -32.232       -5.019       50.038       34.155       21.793     2503.775     1166.566      474.942        0.469        0.207       72.209       25.104        0.121      333.372        2.644      872.430
12/23/2013  23:11:00     -118.621      -51.116        2.581       43.314       32.050       21.097     1876.108     1027.207      445.070        1.002        0.167      129.166       23.033        0.032      333.347        2.602      872.416
12/23/2013  23:12:00     -153.454      -42.095       -7.180       28.511       21.902       11.945      812.903      479.709      142.672        1.340        0.072      159.123        8.203        0.003      333.368        2.637      872.407
12/23/2013  23:13:00     -108.843      -25.176       -2.541       29.829       20.240       13.772      889.763      409.657      189.681        0.699        0.074      111.716       14.692        0.017      333.316        2.550      872.401
12/23/2013  23:14:00      -97.328      -27.972       -2.586       24.803       13.946       14.444      615.190      194.488      208.625        0.564        0.051      101.268       14.712        0.021      333.267        2.468      872.396
12/23/2013  23:15:00     -110.389      -54.882       -4.407       23.325       21.275       15.893      544.074      452.621      252.574        0.823        0.062      123.280        9.435        0.006      333.232        2.410      872.399
12/23/2013  23:16:00     -113.439      -77.754        1.292       41.840       30.161       22.646     1750.585      909.697      512.853        1.104        0.159      137.528       22.795        0.027      333.256        2.453      872.398
12/23/2013  23:17:00     -151.052      -53.529       -3.760       31.130       19.850       14.661      969.085      394.006      214.949        1.364        0.079      160.256       13.485        0.007      333.298        2.521      872.410
12/23/2013  23:18:00     -129.937      -28.235       -2.615       30.769       22.459       19.344      946.737      504.403      374.196        0.976        0.091      132.970       17.304        0.017      333.329        2.572      872.401
12/23/2013  23:19:00     -101.456      -45.449        1.606       32.808       26.594       18.720     1076.361      707.262      350.445        0.725        0.107      111.171       18.934        0.029      333.323        2.562      872.384
12/23/2013  23:20:00     -125.685      -50.274       -3.990       25.754       23.211       13.710      663.246      538.729      187.969        0.986        0.069      135.367       12.605        0.009      333.329        2.572      872.378
12/23/2013  23:21:00     -138.148      -63.130       -7.359       22.426       20.703       12.385      502.944      428.616      153.380        1.210        0.054      151.889       10.367        0.005      333.350        2.608      872.383
12/23/2013  23:22:00     -146.831      -52.454       -6.388       36.783       25.170       18.410     1353.012      633.523      338.928        1.334        0.116      155.919       14.745        0.009      333.413        2.711      872.400
12/23/2013  23:23:00      -31.271      -31.312        9.960       44.641       33.498       23.737     1992.797     1122.096      563.439        0.287        0.184       44.252       20.100        0.206      333.368        2.636      872.424
12/23/2013  23:24:00     -144.357      -87.032        4.895       48.511       34.048       27.504     2353.280     1159.288      756.480        1.635        0.213      168.563       22.688        0.018      333.261        2.458      872.432
12/23/2013  23:25:00     -139.249      -55.096        5.009       43.524       28.573       21.853     1894.305      816.441      477.571        1.282        0.159      149.753       20.377        0.019      333.362        2.627      872.426
12/23/2013  23:26:00      -88.546      -50.700        5.058       43.361       31.461       25.614     1880.188      989.775      656.084        0.698        0.176      102.033       25.857        0.064      333.328        2.571      872.410
12/23/2013  23:27:00     -109.029      -51.959        1.612       40.262       32.959       20.555     1621.004     1086.290      422.489        0.886        0.156      120.777       18.762        0.024      333.329        2.571      872.404
12/23/2013  23:28:00     -115.939      -43.447        3.178       38.349       28.797       18.821     1470.637      829.240      354.246        0.900        0.133      123.812       21.128        0.029      333.321        2.559      872.398
12/23/2013  23:29:00     -138.765      -37.760       -7.698       18.802       26.658       14.777      353.531      710.670      218.365        1.101        0.064      143.811       10.713        0.006      333.453        2.777      872.406
12/23/2013  23:30:00     -119.585       -3.842      -15.592       24.967       22.310       15.325      623.369      497.734      234.858        0.796        0.068      119.647        4.648        0.002      333.417        2.717      872.410
12/23/2013  23:31:00     -100.473      -24.971       -4.095       38.411       28.081       17.631     1475.373      788.517      310.853        0.665        0.129      103.529       17.629        0.029      333.418        2.720      872.404
12/23/2013  23:32:00     -108.142      -61.636      -11.033       26.518       25.463       14.189      703.189      648.340      201.341        0.858        0.078      124.474       10.875        0.008      333.382        2.659      872.394
12/23/2013  23:33:00      -96.548      -63.566       -2.889       21.279       17.610       11.362      452.815      310.113      129.090        0.713        0.045      115.595        7.679        0.004      333.317        2.552      872.371
12/23/2013  23:34:00     -101.296      -45.297       -8.389       12.879       11.072        7.006      165.862      122.597       49.090        0.636        0.017      110.963        3.888        0.001      333.322        2.561      872.346
12/23/2013  23:35:00      -96.894      -34.639       -9.004        9.961       13.056        8.440       99.214      170.452       71.238        0.551        0.017      102.899        6.359        0.004      333.237        2.419      872.323
12/23/2013  23:36:00     -113.891      -27.581       -6.510       11.069       13.866       10.139      122.513      192.253      102.800        0.710        0.021      117.183        6.635        0.003      333.221        2.393      872.315
12/23/2013  23:37:00      -79.099      -16.594       -3.550       16.865       21.301       12.033      284.440      453.748      144.787        0.371        0.044       80.820        9.801        0.015      333.190        2.343      872.313
12/23/2013  23:38:00      -48.844       -0.037       -4.999       12.140        7.630        7.328      147.376       58.217       53.704        0.133        0.013       48.844        5.708        0.014      333.287        2.501      872.311
12/23/2013  23:39:00      -26.357      -11.470       -2.349       10.006        8.436        5.746      100.110       71.163       33.018        0.052        0.010       28.744        3.516        0.015      333.480        2.822      872.318
12/23/2013  23:40:00      -25.102      -21.883       -4.636        8.525        4.853        5.401       72.674       23.554       29.169        0.063        0.006       33.301        4.459        0.018      333.440        2.757      872.327
12/23/2013  23:41:00      -20.924      -18.049       -1.807       11.045        8.674        8.302      121.997       75.244       68.928        0.052        0.013       27.633        8.545        0.096      333.408        2.703      872.345
12/23/2013  23:42:00       -0.662      -11.653        2.659        6.863        8.989        5.670       47.098       80.793       32.154        0.015        0.008       11.672        3.235        0.077      333.449        2.771      872.343
12/23/2013  23:43:00        5.006        8.992        0.412        4.574        6.143        3.478       20.919       37.738       12.096        0.009        0.004       10.292        0.816        0.006      333.581        2.988      872.343
12/23/2013  23:44:00       18.007       18.070        8.195        7.720        4.466        7.223       59.600       19.947       52.169        0.042        0.007       25.510        4.810        0.036      333.423        2.727      872.340
12/23/2013  23:45:00        8.549       22.081       -0.102        4.771        6.835        3.247       22.764       46.718       10.545        0.032        0.004       23.678        2.485        0.011      333.499        2.855      872.349
12/23/2013  23:46:00       -5.511       31.069       -1.671        6.378        6.632        3.135       40.678       43.990        9.829        0.055        0.005       31.554        3.070        0.009      333.533        2.909      872.348
12/23/2013  23:47:00       -3.207       24.399        1.126        5.453        7.299        7.099       29.734       53.280       50.393        0.037        0.007       24.609        3.446        0.020      333.500        2.856      872.342
12/23/2013  23:48:00      -28.655       32.249       -3.708       25.534       14.249       10.705      651.974      203.021      114.603        0.142        0.048       43.140       12.010        0.078      333.419        2.721      872.335
12/23/2013  23:49:00      -29.977       30.784       -5.479       15.381       18.717        7.790      236.564      350.341       60.679        0.126        0.032       42.968        8.338        0.038      333.333        2.577      872.322
12/23/2013  23:50:00      -54.504       53.574      -13.169       12.668       24.414        9.578      160.472      596.057       91.741        0.343        0.042       76.426        8.058        0.011      333.433        2.743      872.310
12/23/2013  23:51:00      -55.167       62.610      -11.149       12.900       17.437       12.213      166.404      304.049      149.159        0.385        0.031       83.447        9.391        0.013      333.314        2.547      872.291
12/23/2013  23:52:00      -28.176       45.183       -5.294       17.871       17.603       10.954      319.374      309.857      119.981        0.181        0.037       53.249        6.881        0.017      333.357        2.618      872.270
12/23/2013  23:53:00      -44.825       33.900       -7.789       20.050       24.030       10.299      402.009      577.432      106.066        0.215        0.054       56.200       10.683        0.036      333.441        2.757      872.255
12/23/2013  23:54:00      -23.174       51.101        1.434       19.618       27.324       18.305      384.868      746.593      335.083        0.231        0.073       56.110       15.004        0.072      333.556        2.947      872.249
12/23/2013  23:55:00       25.427      140.472      -26.344       21.555       56.445       17.715      464.639     3186.003      313.816        1.252        0.198      142.754       27.820        0.038      333.741        3.255      872.246
12/23/2013  23:56:00       22.756      193.459      -34.812       18.125       25.233       14.177      328.516      636.680      200.984        2.016        0.058      194.792       11.645        0.004      333.521        2.889      872.255
12/23/2013  23:57:00       11.784      184.314      -27.775       13.983       22.676       12.004      195.525      514.197      144.102        1.787        0.043      184.690        9.182        0.002      333.431        2.740      872.265
12/23/2013  23:58:00       -5.263      173.308      -23.935       18.279       19.297       11.572      334.128      372.357      133.910        1.574        0.042      173.388        6.576        0.001      333.455        2.780      872.258
12/23/2013  23:59:00       19.057      139.536      -17.543       17.639       20.457       10.400      311.138      418.500      108.170        1.049        0.042      140.832       10.439        0.005      333.526        2.899      872.235
